Wetterdaten: Freitag, 15.03.2019
Datum Zeit Temp. A. Feuchte A. Luftdruck Regen Wind Richtung Richtung Sonnenschein ET UV Solar Taupunkt Windchill Windböen
15.03.2019 00:00 2,9 °C 87 % 1009,0 hPa 0,0 mm 18,6 km/h (3 Bft) W 263 ° 0 min 0,000 mm 0,0 UV-I 0 W/m² 1,0 °C -1,4 °C 24,1 km/h (4 Bft)
15.03.2019 00:01 2,9 °C 87 % 1008,9 hPa 0,0 mm 15,1 km/h (3 Bft) W 279 ° 0 min 0,000 mm 0,0 UV-I 0 W/m² 1,0 °C -0,9 °C 22,5 km/h (4 Bft)
15.03.2019 00:02 2,9 °C 87 % 1008,9 hPa 0,0 mm 15,7 km/h (3 Bft) W-SW 245 ° 0 min 0,000 mm 0,0 UV-I 0 W/m² 1,0 °C -1,0 °C 22,5 km/h (4 Bft)
15.03.2019 00:03 2,9 °C 87 % 1009,1 hPa 0,0 mm 17,6 km/h (3 Bft) W 275 ° 0 min 0,000 mm 0,0 UV-I 0 W/m² 1,0 °C -1,2 °C 30,6 km/h (5 Bft)
15.03.2019 00:04 2,8 °C 87 % 1009,1 hPa 0,0 mm 24,7 km/h (4 Bft) W 270 ° 0 min 0,000 mm 0,0 UV-I 0 W/m² 0,9 °C -2,3 °C 33,8 km/h (5 Bft)
15.03.2019 00:05 2,8 °C 87 % 1009,1 hPa 0,0 mm 25,7 km/h (4 Bft) W 265 ° 0 min 0,000 mm 0,0 UV-I 0 W/m² 0,9 °C -2,4 °C 38,6 km/h (5 Bft)
15.03.2019 00:06 2,8 °C 87 % 1009,1 hPa 0,0 mm 24,6 km/h (4 Bft) S-SW 213 ° 0 min 0,000 mm 0,0 UV-I 0 W/m² 0,9 °C -2,3 °C 40,2 km/h (6 Bft)
15.03.2019 00:07 2,8 °C 87 % 1009,1 hPa 0,0 mm 12,3 km/h (3 Bft) W-SW 248 ° 0 min 0,000 mm 0,0 UV-I 0 W/m² 0,9 °C -0,5 °C 29,0 km/h (5 Bft)
15.03.2019 00:08 2,8 °C 87 % 1009,2 hPa 0,0 mm 14,0 km/h (3 Bft) SW 236 ° 0 min 0,000 mm 0,0 UV-I 0 W/m² 0,9 °C -0,8 °C 17,7 km/h (3 Bft)
15.03.2019 00:09 2,8 °C 87 % 1009,2 hPa 0,0 mm 13,0 km/h (3 Bft) W-SW 243 ° 0 min 0,000 mm 0,0 UV-I 0 W/m² 0,9 °C -0,6 °C 19,3 km/h (3 Bft)
15.03.2019 00:10 2,8 °C 87 % 1009,1 hPa 0,0 mm 16,0 km/h (3 Bft) W-SW 244 ° 0 min 0,000 mm 0,0 UV-I 0 W/m² 0,9 °C -1,1 °C 22,5 km/h (4 Bft)
15.03.2019 00:11 2,8 °C 87 % 1009,1 hPa 0,0 mm 19,1 km/h (3 Bft) W 263 ° 0 min 0,000 mm 0,0 UV-I 0 W/m² 0,9 °C -1,6 °C 25,7 km/h (4 Bft)
15.03.2019 00:12 2,8 °C 87 % 1009,1 hPa 0,0 mm 17,4 km/h (3 Bft) W 281 ° 0 min 0,000 mm 0,0 UV-I 0 W/m² 0,9 °C -1,3 °C 25,7 km/h (4 Bft)
15.03.2019 00:13 2,8 °C 87 % 1009,1 hPa 0,0 mm 15,0 km/h (3 Bft) W-SW 252 ° 0 min 0,000 mm 0,0 UV-I 0 W/m² 0,9 °C -1,0 °C 19,3 km/h (3 Bft)
15.03.2019 00:14 2,8 °C 87 % 1009,1 hPa 0,0 mm 14,6 km/h (3 Bft) SW 233 ° 0 min 0,000 mm 0,0 UV-I 0 W/m² 0,9 °C -0,9 °C 22,5 km/h (4 Bft)
15.03.2019 00:15 2,8 °C 87 % 1009,1 hPa 0,0 mm 19,6 km/h (3 Bft) W-SW 253 ° 0 min 0,000 mm 0,0 UV-I 0 W/m² 0,9 °C -1,7 °C 30,6 km/h (5 Bft)
15.03.2019 00:16 2,8 °C 86 % 1009,1 hPa 0,0 mm 15,0 km/h (3 Bft) SW 233 ° 0 min 0,000 mm 0,0 UV-I 0 W/m² 0,7 °C -1,0 °C 24,1 km/h (4 Bft)
15.03.2019 00:17 2,8 °C 86 % 1009,1 hPa 0,0 mm 15,5 km/h (3 Bft) SW 236 ° 0 min 0,000 mm 0,0 UV-I 0 W/m² 0,7 °C -1,0 °C 24,1 km/h (4 Bft)
15.03.2019 00:18 2,8 °C 86 % 1009,2 hPa 0,0 mm 17,6 km/h (3 Bft) W 276 ° 0 min 0,000 mm 0,0 UV-I 0 W/m² 0,7 °C -1,4 °C 22,5 km/h (4 Bft)
15.03.2019 00:19 2,8 °C 86 % 1009,1 hPa 0,0 mm 15,8 km/h (3 Bft) W-SW 249 ° 0 min 0,000 mm 0,0 UV-I 0 W/m² 0,7 °C -1,1 °C 20,9 km/h (4 Bft)
15.03.2019 00:20 2,8 °C 86 % 1009,1 hPa 0,0 mm 13,7 km/h (3 Bft) S-SW 204 ° 0 min 0,000 mm 0,0 UV-I 0 W/m² 0,7 °C -0,7 °C 24,1 km/h (4 Bft)
15.03.2019 00:21 2,8 °C 86 % 1009,0 hPa 0,0 mm 20,3 km/h (4 Bft) SW 235 ° 0 min 0,000 mm 0,0 UV-I 0 W/m² 0,7 °C -1,7 °C 29,0 km/h (5 Bft)
15.03.2019 00:22 2,8 °C 86 % 1009,2 hPa 0,0 mm 19,4 km/h (3 Bft) W-SW 251 ° 0 min 0,000 mm 0,0 UV-I 0 W/m² 0,7 °C -1,6 °C 29,0 km/h (5 Bft)
15.03.2019 00:23 2,9 °C 86 % 1009,2 hPa 0,0 mm 19,5 km/h (3 Bft) W 259 ° 0 min 0,000 mm 0,0 UV-I 0 W/m² 0,8 °C -1,5 °C 29,0 km/h (5 Bft)
15.03.2019 00:24 2,8 °C 86 % 1009,2 hPa 0,0 mm 19,2 km/h (3 Bft) S 185 ° 0 min 0,000 mm 0,0 UV-I 0 W/m² 0,7 °C -1,6 °C 30,6 km/h (5 Bft)
15.03.2019 00:25 2,9 °C 86 % 1009,1 hPa 0,0 mm 18,4 km/h (3 Bft) W-SW 242 ° 0 min 0,000 mm 0,0 UV-I 0 W/m² 0,8 °C -1,4 °C 25,7 km/h (4 Bft)
15.03.2019 00:26 2,9 °C 86 % 1009,2 hPa 0,0 mm 14,6 km/h (3 Bft) W 279 ° 0 min 0,000 mm 0,0 UV-I 0 W/m² 0,8 °C -0,8 °C 24,1 km/h (4 Bft)
15.03.2019 00:27 2,9 °C 86 % 1009,2 hPa 0,0 mm 19,8 km/h (3 Bft) W 276 ° 0 min 0,000 mm 0,0 UV-I 0 W/m² 0,8 °C -1,6 °C 30,6 km/h (5 Bft)
15.03.2019 00:28 2,9 °C 85 % 1009,3 hPa 0,0 mm 14,0 km/h (3 Bft) W-NW 289 ° 0 min 0,000 mm 0,0 UV-I 0 W/m² 0,6 °C -0,7 °C 17,7 km/h (3 Bft)
15.03.2019 00:29 2,9 °C 85 % 1009,3 hPa 0,0 mm 16,9 km/h (3 Bft) W 277 ° 0 min 0,000 mm 0,0 UV-I 0 W/m² 0,6 °C -1,1 °C 25,7 km/h (4 Bft)
15.03.2019 00:30 2,9 °C 85 % 1009,3 hPa 0,0 mm 14,8 km/h (3 Bft) W 271 ° 0 min 0,000 mm 0,0 UV-I 0 W/m² 0,6 °C -0,8 °C 17,7 km/h (3 Bft)
15.03.2019 00:31 2,9 °C 85 % 1009,4 hPa 0,0 mm 19,6 km/h (3 Bft) W 260 ° 0 min 0,000 mm 0,0 UV-I 0 W/m² 0,6 °C -1,5 °C 27,4 km/h (4 Bft)
15.03.2019 00:32 2,9 °C 85 % 1009,4 hPa 0,0 mm 20,9 km/h (4 Bft) W 259 ° 0 min 0,000 mm 0,0 UV-I 0 W/m² 0,6 °C -1,7 °C 27,4 km/h (4 Bft)
15.03.2019 00:33 2,9 °C 85 % 1009,4 hPa 0,0 mm 19,4 km/h (3 Bft) W-NW 284 ° 0 min 0,000 mm 0,0 UV-I 0 W/m² 0,6 °C -1,5 °C 22,5 km/h (4 Bft)
15.03.2019 00:34 2,9 °C 85 % 1009,4 hPa 0,0 mm 12,9 km/h (3 Bft) W-NW 291 ° 0 min 0,000 mm 0,0 UV-I 0 W/m² 0,6 °C -0,5 °C 25,7 km/h (4 Bft)
15.03.2019 00:35 3,0 °C 85 % 1009,4 hPa 0,0 mm 13,7 km/h (3 Bft) W-SW 252 ° 0 min 0,000 mm 0,0 UV-I 0 W/m² 0,7 °C -0,5 °C 24,1 km/h (4 Bft)
15.03.2019 00:36 3,0 °C 85 % 1009,5 hPa 0,0 mm 15,9 km/h (3 Bft) W 280 ° 0 min 0,000 mm 0,0 UV-I 0 W/m² 0,7 °C -0,9 °C 24,1 km/h (4 Bft)
15.03.2019 00:37 3,0 °C 85 % 1009,5 hPa 0,0 mm 15,3 km/h (3 Bft) W 278 ° 0 min 0,000 mm 0,0 UV-I 0 W/m² 0,7 °C -0,8 °C 24,1 km/h (4 Bft)
15.03.2019 00:38 3,0 °C 85 % 1009,6 hPa 0,0 mm 14,8 km/h (3 Bft) W 265 ° 0 min 0,000 mm 0,0 UV-I 0 W/m² 0,7 °C -0,7 °C 24,1 km/h (4 Bft)
15.03.2019 00:39 3,1 °C 85 % 1009,6 hPa 0,0 mm 15,3 km/h (3 Bft) W-SW 250 ° 0 min 0,000 mm 0,0 UV-I 0 W/m² 0,8 °C -0,6 °C 19,3 km/h (3 Bft)
15.03.2019 00:40 3,1 °C 85 % 1009,7 hPa 0,0 mm 14,6 km/h (3 Bft) W 263 ° 0 min 0,000 mm 0,0 UV-I 0 W/m² 0,8 °C -0,5 °C 25,7 km/h (4 Bft)
15.03.2019 00:41 3,1 °C 84 % 1009,6 hPa 0,0 mm 15,4 km/h (3 Bft) W 269 ° 0 min 0,000 mm 0,0 UV-I 0 W/m² 0,7 °C -0,7 °C 25,7 km/h (4 Bft)
15.03.2019 00:42 3,1 °C 84 % 1009,7 hPa 0,0 mm 14,1 km/h (3 Bft) W 277 ° 0 min 0,000 mm 0,0 UV-I 0 W/m² 0,7 °C -0,4 °C 19,3 km/h (3 Bft)
15.03.2019 00:43 3,1 °C 84 % 1009,7 hPa 0,0 mm 10,1 km/h (2 Bft) W 271 ° 0 min 0,000 mm 0,0 UV-I 0 W/m² 0,7 °C 0,4 °C 17,7 km/h (3 Bft)
15.03.2019 00:44 3,1 °C 84 % 1009,6 hPa 0,0 mm 13,1 km/h (3 Bft) SW 235 ° 0 min 0,000 mm 0,0 UV-I 0 W/m² 0,7 °C -0,3 °C 19,3 km/h (3 Bft)
15.03.2019 00:45 3,1 °C 84 % 1009,6 hPa 0,0 mm 12,2 km/h (2 Bft) W 280 ° 0 min 0,000 mm 0,0 UV-I 0 W/m² 0,7 °C -0,1 °C 19,3 km/h (3 Bft)
15.03.2019 00:46 3,1 °C 84 % 1009,7 hPa 0,0 mm 15,0 km/h (3 Bft) W-SW 257 ° 0 min 0,000 mm 0,0 UV-I 0 W/m² 0,7 °C -0,6 °C 20,9 km/h (4 Bft)
15.03.2019 00:47 3,1 °C 84 % 1009,6 hPa 0,0 mm 12,1 km/h (2 Bft) W-SW 254 ° 0 min 0,000 mm 0,0 UV-I 0 W/m² 0,7 °C -0,1 °C 16,1 km/h (3 Bft)
15.03.2019 00:48 3,1 °C 84 % 1009,6 hPa 0,0 mm 12,7 km/h (3 Bft) W-SW 253 ° 0 min 0,000 mm 0,0 UV-I 0 W/m² 0,7 °C -0,2 °C 19,3 km/h (3 Bft)
15.03.2019 00:49 3,1 °C 84 % 1009,6 hPa 0,0 mm 11,7 km/h (2 Bft) W 263 ° 0 min 0,000 mm 0,0 UV-I 0 W/m² 0,7 °C 0,0 °C 17,7 km/h (3 Bft)
15.03.2019 00:50 3,1 °C 84 % 1009,6 hPa 0,0 mm 15,0 km/h (3 Bft) SW 228 ° 0 min 0,000 mm 0,0 UV-I 0 W/m² 0,7 °C -0,6 °C 22,5 km/h (4 Bft)
15.03.2019 00:51 3,2 °C 84 % 1009,5 hPa 0,0 mm 12,7 km/h (3 Bft) W 267 ° 0 min 0,000 mm 0,0 UV-I 0 W/m² 0,8 °C -0,1 °C 19,3 km/h (3 Bft)
15.03.2019 00:52 3,2 °C 84 % 1009,6 hPa 0,0 mm 8,7 km/h (2 Bft) SW 230 ° 0 min 0,000 mm 0,0 UV-I 0 W/m² 0,8 °C 0,8 °C 14,5 km/h (3 Bft)
15.03.2019 00:53 3,2 °C 84 % 1009,6 hPa 0,0 mm 11,4 km/h (2 Bft) W-SW 253 ° 0 min 0,000 mm 0,0 UV-I 0 W/m² 0,8 °C 0,2 °C 17,7 km/h (3 Bft)
15.03.2019 00:54 3,2 °C 83 % 1009,7 hPa 0,0 mm 11,9 km/h (2 Bft) SW 215 ° 0 min 0,000 mm 0,0 UV-I 0 W/m² 0,6 °C 0,1 °C 19,3 km/h (3 Bft)
15.03.2019 00:55 3,2 °C 84 % 1009,6 hPa 0,0 mm 12,3 km/h (3 Bft) W-SW 254 ° 0 min 0,000 mm 0,0 UV-I 0 W/m² 0,8 °C 0,0 °C 17,7 km/h (3 Bft)
15.03.2019 00:56 3,2 °C 84 % 1009,7 hPa 0,0 mm 15,8 km/h (3 Bft) W 280 ° 0 min 0,000 mm 0,0 UV-I 0 W/m² 0,8 °C -0,6 °C 27,4 km/h (4 Bft)
15.03.2019 00:57 3,2 °C 84 % 1009,7 hPa 0,0 mm 16,7 km/h (3 Bft) W 265 ° 0 min 0,000 mm 0,0 UV-I 0 W/m² 0,8 °C -0,7 °C 27,4 km/h (4 Bft)
15.03.2019 00:58 3,2 °C 83 % 1009,7 hPa 0,0 mm 14,8 km/h (3 Bft) W-SW 253 ° 0 min 0,000 mm 0,0 UV-I 0 W/m² 0,6 °C -0,4 °C 19,3 km/h (3 Bft)
15.03.2019 00:59 3,2 °C 83 % 1009,7 hPa 0,0 mm 13,9 km/h (3 Bft) W 271 ° 0 min 0,000 mm 0,0 UV-I 0 W/m² 0,6 °C -0,3 °C 19,3 km/h (3 Bft)
15.03.2019 01:00 3,2 °C 83 % 1009,7 hPa 0,0 mm 14,9 km/h (3 Bft) W 272 ° 0 min 0,000 mm 0,0 UV-I 0 W/m² 0,6 °C -0,5 °C 20,9 km/h (4 Bft)
15.03.2019 01:01 3,3 °C 83 % 1009,7 hPa 0,0 mm 12,2 km/h (2 Bft) W-NW 284 ° 0 min 0,025 mm 0,0 UV-I 0 W/m² 0,7 °C 0,2 °C 16,1 km/h (3 Bft)
15.03.2019 01:02 3,3 °C 83 % 1009,7 hPa 0,0 mm 11,4 km/h (2 Bft) W-SW 248 ° 0 min 0,000 mm 0,0 UV-I 0 W/m² 0,7 °C 0,3 °C 17,7 km/h (3 Bft)
15.03.2019 01:03 3,3 °C 83 % 1009,7 hPa 0,0 mm 14,3 km/h (3 Bft) W 280 ° 0 min 0,000 mm 0,0 UV-I 0 W/m² 0,7 °C -0,2 °C 22,5 km/h (4 Bft)
15.03.2019 01:04 3,3 °C 83 % 1009,7 hPa 0,0 mm 14,6 km/h (3 Bft) W 269 ° 0 min 0,000 mm 0,0 UV-I 0 W/m² 0,7 °C -0,3 °C 24,1 km/h (4 Bft)
15.03.2019 01:05 3,3 °C 83 % 1009,7 hPa 0,0 mm 17,9 km/h (3 Bft) W-NW 288 ° 0 min 0,000 mm 0,0 UV-I 0 W/m² 0,7 °C -0,8 °C 25,7 km/h (4 Bft)
15.03.2019 01:06 3,3 °C 83 % 1009,7 hPa 0,0 mm 9,5 km/h (2 Bft) W-SW 254 ° 0 min 0,000 mm 0,0 UV-I 0 W/m² 0,7 °C 0,7 °C 17,7 km/h (3 Bft)
15.03.2019 01:07 3,3 °C 83 % 1009,7 hPa 0,0 mm 13,5 km/h (3 Bft) S-SW 206 ° 0 min 0,000 mm 0,0 UV-I 0 W/m² 0,7 °C -0,1 °C 20,9 km/h (4 Bft)
15.03.2019 01:08 3,3 °C 83 % 1009,7 hPa 0,0 mm 17,5 km/h (3 Bft) W-SW 258 ° 0 min 0,000 mm 0,0 UV-I 0 W/m² 0,7 °C -0,7 °C 25,7 km/h (4 Bft)
15.03.2019 01:09 3,3 °C 83 % 1009,7 hPa 0,0 mm 9,1 km/h (2 Bft) W 273 ° 0 min 0,000 mm 0,0 UV-I 0 W/m² 0,7 °C 0,8 °C 12,9 km/h (3 Bft)
15.03.2019 01:10 3,3 °C 83 % 1009,7 hPa 0,0 mm 13,5 km/h (3 Bft) W-SW 237 ° 0 min 0,000 mm 0,0 UV-I 0 W/m² 0,7 °C -0,1 °C 24,1 km/h (4 Bft)
15.03.2019 01:11 3,3 °C 83 % 1009,7 hPa 0,0 mm 12,7 km/h (3 Bft) W 265 ° 0 min 0,000 mm 0,0 UV-I 0 W/m² 0,7 °C 0,1 °C 16,1 km/h (3 Bft)
15.03.2019 01:12 3,3 °C 83 % 1009,7 hPa 0,0 mm 17,4 km/h (3 Bft) W 265 ° 0 min 0,000 mm 0,0 UV-I 0 W/m² 0,7 °C -0,7 °C 25,7 km/h (4 Bft)
15.03.2019 01:13 3,4 °C 83 % 1009,7 hPa 0,0 mm 16,8 km/h (3 Bft) W 268 ° 0 min 0,000 mm 0,0 UV-I 0 W/m² 0,8 °C -0,5 °C 20,9 km/h (4 Bft)
15.03.2019 01:14 3,4 °C 83 % 1009,7 hPa 0,0 mm 17,1 km/h (3 Bft) W-SW 254 ° 0 min 0,000 mm 0,0 UV-I 0 W/m² 0,8 °C -0,6 °C 24,1 km/h (4 Bft)
15.03.2019 01:15 3,4 °C 83 % 1009,6 hPa 0,0 mm 12,3 km/h (3 Bft) W-SW 238 ° 0 min 0,000 mm 0,0 UV-I 0 W/m² 0,8 °C 0,3 °C 17,7 km/h (3 Bft)
15.03.2019 01:16 3,4 °C 83 % 1009,7 hPa 0,0 mm 13,2 km/h (3 Bft) W 268 ° 0 min 0,000 mm 0,0 UV-I 0 W/m² 0,8 °C 0,1 °C 29,0 km/h (5 Bft)
15.03.2019 01:17 3,4 °C 83 % 1009,7 hPa 0,0 mm 16,2 km/h (3 Bft) SW 227 ° 0 min 0,000 mm 0,0 UV-I 0 W/m² 0,8 °C -0,4 °C 29,0 km/h (5 Bft)
15.03.2019 01:18 3,4 °C 83 % 1009,7 hPa 0,0 mm 15,8 km/h (3 Bft) W 279 ° 0 min 0,000 mm 0,0 UV-I 0 W/m² 0,8 °C -0,4 °C 27,4 km/h (4 Bft)
15.03.2019 01:19 3,5 °C 83 % 1009,7 hPa 0,0 mm 12,9 km/h (3 Bft) W 262 ° 0 min 0,000 mm 0,0 UV-I 0 W/m² 0,9 °C 0,3 °C 19,3 km/h (3 Bft)
15.03.2019 01:20 3,5 °C 83 % 1009,8 hPa 0,0 mm 13,2 km/h (3 Bft) W 269 ° 0 min 0,000 mm 0,0 UV-I 0 W/m² 0,9 °C 0,2 °C 19,3 km/h (3 Bft)
15.03.2019 01:21 3,5 °C 83 % 1009,8 hPa 0,0 mm 13,3 km/h (3 Bft) W 277 ° 0 min 0,000 mm 0,0 UV-I 0 W/m² 0,9 °C 0,2 °C 20,9 km/h (4 Bft)
15.03.2019 01:22 3,5 °C 82 % 1009,8 hPa 0,0 mm 11,4 km/h (2 Bft) W 269 ° 0 min 0,000 mm 0,0 UV-I 0 W/m² 0,7 °C 0,6 °C 17,7 km/h (3 Bft)
15.03.2019 01:23 3,5 °C 82 % 1009,9 hPa 0,0 mm 10,5 km/h (2 Bft) W 261 ° 0 min 0,000 mm 0,0 UV-I 0 W/m² 0,7 °C 0,8 °C 16,1 km/h (3 Bft)
15.03.2019 01:24 3,6 °C 82 % 1009,9 hPa 0,0 mm 18,8 km/h (3 Bft) W-SW 246 ° 0 min 0,000 mm 0,0 UV-I 0 W/m² 0,8 °C -0,5 °C 29,0 km/h (5 Bft)
15.03.2019 01:25 3,6 °C 82 % 1009,9 hPa 0,0 mm 19,5 km/h (3 Bft) W 263 ° 0 min 0,000 mm 0,0 UV-I 0 W/m² 0,8 °C -0,6 °C 32,2 km/h (5 Bft)
15.03.2019 01:26 3,6 °C 82 % 1009,9 hPa 0,0 mm 23,8 km/h (4 Bft) W-SW 254 ° 0 min 0,000 mm 0,0 UV-I 0 W/m² 0,8 °C -1,2 °C 38,6 km/h (5 Bft)
15.03.2019 01:27 3,6 °C 82 % 1010,0 hPa 0,0 mm 14,6 km/h (3 Bft) W 267 ° 0 min 0,000 mm 0,0 UV-I 0 W/m² 0,8 °C 0,1 °C 22,5 km/h (4 Bft)
15.03.2019 01:28 3,6 °C 82 % 1009,9 hPa 0,0 mm 16,2 km/h (3 Bft) W 259 ° 0 min 0,000 mm 0,0 UV-I 0 W/m² 0,8 °C -0,2 °C 20,9 km/h (4 Bft)
15.03.2019 01:29 3,6 °C 82 % 1009,9 hPa 0,0 mm 18,0 km/h (3 Bft) W 269 ° 0 min 0,000 mm 0,0 UV-I 0 W/m² 0,8 °C -0,4 °C 25,7 km/h (4 Bft)
15.03.2019 01:30 3,6 °C 82 % 1009,9 hPa 0,0 mm 20,0 km/h (4 Bft) W 279 ° 0 min 0,000 mm 0,0 UV-I 0 W/m² 0,8 °C -0,7 °C 24,1 km/h (4 Bft)
15.03.2019 01:31 3,6 °C 83 % 1009,9 hPa 0,0 mm 15,6 km/h (3 Bft) W 271 ° 0 min 0,000 mm 0,0 UV-I 0 W/m² 1,0 °C -0,1 °C 22,5 km/h (4 Bft)
15.03.2019 01:32 3,6 °C 83 % 1010,0 hPa 0,0 mm 21,3 km/h (4 Bft) W 261 ° 0 min 0,000 mm 0,0 UV-I 0 W/m² 1,0 °C -0,9 °C 33,8 km/h (5 Bft)
15.03.2019 01:33 3,6 °C 83 % 1010,0 hPa 0,0 mm 21,4 km/h (4 Bft) W 270 ° 0 min 0,000 mm 0,0 UV-I 0 W/m² 1,0 °C -0,9 °C 35,4 km/h (5 Bft)
15.03.2019 01:34 3,5 °C 83 % 1010,0 hPa 0,0 mm 22,5 km/h (4 Bft) W 259 ° 0 min 0,000 mm 0,0 UV-I 0 W/m² 0,9 °C -1,1 °C 32,2 km/h (5 Bft)
15.03.2019 01:35 3,4 °C 83 % 1010,0 hPa 0,0 mm 20,9 km/h (4 Bft) W-SW 248 ° 0 min 0,000 mm 0,0 UV-I 0 W/m² 0,8 °C -1,1 °C 29,0 km/h (5 Bft)
15.03.2019 01:36 3,4 °C 84 % 1010,1 hPa 0,0 mm 11,1 km/h (2 Bft) NW 306 ° 0 min 0,000 mm 0,0 UV-I 0 W/m² 1,0 °C 0,5 °C 16,1 km/h (3 Bft)
15.03.2019 01:37 3,3 °C 84 % 1010,1 hPa 0,0 mm 19,2 km/h (3 Bft) W 259 ° 0 min 0,000 mm 0,0 UV-I 0 W/m² 0,9 °C -1,0 °C 24,1 km/h (4 Bft)
15.03.2019 01:38 3,3 °C 85 % 1010,0 hPa 0,2 mm 15,2 km/h (3 Bft) W 272 ° 0 min 0,000 mm 0,0 UV-I 0 W/m² 1,0 °C -0,4 °C 20,9 km/h (4 Bft)
15.03.2019 01:39 3,3 °C 85 % 1010,0 hPa 0,0 mm 14,3 km/h (3 Bft) W 279 ° 0 min 0,000 mm 0,0 UV-I 0 W/m² 1,0 °C -0,2 °C 19,3 km/h (3 Bft)
15.03.2019 01:40 3,2 °C 85 % 1010,1 hPa 0,0 mm 19,9 km/h (4 Bft) W-NW 288 ° 0 min 0,000 mm 0,0 UV-I 0 W/m² 0,9 °C -1,2 °C 24,1 km/h (4 Bft)
15.03.2019 01:41 3,2 °C 85 % 1010,1 hPa 0,0 mm 14,3 km/h (3 Bft) W 270 ° 0 min 0,000 mm 0,0 UV-I 0 W/m² 0,9 °C -0,4 °C 17,7 km/h (3 Bft)
15.03.2019 01:42 3,2 °C 85 % 1010,1 hPa 0,0 mm 15,2 km/h (3 Bft) W 261 ° 0 min 0,000 mm 0,0 UV-I 0 W/m² 0,9 °C -0,5 °C 20,9 km/h (4 Bft)
15.03.2019 01:43 3,2 °C 85 % 1010,1 hPa 0,0 mm 12,0 km/h (2 Bft) W-SW 242 ° 0 min 0,000 mm 0,0 UV-I 0 W/m² 0,9 °C 0,1 °C 16,1 km/h (3 Bft)
15.03.2019 01:44 3,1 °C 86 % 1010,1 hPa 0,0 mm 16,9 km/h (3 Bft) W 261 ° 0 min 0,000 mm 0,0 UV-I 0 W/m² 1,0 °C -0,9 °C 20,9 km/h (4 Bft)
15.03.2019 01:45 3,1 °C 86 % 1010,2 hPa 0,0 mm 17,8 km/h (3 Bft) W 261 ° 0 min 0,000 mm 0,0 UV-I 0 W/m² 1,0 °C -1,0 °C 24,1 km/h (4 Bft)
15.03.2019 01:46 3,1 °C 86 % 1010,0 hPa 0,0 mm 13,7 km/h (3 Bft) W 277 ° 0 min 0,000 mm 0,0 UV-I 0 W/m² 1,0 °C -0,4 °C 20,9 km/h (4 Bft)
15.03.2019 01:47 3,1 °C 86 % 1010,0 hPa 0,0 mm 14,5 km/h (3 Bft) W 265 ° 0 min 0,000 mm 0,0 UV-I 0 W/m² 1,0 °C -0,5 °C 19,3 km/h (3 Bft)
15.03.2019 01:48 3,1 °C 87 % 1010,1 hPa 0,0 mm 17,4 km/h (3 Bft) W-NW 284 ° 0 min 0,000 mm 0,0 UV-I 0 W/m² 1,2 °C -1,0 °C 29,0 km/h (5 Bft)
15.03.2019 01:49 3,1 °C 87 % 1010,1 hPa 0,0 mm 14,1 km/h (3 Bft) W-NW 288 ° 0 min 0,000 mm 0,0 UV-I 0 W/m² 1,2 °C -0,4 °C 24,1 km/h (4 Bft)
15.03.2019 01:50 3,1 °C 87 % 1010,1 hPa 0,0 mm 16,2 km/h (3 Bft) W-SW 254 ° 0 min 0,000 mm 0,0 UV-I 0 W/m² 1,2 °C -0,8 °C 20,9 km/h (4 Bft)
15.03.2019 01:51 3,1 °C 87 % 1010,1 hPa 0,0 mm 17,3 km/h (3 Bft) W 262 ° 0 min 0,000 mm 0,0 UV-I 0 W/m² 1,2 °C -1,0 °C 25,7 km/h (4 Bft)
15.03.2019 01:52 3,0 °C 87 % 1010,1 hPa 0,0 mm 12,9 km/h (3 Bft) W-SW 245 ° 0 min 0,000 mm 0,0 UV-I 0 W/m² 1,1 °C -0,3 °C 17,7 km/h (3 Bft)
15.03.2019 01:53 3,0 °C 87 % 1010,1 hPa 0,0 mm 12,2 km/h (2 Bft) W 259 ° 0 min 0,000 mm 0,0 UV-I 0 W/m² 1,1 °C -0,2 °C 22,5 km/h (4 Bft)
15.03.2019 01:54 2,9 °C 87 % 1010,1 hPa 0,0 mm 17,3 km/h (3 Bft) W-SW 256 ° 0 min 0,000 mm 0,0 UV-I 0 W/m² 1,0 °C -1,2 °C 29,0 km/h (5 Bft)
15.03.2019 01:55 2,9 °C 87 % 1010,2 hPa 0,0 mm 19,6 km/h (3 Bft) W 265 ° 0 min 0,000 mm 0,0 UV-I 0 W/m² 1,0 °C -1,5 °C 29,0 km/h (5 Bft)
15.03.2019 01:56 2,9 °C 88 % 1010,1 hPa 0,0 mm 14,3 km/h (3 Bft) W-NW 284 ° 0 min 0,000 mm 0,0 UV-I 0 W/m² 1,1 °C -0,7 °C 19,3 km/h (3 Bft)
15.03.2019 01:57 2,9 °C 88 % 1010,1 hPa 0,0 mm 8,6 km/h (2 Bft) W-SW 237 ° 0 min 0,000 mm 0,0 UV-I 0 W/m² 1,1 °C 0,5 °C 14,5 km/h (3 Bft)
15.03.2019 01:58 2,9 °C 88 % 1010,1 hPa 0,0 mm 11,1 km/h (2 Bft) W-SW 246 ° 0 min 0,000 mm 0,0 UV-I 0 W/m² 1,1 °C -0,1 °C 19,3 km/h (3 Bft)
15.03.2019 01:59 2,9 °C 88 % 1010,1 hPa 0,0 mm 11,1 km/h (2 Bft) W 268 ° 0 min 0,000 mm 0,0 UV-I 0 W/m² 1,1 °C -0,1 °C 19,3 km/h (3 Bft)
15.03.2019 02:00 2,9 °C 88 % 1010,2 hPa 0,0 mm 12,9 km/h (3 Bft) W-SW 242 ° 0 min 0,026 mm 0,0 UV-I 0 W/m² 1,1 °C -0,5 °C 19,3 km/h (3 Bft)
15.03.2019 02:01 2,9 °C 88 % 1010,2 hPa 0,0 mm 16,0 km/h (3 Bft) W 267 ° 0 min 0,000 mm 0,0 UV-I 0 W/m² 1,1 °C -1,0 °C 22,5 km/h (4 Bft)
15.03.2019 02:02 2,8 °C 88 % 1010,2 hPa 0,0 mm 10,1 km/h (2 Bft) SW 234 ° 0 min 0,000 mm 0,0 UV-I 0 W/m² 1,0 °C 0,0 °C 17,7 km/h (3 Bft)
15.03.2019 02:03 2,9 °C 88 % 1010,2 hPa 0,0 mm 16,8 km/h (3 Bft) W 261 ° 0 min 0,000 mm 0,0 UV-I 0 W/m² 1,1 °C -1,1 °C 25,7 km/h (4 Bft)
15.03.2019 02:04 2,9 °C 88 % 1010,1 hPa 0,0 mm 17,6 km/h (3 Bft) W 271 ° 0 min 0,000 mm 0,0 UV-I 0 W/m² 1,1 °C -1,2 °C 22,5 km/h (4 Bft)
15.03.2019 02:05 2,9 °C 88 % 1010,2 hPa 0,0 mm 18,2 km/h (3 Bft) W-SW 254 ° 0 min 0,000 mm 0,0 UV-I 0 W/m² 1,1 °C -1,3 °C 24,1 km/h (4 Bft)
15.03.2019 02:06 2,9 °C 88 % 1010,1 hPa 0,0 mm 20,0 km/h (4 Bft) W 265 ° 0 min 0,000 mm 0,0 UV-I 0 W/m² 1,1 °C -1,6 °C 24,1 km/h (4 Bft)
15.03.2019 02:07 2,9 °C 88 % 1010,1 hPa 0,0 mm 18,4 km/h (3 Bft) W-NW 286 ° 0 min 0,000 mm 0,0 UV-I 0 W/m² 1,1 °C -1,4 °C 24,1 km/h (4 Bft)
15.03.2019 02:08 2,9 °C 88 % 1010,1 hPa 0,0 mm 15,1 km/h (3 Bft) W-SW 257 ° 0 min 0,000 mm 0,0 UV-I 0 W/m² 1,1 °C -0,9 °C 25,7 km/h (4 Bft)
15.03.2019 02:09 2,9 °C 88 % 1010,2 hPa 0,0 mm 12,4 km/h (3 Bft) W 265 ° 0 min 0,000 mm 0,0 UV-I 0 W/m² 1,1 °C -0,4 °C 17,7 km/h (3 Bft)
15.03.2019 02:10 2,9 °C 88 % 1010,2 hPa 0,0 mm 14,3 km/h (3 Bft) W 273 ° 0 min 0,000 mm 0,0 UV-I 0 W/m² 1,1 °C -0,7 °C 17,7 km/h (3 Bft)
15.03.2019 02:11 2,9 °C 88 % 1010,2 hPa 0,0 mm 10,9 km/h (2 Bft) W-SW 238 ° 0 min 0,000 mm 0,0 UV-I 0 W/m² 1,1 °C -0,1 °C 14,5 km/h (3 Bft)
15.03.2019 02:12 2,9 °C 88 % 1010,1 hPa 0,0 mm 15,0 km/h (3 Bft) S-SW 208 ° 0 min 0,000 mm 0,0 UV-I 0 W/m² 1,1 °C -0,8 °C 25,7 km/h (4 Bft)
15.03.2019 02:13 2,9 °C 88 % 1010,2 hPa 0,0 mm 16,1 km/h (3 Bft) W-NW 290 ° 0 min 0,000 mm 0,0 UV-I 0 W/m² 1,1 °C -1,0 °C 27,4 km/h (4 Bft)
15.03.2019 02:14 3,0 °C 88 % 1010,1 hPa 0,0 mm 12,4 km/h (3 Bft) W-SW 253 ° 0 min 0,000 mm 0,0 UV-I 0 W/m² 1,2 °C -0,2 °C 19,3 km/h (3 Bft)
15.03.2019 02:15 2,9 °C 88 % 1010,2 hPa 0,0 mm 14,1 km/h (3 Bft) W 263 ° 0 min 0,000 mm 0,0 UV-I 0 W/m² 1,1 °C -0,7 °C 25,7 km/h (4 Bft)
15.03.2019 02:16 3,0 °C 88 % 1010,2 hPa 0,0 mm 13,1 km/h (3 Bft) W-SW 253 ° 0 min 0,000 mm 0,0 UV-I 0 W/m² 1,2 °C -0,4 °C 19,3 km/h (3 Bft)
15.03.2019 02:17 3,0 °C 88 % 1010,2 hPa 0,0 mm 20,2 km/h (4 Bft) W 275 ° 0 min 0,000 mm 0,0 UV-I 0 W/m² 1,2 °C -1,5 °C 27,4 km/h (4 Bft)
15.03.2019 02:18 3,0 °C 88 % 1010,3 hPa 0,0 mm 17,1 km/h (3 Bft) W-SW 251 ° 0 min 0,000 mm 0,0 UV-I 0 W/m² 1,2 °C -1,0 °C 20,9 km/h (4 Bft)
15.03.2019 02:19 3,0 °C 88 % 1010,3 hPa 0,0 mm 19,8 km/h (3 Bft) W-SW 257 ° 0 min 0,000 mm 0,0 UV-I 0 W/m² 1,2 °C -1,4 °C 30,6 km/h (5 Bft)
15.03.2019 02:20 3,0 °C 88 % 1010,2 hPa 0,0 mm 20,1 km/h (4 Bft) W 272 ° 0 min 0,000 mm 0,0 UV-I 0 W/m² 1,2 °C -1,5 °C 29,0 km/h (5 Bft)
15.03.2019 02:21 3,0 °C 88 % 1010,3 hPa 0,0 mm 21,7 km/h (4 Bft) W 273 ° 0 min 0,000 mm 0,0 UV-I 0 W/m² 1,2 °C -1,7 °C 37,0 km/h (5 Bft)
15.03.2019 02:22 3,0 °C 88 % 1010,3 hPa 0,0 mm 13,6 km/h (3 Bft) W 269 ° 0 min 0,000 mm 0,0 UV-I 0 W/m² 1,2 °C -0,5 °C 25,7 km/h (4 Bft)
15.03.2019 02:23 3,0 °C 88 % 1010,3 hPa 0,0 mm 19,4 km/h (3 Bft) W-SW 244 ° 0 min 0,000 mm 0,0 UV-I 0 W/m² 1,2 °C -1,4 °C 29,0 km/h (5 Bft)
15.03.2019 02:24 2,9 °C 88 % 1010,3 hPa 0,0 mm 24,1 km/h (4 Bft) W-NW 289 ° 0 min 0,000 mm 0,0 UV-I 0 W/m² 1,1 °C -2,1 °C 29,0 km/h (5 Bft)
15.03.2019 02:25 2,9 °C 88 % 1010,3 hPa 0,0 mm 15,1 km/h (3 Bft) W 263 ° 0 min 0,000 mm 0,0 UV-I 0 W/m² 1,1 °C -0,9 °C 19,3 km/h (3 Bft)
15.03.2019 02:26 2,9 °C 88 % 1010,3 hPa 0,0 mm 12,5 km/h (3 Bft) SW 234 ° 0 min 0,000 mm 0,0 UV-I 0 W/m² 1,1 °C -0,4 °C 19,3 km/h (3 Bft)
15.03.2019 02:27 2,9 °C 88 % 1010,3 hPa 0,0 mm 19,4 km/h (3 Bft) W 263 ° 0 min 0,000 mm 0,0 UV-I 0 W/m² 1,1 °C -1,5 °C 24,1 km/h (4 Bft)
15.03.2019 02:28 2,9 °C 88 % 1010,3 hPa 0,0 mm 13,2 km/h (3 Bft) W-SW 251 ° 0 min 0,000 mm 0,0 UV-I 0 W/m² 1,1 °C -0,5 °C 17,7 km/h (3 Bft)
15.03.2019 02:29 2,9 °C 88 % 1010,4 hPa 0,0 mm 16,9 km/h (3 Bft) W 263 ° 0 min 0,000 mm 0,0 UV-I 0 W/m² 1,1 °C -1,1 °C 25,7 km/h (4 Bft)
15.03.2019 02:30 2,9 °C 88 % 1010,4 hPa 0,0 mm 13,6 km/h (3 Bft) W-NW 302 ° 0 min 0,000 mm 0,0 UV-I 0 W/m² 1,1 °C -0,6 °C 16,1 km/h (3 Bft)
15.03.2019 02:31 2,9 °C 88 % 1010,5 hPa 0,0 mm 10,6 km/h (2 Bft) W-NW 296 ° 0 min 0,000 mm 0,0 UV-I 0 W/m² 1,1 °C 0,0 °C 19,3 km/h (3 Bft)
15.03.2019 02:32 2,9 °C 88 % 1010,5 hPa 0,0 mm 10,3 km/h (2 Bft) W-NW 288 ° 0 min 0,000 mm 0,0 UV-I 0 W/m² 1,1 °C 0,1 °C 14,5 km/h (3 Bft)
15.03.2019 02:33 2,9 °C 88 % 1010,5 hPa 0,0 mm 10,6 km/h (2 Bft) W-NW 294 ° 0 min 0,000 mm 0,0 UV-I 0 W/m² 1,1 °C 0,0 °C 19,3 km/h (3 Bft)
15.03.2019 02:34 2,9 °C 88 % 1010,5 hPa 0,0 mm 11,7 km/h (2 Bft) W-NW 287 ° 0 min 0,000 mm 0,0 UV-I 0 W/m² 1,1 °C -0,2 °C 17,7 km/h (3 Bft)
15.03.2019 02:35 2,9 °C 88 % 1010,5 hPa 0,0 mm 15,9 km/h (3 Bft) W-NW 292 ° 0 min 0,000 mm 0,0 UV-I 0 W/m² 1,1 °C -1,0 °C 20,9 km/h (4 Bft)
15.03.2019 02:36 2,9 °C 88 % 1010,5 hPa 0,0 mm 14,0 km/h (3 Bft) W-SW 257 ° 0 min 0,000 mm 0,0 UV-I 0 W/m² 1,1 °C -0,7 °C 19,3 km/h (3 Bft)
15.03.2019 02:37 2,9 °C 88 % 1010,5 hPa 0,0 mm 13,7 km/h (3 Bft) SW 235 ° 0 min 0,000 mm 0,0 UV-I 0 W/m² 1,1 °C -0,6 °C 17,7 km/h (3 Bft)
15.03.2019 02:38 2,9 °C 88 % 1010,5 hPa 0,0 mm 12,9 km/h (3 Bft) SW 225 ° 0 min 0,000 mm 0,0 UV-I 0 W/m² 1,1 °C -0,5 °C 27,4 km/h (4 Bft)
15.03.2019 02:39 2,9 °C 88 % 1010,4 hPa 0,0 mm 14,1 km/h (3 Bft) W-SW 251 ° 0 min 0,000 mm 0,0 UV-I 0 W/m² 1,1 °C -0,7 °C 22,5 km/h (4 Bft)
15.03.2019 02:40 2,9 °C 88 % 1010,4 hPa 0,0 mm 13,8 km/h (3 Bft) W-SW 254 ° 0 min 0,000 mm 0,0 UV-I 0 W/m² 1,1 °C -0,6 °C 20,9 km/h (4 Bft)
15.03.2019 02:41 2,9 °C 88 % 1010,6 hPa 0,0 mm 17,8 km/h (3 Bft) W 269 ° 0 min 0,000 mm 0,0 UV-I 0 W/m² 1,1 °C -1,3 °C 27,4 km/h (4 Bft)
15.03.2019 02:42 2,9 °C 88 % 1010,6 hPa 0,0 mm 18,7 km/h (3 Bft) W-SW 246 ° 0 min 0,000 mm 0,0 UV-I 0 W/m² 1,1 °C -1,4 °C 29,0 km/h (5 Bft)
15.03.2019 02:43 2,9 °C 88 % 1010,5 hPa 0,0 mm 12,2 km/h (2 Bft) W 264 ° 0 min 0,000 mm 0,0 UV-I 0 W/m² 1,1 °C -0,3 °C 17,7 km/h (3 Bft)
15.03.2019 02:44 2,9 °C 88 % 1010,5 hPa 0,0 mm 13,9 km/h (3 Bft) W 265 ° 0 min 0,000 mm 0,0 UV-I 0 W/m² 1,1 °C -0,6 °C 20,9 km/h (4 Bft)
15.03.2019 02:45 2,9 °C 88 % 1010,6 hPa 0,0 mm 14,6 km/h (3 Bft) W 273 ° 0 min 0,000 mm 0,0 UV-I 0 W/m² 1,1 °C -0,8 °C 19,3 km/h (3 Bft)
15.03.2019 02:46 2,9 °C 88 % 1010,6 hPa 0,0 mm 14,3 km/h (3 Bft) W-SW 256 ° 0 min 0,000 mm 0,0 UV-I 0 W/m² 1,1 °C -0,7 °C 20,9 km/h (4 Bft)
15.03.2019 02:47 2,9 °C 88 % 1010,6 hPa 0,0 mm 19,2 km/h (3 Bft) W 273 ° 0 min 0,000 mm 0,0 UV-I 0 W/m² 1,1 °C -1,5 °C 25,7 km/h (4 Bft)
15.03.2019 02:48 2,9 °C 88 % 1010,6 hPa 0,0 mm 17,4 km/h (3 Bft) W-NW 300 ° 0 min 0,000 mm 0,0 UV-I 0 W/m² 1,1 °C -1,2 °C 29,0 km/h (5 Bft)
15.03.2019 02:49 2,9 °C 88 % 1010,6 hPa 0,0 mm 19,8 km/h (3 Bft) S-SW 209 ° 0 min 0,000 mm 0,0 UV-I 0 W/m² 1,1 °C -1,6 °C 25,7 km/h (4 Bft)
15.03.2019 02:50 2,9 °C 88 % 1010,6 hPa 0,0 mm 13,5 km/h (3 Bft) W 265 ° 0 min 0,000 mm 0,0 UV-I 0 W/m² 1,1 °C -0,6 °C 20,9 km/h (4 Bft)
15.03.2019 02:51 2,9 °C 88 % 1010,7 hPa 0,0 mm 15,2 km/h (3 Bft) W 265 ° 0 min 0,000 mm 0,0 UV-I 0 W/m² 1,1 °C -0,9 °C 24,1 km/h (4 Bft)
15.03.2019 02:52 2,8 °C 88 % 1010,7 hPa 0,0 mm 19,3 km/h (3 Bft) W 265 ° 0 min 0,000 mm 0,0 UV-I 0 W/m² 1,0 °C -1,6 °C 30,6 km/h (5 Bft)
15.03.2019 02:53 2,9 °C 88 % 1010,6 hPa 0,0 mm 14,3 km/h (3 Bft) W 267 ° 0 min 0,000 mm 0,0 UV-I 0 W/m² 1,1 °C -0,7 °C 24,1 km/h (4 Bft)
15.03.2019 02:54 2,9 °C 88 % 1010,6 hPa 0,0 mm 21,3 km/h (4 Bft) W-NW 292 ° 0 min 0,000 mm 0,0 UV-I 0 W/m² 1,1 °C -1,8 °C 33,8 km/h (5 Bft)
15.03.2019 02:55 2,9 °C 88 % 1010,7 hPa 0,0 mm 16,1 km/h (3 Bft) W-NW 283 ° 0 min 0,000 mm 0,0 UV-I 0 W/m² 1,1 °C -1,0 °C 24,1 km/h (4 Bft)
15.03.2019 02:56 2,9 °C 88 % 1010,6 hPa 0,0 mm 16,2 km/h (3 Bft) W-SW 253 ° 0 min 0,000 mm 0,0 UV-I 0 W/m² 1,1 °C -1,0 °C 20,9 km/h (4 Bft)
15.03.2019 02:57 2,9 °C 88 % 1010,7 hPa 0,0 mm 12,3 km/h (3 Bft) W 261 ° 0 min 0,000 mm 0,0 UV-I 0 W/m² 1,1 °C -0,3 °C 17,7 km/h (3 Bft)
15.03.2019 02:58 2,9 °C 88 % 1010,7 hPa 0,0 mm 13,4 km/h (3 Bft) W-SW 245 ° 0 min 0,000 mm 0,0 UV-I 0 W/m² 1,1 °C -0,6 °C 19,3 km/h (3 Bft)
15.03.2019 02:59 2,9 °C 88 % 1010,7 hPa 0,0 mm 10,4 km/h (2 Bft) W 270 ° 0 min 0,000 mm 0,0 UV-I 0 W/m² 1,1 °C 0,1 °C 12,9 km/h (3 Bft)
15.03.2019 03:00 2,9 °C 88 % 1010,8 hPa 0,0 mm 12,9 km/h (3 Bft) W 263 ° 0 min 0,000 mm 0,0 UV-I 0 W/m² 1,1 °C -0,5 °C 16,1 km/h (3 Bft)
15.03.2019 03:01 2,9 °C 88 % 1010,8 hPa 0,0 mm 16,2 km/h (3 Bft) W 261 ° 0 min 0,025 mm 0,0 UV-I 0 W/m² 1,1 °C -1,0 °C 20,9 km/h (4 Bft)
15.03.2019 03:02 2,8 °C 88 % 1010,8 hPa 0,0 mm 13,9 km/h (3 Bft) W 260 ° 0 min 0,000 mm 0,0 UV-I 0 W/m² 1,0 °C -0,8 °C 22,5 km/h (4 Bft)
15.03.2019 03:03 2,9 °C 88 % 1010,8 hPa 0,0 mm 19,6 km/h (3 Bft) W-SW 244 ° 0 min 0,000 mm 0,0 UV-I 0 W/m² 1,1 °C -1,5 °C 25,7 km/h (4 Bft)
15.03.2019 03:04 2,9 °C 88 % 1010,8 hPa 0,0 mm 16,8 km/h (3 Bft) SW 231 ° 0 min 0,000 mm 0,0 UV-I 0 W/m² 1,1 °C -1,1 °C 22,5 km/h (4 Bft)
15.03.2019 03:05 2,9 °C 88 % 1010,8 hPa 0,0 mm 11,2 km/h (2 Bft) SW 234 ° 0 min 0,000 mm 0,0 UV-I 0 W/m² 1,1 °C -0,1 °C 19,3 km/h (3 Bft)
15.03.2019 03:06 2,9 °C 87 % 1010,8 hPa 0,0 mm 17,4 km/h (3 Bft) W-SW 249 ° 0 min 0,000 mm 0,0 UV-I 0 W/m² 1,0 °C -1,2 °C 24,1 km/h (4 Bft)
15.03.2019 03:07 2,9 °C 87 % 1010,7 hPa 0,0 mm 17,5 km/h (3 Bft) W-SW 238 ° 0 min 0,000 mm 0,0 UV-I 0 W/m² 1,0 °C -1,2 °C 22,5 km/h (4 Bft)
15.03.2019 03:08 2,9 °C 87 % 1010,7 hPa 0,0 mm 13,5 km/h (3 Bft) W 266 ° 0 min 0,000 mm 0,0 UV-I 0 W/m² 1,0 °C -0,6 °C 19,3 km/h (3 Bft)
15.03.2019 03:09 2,9 °C 87 % 1010,8 hPa 0,0 mm 12,4 km/h (3 Bft) SW 217 ° 0 min 0,000 mm 0,0 UV-I 0 W/m² 1,0 °C -0,4 °C 19,3 km/h (3 Bft)
15.03.2019 03:10 2,9 °C 87 % 1010,8 hPa 0,0 mm 14,1 km/h (3 Bft) SW 226 ° 0 min 0,000 mm 0,0 UV-I 0 W/m² 1,0 °C -0,7 °C 19,3 km/h (3 Bft)
15.03.2019 03:11 2,9 °C 87 % 1010,7 hPa 0,0 mm 10,2 km/h (2 Bft) W 263 ° 0 min 0,000 mm 0,0 UV-I 0 W/m² 1,0 °C 0,1 °C 14,5 km/h (3 Bft)
15.03.2019 03:12 2,9 °C 87 % 1010,7 hPa 0,0 mm 16,5 km/h (3 Bft) W-NW 286 ° 0 min 0,000 mm 0,0 UV-I 0 W/m² 1,0 °C -1,1 °C 25,7 km/h (4 Bft)
15.03.2019 03:13 2,9 °C 87 % 1010,8 hPa 0,0 mm 21,0 km/h (4 Bft) W 260 ° 0 min 0,000 mm 0,0 UV-I 0 W/m² 1,0 °C -1,7 °C 29,0 km/h (5 Bft)
15.03.2019 03:14 2,9 °C 87 % 1010,7 hPa 0,0 mm 19,0 km/h (3 Bft) W-NW 286 ° 0 min 0,000 mm 0,0 UV-I 0 W/m² 1,0 °C -1,4 °C 27,4 km/h (4 Bft)
15.03.2019 03:15 2,9 °C 87 % 1010,7 hPa 0,0 mm 16,6 km/h (3 Bft) SW 214 ° 0 min 0,000 mm 0,0 UV-I 0 W/m² 1,0 °C -1,1 °C 24,1 km/h (4 Bft)
15.03.2019 03:16 2,9 °C 87 % 1010,7 hPa 0,0 mm 12,4 km/h (3 Bft) W 279 ° 0 min 0,000 mm 0,0 UV-I 0 W/m² 1,0 °C -0,4 °C 17,7 km/h (3 Bft)
15.03.2019 03:17 2,9 °C 87 % 1010,7 hPa 0,0 mm 11,1 km/h (2 Bft) W-NW 296 ° 0 min 0,000 mm 0,0 UV-I 0 W/m² 1,0 °C -0,1 °C 16,1 km/h (3 Bft)
15.03.2019 03:18 2,9 °C 87 % 1010,7 hPa 0,0 mm 12,7 km/h (3 Bft) SW 227 ° 0 min 0,000 mm 0,0 UV-I 0 W/m² 1,0 °C -0,4 °C 16,1 km/h (3 Bft)
15.03.2019 03:19 2,9 °C 87 % 1010,7 hPa 0,0 mm 12,9 km/h (3 Bft) W 261 ° 0 min 0,000 mm 0,0 UV-I 0 W/m² 1,0 °C -0,5 °C 20,9 km/h (4 Bft)
15.03.2019 03:20 2,9 °C 87 % 1010,7 hPa 0,0 mm 8,6 km/h (2 Bft) W-SW 251 ° 0 min 0,000 mm 0,0 UV-I 0 W/m² 1,0 °C 0,5 °C 17,7 km/h (3 Bft)
15.03.2019 03:21 2,9 °C 87 % 1010,7 hPa 0,0 mm 12,9 km/h (3 Bft) W 268 ° 0 min 0,000 mm 0,0 UV-I 0 W/m² 1,0 °C -0,5 °C 22,5 km/h (4 Bft)
15.03.2019 03:22 2,9 °C 87 % 1010,7 hPa 0,2 mm 17,0 km/h (3 Bft) W-SW 252 ° 0 min 0,000 mm 0,0 UV-I 0 W/m² 1,0 °C -1,2 °C 24,1 km/h (4 Bft)
15.03.2019 03:23 2,9 °C 87 % 1010,7 hPa 0,0 mm 15,0 km/h (3 Bft) W 279 ° 0 min 0,000 mm 0,0 UV-I 0 W/m² 1,0 °C -0,8 °C 20,9 km/h (4 Bft)
15.03.2019 03:24 2,9 °C 87 % 1010,7 hPa 0,0 mm 13,5 km/h (3 Bft) W 263 ° 0 min 0,000 mm 0,0 UV-I 0 W/m² 1,0 °C -0,6 °C 24,1 km/h (4 Bft)
15.03.2019 03:25 2,9 °C 87 % 1010,7 hPa 0,0 mm 18,6 km/h (3 Bft) W-NW 288 ° 0 min 0,000 mm 0,0 UV-I 0 W/m² 1,0 °C -1,4 °C 29,0 km/h (5 Bft)
15.03.2019 03:26 2,9 °C 87 % 1010,6 hPa 0,0 mm 13,4 km/h (3 Bft) W 271 ° 0 min 0,000 mm 0,0 UV-I 0 W/m² 1,0 °C -0,6 °C 25,7 km/h (4 Bft)
15.03.2019 03:27 2,9 °C 87 % 1010,7 hPa 0,0 mm 13,5 km/h (3 Bft) W 273 ° 0 min 0,000 mm 0,0 UV-I 0 W/m² 1,0 °C -0,6 °C 20,9 km/h (4 Bft)
15.03.2019 03:28 2,9 °C 87 % 1010,7 hPa 0,0 mm 15,6 km/h (3 Bft) W 260 ° 0 min 0,000 mm 0,0 UV-I 0 W/m² 1,0 °C -0,9 °C 20,9 km/h (4 Bft)
15.03.2019 03:29 2,9 °C 87 % 1010,7 hPa 0,0 mm 16,5 km/h (3 Bft) W-SW 240 ° 0 min 0,000 mm 0,0 UV-I 0 W/m² 1,0 °C -1,1 °C 19,3 km/h (3 Bft)
15.03.2019 03:30 3,0 °C 87 % 1010,6 hPa 0,0 mm 14,6 km/h (3 Bft) W-SW 258 ° 0 min 0,000 mm 0,0 UV-I 0 W/m² 1,1 °C -0,6 °C 20,9 km/h (4 Bft)
15.03.2019 03:31 3,0 °C 87 % 1010,7 hPa 0,0 mm 11,8 km/h (2 Bft) W-SW 254 ° 0 min 0,000 mm 0,0 UV-I 0 W/m² 1,1 °C -0,1 °C 20,9 km/h (4 Bft)
15.03.2019 03:32 3,0 °C 87 % 1010,7 hPa 0,0 mm 12,3 km/h (3 Bft) SW 214 ° 0 min 0,000 mm 0,0 UV-I 0 W/m² 1,1 °C -0,2 °C 20,9 km/h (4 Bft)
15.03.2019 03:33 3,0 °C 87 % 1010,7 hPa 0,0 mm 15,7 km/h (3 Bft) W-SW 257 ° 0 min 0,000 mm 0,0 UV-I 0 W/m² 1,1 °C -0,8 °C 22,5 km/h (4 Bft)
15.03.2019 03:34 3,1 °C 87 % 1010,7 hPa 0,0 mm 17,8 km/h (3 Bft) SW 230 ° 0 min 0,000 mm 0,0 UV-I 0 W/m² 1,2 °C -1,0 °C 24,1 km/h (4 Bft)
15.03.2019 03:35 3,1 °C 87 % 1010,7 hPa 0,0 mm 16,8 km/h (3 Bft) W 263 ° 0 min 0,000 mm 0,0 UV-I 0 W/m² 1,2 °C -0,9 °C 27,4 km/h (4 Bft)
15.03.2019 03:36 3,1 °C 87 % 1010,8 hPa 0,0 mm 14,2 km/h (3 Bft) W 271 ° 0 min 0,000 mm 0,0 UV-I 0 W/m² 1,2 °C -0,5 °C 20,9 km/h (4 Bft)
15.03.2019 03:37 3,1 °C 87 % 1010,7 hPa 0,0 mm 18,0 km/h (3 Bft) W 261 ° 0 min 0,000 mm 0,0 UV-I 0 W/m² 1,2 °C -1,1 °C 37,0 km/h (5 Bft)
15.03.2019 03:38 3,1 °C 87 % 1010,7 hPa 0,0 mm 24,6 km/h (4 Bft) W-SW 257 ° 0 min 0,000 mm 0,0 UV-I 0 W/m² 1,2 °C -1,9 °C 32,2 km/h (5 Bft)
15.03.2019 03:39 3,1 °C 87 % 1010,7 hPa 0,0 mm 15,0 km/h (3 Bft) W-NW 290 ° 0 min 0,000 mm 0,0 UV-I 0 W/m² 1,2 °C -0,6 °C 20,9 km/h (4 Bft)
15.03.2019 03:40 3,1 °C 87 % 1010,7 hPa 0,0 mm 13,4 km/h (3 Bft) W-NW 290 ° 0 min 0,000 mm 0,0 UV-I 0 W/m² 1,2 °C -0,3 °C 20,9 km/h (4 Bft)
15.03.2019 03:41 3,1 °C 87 % 1010,8 hPa 0,0 mm 11,0 km/h (2 Bft) S-SW 205 ° 0 min 0,000 mm 0,0 UV-I 0 W/m² 1,2 °C 0,2 °C 19,3 km/h (3 Bft)
15.03.2019 03:42 3,1 °C 87 % 1010,8 hPa 0,0 mm 13,6 km/h (3 Bft) W 270 ° 0 min 0,000 mm 0,0 UV-I 0 W/m² 1,2 °C -0,4 °C 24,1 km/h (4 Bft)
15.03.2019 03:43 3,1 °C 87 % 1010,8 hPa 0,0 mm 13,3 km/h (3 Bft) W 272 ° 0 min 0,000 mm 0,0 UV-I 0 W/m² 1,2 °C -0,3 °C 24,1 km/h (4 Bft)
15.03.2019 03:44 3,1 °C 87 % 1010,8 hPa 0,0 mm 7,8 km/h (2 Bft) W-SW 250 ° 0 min 0,000 mm 0,0 UV-I 0 W/m² 1,2 °C 1,0 °C 14,5 km/h (3 Bft)
15.03.2019 03:45 3,1 °C 87 % 1010,9 hPa 0,0 mm 9,9 km/h (2 Bft) W 269 ° 0 min 0,000 mm 0,0 UV-I 0 W/m² 1,2 °C 0,4 °C 17,7 km/h (3 Bft)
15.03.2019 03:46 3,1 °C 87 % 1010,9 hPa 0,0 mm 18,0 km/h (3 Bft) W 261 ° 0 min 0,000 mm 0,0 UV-I 0 W/m² 1,2 °C -1,1 °C 24,1 km/h (4 Bft)
15.03.2019 03:47 3,1 °C 87 % 1010,8 hPa 0,0 mm 13,4 km/h (3 Bft) N-NW 331 ° 0 min 0,000 mm 0,0 UV-I 0 W/m² 1,2 °C -0,3 °C 24,1 km/h (4 Bft)
15.03.2019 03:48 3,1 °C 87 % 1010,8 hPa 0,0 mm 15,8 km/h (3 Bft) W-SW 248 ° 0 min 0,000 mm 0,0 UV-I 0 W/m² 1,2 °C -0,7 °C 22,5 km/h (4 Bft)
15.03.2019 03:49 3,1 °C 87 % 1011,0 hPa 0,0 mm 8,2 km/h (2 Bft) W 259 ° 0 min 0,000 mm 0,0 UV-I 0 W/m² 1,2 °C 0,8 °C 12,9 km/h (3 Bft)
15.03.2019 03:50 3,1 °C 87 % 1011,0 hPa 0,0 mm 12,8 km/h (3 Bft) W-SW 254 ° 0 min 0,000 mm 0,0 UV-I 0 W/m² 1,2 °C -0,2 °C 20,9 km/h (4 Bft)
15.03.2019 03:51 3,1 °C 87 % 1011,0 hPa 0,0 mm 14,1 km/h (3 Bft) W-NW 290 ° 0 min 0,000 mm 0,0 UV-I 0 W/m² 1,2 °C -0,4 °C 29,0 km/h (5 Bft)
15.03.2019 03:52 3,1 °C 87 % 1011,0 hPa 0,0 mm 14,0 km/h (3 Bft) W-NW 289 ° 0 min 0,000 mm 0,0 UV-I 0 W/m² 1,2 °C -0,4 °C 20,9 km/h (4 Bft)
15.03.2019 03:53 3,1 °C 87 % 1011,0 hPa 0,0 mm 21,1 km/h (4 Bft) W 280 ° 0 min 0,000 mm 0,0 UV-I 0 W/m² 1,2 °C -1,5 °C 25,7 km/h (4 Bft)
15.03.2019 03:54 3,1 °C 86 % 1011,0 hPa 0,0 mm 14,1 km/h (3 Bft) W 275 ° 0 min 0,000 mm 0,0 UV-I 0 W/m² 1,0 °C -0,4 °C 22,5 km/h (4 Bft)
15.03.2019 03:55 3,1 °C 86 % 1011,0 hPa 0,0 mm 12,7 km/h (3 Bft) W-SW 250 ° 0 min 0,000 mm 0,0 UV-I 0 W/m² 1,0 °C -0,2 °C 20,9 km/h (4 Bft)
15.03.2019 03:56 3,1 °C 86 % 1011,0 hPa 0,0 mm 9,1 km/h (2 Bft) W 281 ° 0 min 0,000 mm 0,0 UV-I 0 W/m² 1,0 °C 0,6 °C 12,9 km/h (3 Bft)
15.03.2019 03:57 3,1 °C 86 % 1011,0 hPa 0,0 mm 13,5 km/h (3 Bft) W 270 ° 0 min 0,000 mm 0,0 UV-I 0 W/m² 1,0 °C -0,3 °C 20,9 km/h (4 Bft)
15.03.2019 03:58 3,1 °C 86 % 1011,0 hPa 0,0 mm 14,4 km/h (3 Bft) W 262 ° 0 min 0,000 mm 0,0 UV-I 0 W/m² 1,0 °C -0,5 °C 22,5 km/h (4 Bft)
15.03.2019 03:59 3,1 °C 86 % 1010,9 hPa 0,0 mm 14,1 km/h (3 Bft) W 281 ° 0 min 0,000 mm 0,0 UV-I 0 W/m² 1,0 °C -0,4 °C 20,9 km/h (4 Bft)
15.03.2019 04:00 3,1 °C 86 % 1011,0 hPa 0,0 mm 16,3 km/h (3 Bft) SW 232 ° 0 min 0,026 mm 0,0 UV-I 0 W/m² 1,0 °C -0,8 °C 22,5 km/h (4 Bft)
15.03.2019 04:01 3,1 °C 86 % 1011,0 hPa 0,0 mm 14,4 km/h (3 Bft) W-SW 251 ° 0 min 0,000 mm 0,0 UV-I 0 W/m² 1,0 °C -0,5 °C 20,9 km/h (4 Bft)
15.03.2019 04:02 3,1 °C 86 % 1011,1 hPa 0,0 mm 14,6 km/h (3 Bft) W 259 ° 0 min 0,000 mm 0,0 UV-I 0 W/m² 1,0 °C -0,5 °C 17,7 km/h (3 Bft)
15.03.2019 04:03 3,1 °C 86 % 1011,1 hPa 0,0 mm 13,3 km/h (3 Bft) W-SW 252 ° 0 min 0,000 mm 0,0 UV-I 0 W/m² 1,0 °C -0,3 °C 17,7 km/h (3 Bft)
15.03.2019 04:04 3,1 °C 86 % 1011,0 hPa 0,0 mm 14,4 km/h (3 Bft) W-SW 254 ° 0 min 0,000 mm 0,0 UV-I 0 W/m² 1,0 °C -0,5 °C 22,5 km/h (4 Bft)
15.03.2019 04:05 3,2 °C 86 % 1011,0 hPa 0,0 mm 15,9 km/h (3 Bft) W 262 ° 0 min 0,000 mm 0,0 UV-I 0 W/m² 1,1 °C -0,6 °C 20,9 km/h (4 Bft)
15.03.2019 04:06 3,1 °C 86 % 1011,1 hPa 0,0 mm 13,1 km/h (3 Bft) W-SW 250 ° 0 min 0,000 mm 0,0 UV-I 0 W/m² 1,0 °C -0,3 °C 20,9 km/h (4 Bft)
15.03.2019 04:07 3,2 °C 86 % 1011,1 hPa 0,0 mm 9,4 km/h (2 Bft) W 271 ° 0 min 0,000 mm 0,0 UV-I 0 W/m² 1,1 °C 0,7 °C 19,3 km/h (3 Bft)
15.03.2019 04:08 3,1 °C 85 % 1011,1 hPa 0,0 mm 15,5 km/h (3 Bft) W-SW 243 ° 0 min 0,000 mm 0,0 UV-I 0 W/m² 0,8 °C -0,7 °C 20,9 km/h (4 Bft)
15.03.2019 04:09 3,2 °C 85 % 1011,1 hPa 0,0 mm 15,6 km/h (3 Bft) W-NW 294 ° 0 min 0,000 mm 0,0 UV-I 0 W/m² 0,9 °C -0,6 °C 20,9 km/h (4 Bft)
15.03.2019 04:10 3,1 °C 85 % 1011,1 hPa 0,0 mm 12,6 km/h (3 Bft) W-SW 239 ° 0 min 0,000 mm 0,0 UV-I 0 W/m² 0,8 °C -0,2 °C 19,3 km/h (3 Bft)
15.03.2019 04:11 3,1 °C 85 % 1011,1 hPa 0,0 mm 10,5 km/h (2 Bft) W 263 ° 0 min 0,000 mm 0,0 UV-I 0 W/m² 0,8 °C 0,3 °C 14,5 km/h (3 Bft)
15.03.2019 04:12 3,2 °C 85 % 1011,2 hPa 0,0 mm 19,5 km/h (3 Bft) W-SW 252 ° 0 min 0,000 mm 0,0 UV-I 0 W/m² 0,9 °C -1,1 °C 27,4 km/h (4 Bft)
15.03.2019 04:13 3,2 °C 85 % 1011,2 hPa 0,0 mm 12,0 km/h (2 Bft) W 263 ° 0 min 0,000 mm 0,0 UV-I 0 W/m² 0,9 °C 0,1 °C 17,7 km/h (3 Bft)
15.03.2019 04:14 3,2 °C 85 % 1011,2 hPa 0,0 mm 17,5 km/h (3 Bft) SW 230 ° 0 min 0,000 mm 0,0 UV-I 0 W/m² 0,9 °C -0,9 °C 25,7 km/h (4 Bft)
15.03.2019 04:15 3,2 °C 85 % 1011,2 hPa 0,0 mm 13,9 km/h (3 Bft) W-SW 244 ° 0 min 0,000 mm 0,0 UV-I 0 W/m² 0,9 °C -0,3 °C 20,9 km/h (4 Bft)
15.03.2019 04:16 3,2 °C 85 % 1011,2 hPa 0,0 mm 13,7 km/h (3 Bft) W-NW 293 ° 0 min 0,000 mm 0,0 UV-I 0 W/m² 0,9 °C -0,2 °C 19,3 km/h (3 Bft)
15.03.2019 04:17 3,2 °C 85 % 1011,2 hPa 0,0 mm 11,6 km/h (2 Bft) W 273 ° 0 min 0,000 mm 0,0 UV-I 0 W/m² 0,9 °C 0,2 °C 16,1 km/h (3 Bft)
15.03.2019 04:18 3,2 °C 85 % 1011,2 hPa 0,0 mm 10,7 km/h (2 Bft) W-SW 258 ° 0 min 0,000 mm 0,0 UV-I 0 W/m² 0,9 °C 0,3 °C 17,7 km/h (3 Bft)
15.03.2019 04:19 3,2 °C 84 % 1011,2 hPa 0,0 mm 12,0 km/h (2 Bft) W 259 ° 0 min 0,000 mm 0,0 UV-I 0 W/m² 0,8 °C 0,1 °C 16,1 km/h (3 Bft)
15.03.2019 04:20 3,2 °C 84 % 1011,3 hPa 0,0 mm 12,3 km/h (3 Bft) W 261 ° 0 min 0,000 mm 0,0 UV-I 0 W/m² 0,8 °C 0,0 °C 16,1 km/h (3 Bft)
15.03.2019 04:21 3,2 °C 84 % 1011,2 hPa 0,0 mm 9,1 km/h (2 Bft) W-SW 241 ° 0 min 0,000 mm 0,0 UV-I 0 W/m² 0,8 °C 0,7 °C 14,5 km/h (3 Bft)
15.03.2019 04:22 3,2 °C 84 % 1011,3 hPa 0,0 mm 5,7 km/h (1 Bft) W-SW 257 ° 0 min 0,000 mm 0,0 UV-I 0 W/m² 0,8 °C 1,8 °C 14,5 km/h (3 Bft)
15.03.2019 04:23 3,2 °C 84 % 1011,3 hPa 0,0 mm 12,3 km/h (3 Bft) SW 226 ° 0 min 0,000 mm 0,0 UV-I 0 W/m² 0,8 °C 0,0 °C 16,1 km/h (3 Bft)
15.03.2019 04:24 3,2 °C 84 % 1011,3 hPa 0,0 mm 9,7 km/h (2 Bft) W-SW 245 ° 0 min 0,000 mm 0,0 UV-I 0 W/m² 0,8 °C 0,6 °C 14,5 km/h (3 Bft)
15.03.2019 04:25 3,2 °C 84 % 1011,3 hPa 0,0 mm 8,0 km/h (2 Bft) W 267 ° 0 min 0,000 mm 0,0 UV-I 0 W/m² 0,8 °C 1,0 °C 14,5 km/h (3 Bft)
15.03.2019 04:26 3,2 °C 84 % 1011,2 hPa 0,0 mm 11,9 km/h (2 Bft) W 265 ° 0 min 0,000 mm 0,0 UV-I 0 W/m² 0,8 °C 0,1 °C 19,3 km/h (3 Bft)
15.03.2019 04:27 3,2 °C 84 % 1011,3 hPa 0,0 mm 11,6 km/h (2 Bft) W-SW 252 ° 0 min 0,000 mm 0,0 UV-I 0 W/m² 0,8 °C 0,2 °C 16,1 km/h (3 Bft)
15.03.2019 04:28 3,2 °C 84 % 1011,3 hPa 0,0 mm 9,0 km/h (2 Bft) W-SW 247 ° 0 min 0,000 mm 0,0 UV-I 0 W/m² 0,8 °C 0,8 °C 12,9 km/h (3 Bft)
15.03.2019 04:29 3,2 °C 84 % 1011,2 hPa 0,0 mm 4,7 km/h (1 Bft) W-SW 252 ° 0 min 0,000 mm 0,0 UV-I 0 W/m² 0,8 °C 2,2 °C 6,4 km/h (2 Bft)
15.03.2019 04:30 3,2 °C 84 % 1011,2 hPa 0,0 mm 9,9 km/h (2 Bft) W-SW 252 ° 0 min 0,000 mm 0,0 UV-I 0 W/m² 0,8 °C 0,5 °C 14,5 km/h (3 Bft)
15.03.2019 04:31 3,2 °C 84 % 1011,4 hPa 0,0 mm 13,5 km/h (3 Bft) SW 223 ° 0 min 0,000 mm 0,0 UV-I 0 W/m² 0,8 °C -0,2 °C 19,3 km/h (3 Bft)
15.03.2019 04:32 3,2 °C 84 % 1011,4 hPa 0,0 mm 11,5 km/h (2 Bft) W-SW 248 ° 0 min 0,000 mm 0,0 UV-I 0 W/m² 0,8 °C 0,2 °C 19,3 km/h (3 Bft)
15.03.2019 04:33 3,2 °C 83 % 1011,4 hPa 0,0 mm 12,0 km/h (2 Bft) W 281 ° 0 min 0,000 mm 0,0 UV-I 0 W/m² 0,6 °C 0,1 °C 19,3 km/h (3 Bft)
15.03.2019 04:34 3,2 °C 84 % 1011,3 hPa 0,0 mm 13,1 km/h (3 Bft) W-SW 250 ° 0 min 0,000 mm 0,0 UV-I 0 W/m² 0,8 °C -0,1 °C 19,3 km/h (3 Bft)
15.03.2019 04:35 3,2 °C 84 % 1011,3 hPa 0,0 mm 12,2 km/h (2 Bft) SW 236 ° 0 min 0,000 mm 0,0 UV-I 0 W/m² 0,8 °C 0,0 °C 16,1 km/h (3 Bft)
15.03.2019 04:36 3,2 °C 83 % 1011,3 hPa 0,0 mm 16,2 km/h (3 Bft) W 266 ° 0 min 0,000 mm 0,0 UV-I 0 W/m² 0,6 °C -0,7 °C 22,5 km/h (4 Bft)
15.03.2019 04:37 3,2 °C 84 % 1011,3 hPa 0,0 mm 13,9 km/h (3 Bft) W-SW 249 ° 0 min 0,000 mm 0,0 UV-I 0 W/m² 0,8 °C -0,3 °C 22,5 km/h (4 Bft)
15.03.2019 04:38 3,2 °C 84 % 1011,2 hPa 0,0 mm 16,3 km/h (3 Bft) W 268 ° 0 min 0,000 mm 0,0 UV-I 0 W/m² 0,8 °C -0,7 °C 22,5 km/h (4 Bft)
15.03.2019 04:39 3,2 °C 84 % 1011,2 hPa 0,0 mm 9,5 km/h (2 Bft) W-SW 255 ° 0 min 0,000 mm 0,0 UV-I 0 W/m² 0,8 °C 0,6 °C 19,3 km/h (3 Bft)
15.03.2019 04:40 3,2 °C 83 % 1011,3 hPa 0,0 mm 8,9 km/h (2 Bft) W 263 ° 0 min 0,000 mm 0,0 UV-I 0 W/m² 0,6 °C 0,8 °C 14,5 km/h (3 Bft)
15.03.2019 04:41 3,2 °C 83 % 1011,3 hPa 0,0 mm 10,6 km/h (2 Bft) W-SW 256 ° 0 min 0,000 mm 0,0 UV-I 0 W/m² 0,6 °C 0,4 °C 14,5 km/h (3 Bft)
15.03.2019 04:42 3,2 °C 83 % 1011,3 hPa 0,0 mm 14,1 km/h (3 Bft) W-SW 240 ° 0 min 0,000 mm 0,0 UV-I 0 W/m² 0,6 °C -0,3 °C 20,9 km/h (4 Bft)
15.03.2019 04:43 3,2 °C 83 % 1011,4 hPa 0,0 mm 10,9 km/h (2 Bft) W-SW 257 ° 0 min 0,000 mm 0,0 UV-I 0 W/m² 0,6 °C 0,3 °C 14,5 km/h (3 Bft)
15.03.2019 04:44 3,2 °C 83 % 1011,4 hPa 0,0 mm 8,8 km/h (2 Bft) W-SW 237 ° 0 min 0,000 mm 0,0 UV-I 0 W/m² 0,6 °C 0,8 °C 16,1 km/h (3 Bft)
15.03.2019 04:45 3,2 °C 83 % 1011,2 hPa 0,0 mm 11,4 km/h (2 Bft) W 268 ° 0 min 0,000 mm 0,0 UV-I 0 W/m² 0,6 °C 0,2 °C 16,1 km/h (3 Bft)
15.03.2019 04:46 3,2 °C 83 % 1011,3 hPa 0,0 mm 17,4 km/h (3 Bft) SW 233 ° 0 min 0,000 mm 0,0 UV-I 0 W/m² 0,6 °C -0,8 °C 22,5 km/h (4 Bft)
15.03.2019 04:47 3,2 °C 83 % 1011,3 hPa 0,0 mm 7,7 km/h (2 Bft) SW 217 ° 0 min 0,000 mm 0,0 UV-I 0 W/m² 0,6 °C 1,1 °C 12,9 km/h (3 Bft)
15.03.2019 04:48 3,2 °C 83 % 1011,3 hPa 0,0 mm 6,4 km/h (2 Bft) W-SW 245 ° 0 min 0,000 mm 0,0 UV-I 0 W/m² 0,6 °C 1,5 °C 11,3 km/h (2 Bft)
15.03.2019 04:49 3,2 °C 83 % 1011,2 hPa 0,0 mm 4,8 km/h (1 Bft) W-SW 257 ° 0 min 0,000 mm 0,0 UV-I 0 W/m² 0,6 °C 2,1 °C 6,4 km/h (2 Bft)
15.03.2019 04:50 3,2 °C 83 % 1011,3 hPa 0,0 mm 9,8 km/h (2 Bft) SW 216 ° 0 min 0,000 mm 0,0 UV-I 0 W/m² 0,6 °C 0,6 °C 17,7 km/h (3 Bft)
15.03.2019 04:51 3,2 °C 82 % 1011,3 hPa 0,0 mm 11,9 km/h (2 Bft) W 259 ° 0 min 0,000 mm 0,0 UV-I 0 W/m² 0,4 °C 0,1 °C 14,5 km/h (3 Bft)
15.03.2019 04:52 3,2 °C 82 % 1011,3 hPa 0,0 mm 10,2 km/h (2 Bft) W-SW 258 ° 0 min 0,000 mm 0,0 UV-I 0 W/m² 0,4 °C 0,5 °C 17,7 km/h (3 Bft)
15.03.2019 04:53 3,2 °C 82 % 1011,3 hPa 0,0 mm 16,2 km/h (3 Bft) W 260 ° 0 min 0,000 mm 0,0 UV-I 0 W/m² 0,4 °C -0,7 °C 24,1 km/h (4 Bft)
15.03.2019 04:54 3,3 °C 82 % 1011,3 hPa 0,0 mm 15,0 km/h (3 Bft) W-SW 248 ° 0 min 0,000 mm 0,0 UV-I 0 W/m² 0,5 °C -0,3 °C 22,5 km/h (4 Bft)
15.03.2019 04:55 3,3 °C 82 % 1011,3 hPa 0,0 mm 7,6 km/h (2 Bft) W 260 ° 0 min 0,000 mm 0,0 UV-I 0 W/m² 0,5 °C 1,3 °C 11,3 km/h (2 Bft)
15.03.2019 04:56 3,2 °C 82 % 1011,2 hPa 0,0 mm 9,9 km/h (2 Bft) W-SW 248 ° 0 min 0,000 mm 0,0 UV-I 0 W/m² 0,4 °C 0,5 °C 16,1 km/h (3 Bft)
15.03.2019 04:57 3,2 °C 83 % 1011,2 hPa 0,0 mm 10,1 km/h (2 Bft) W-SW 253 ° 0 min 0,000 mm 0,0 UV-I 0 W/m² 0,6 °C 0,5 °C 17,7 km/h (3 Bft)
15.03.2019 04:58 3,2 °C 82 % 1011,3 hPa 0,0 mm 10,8 km/h (2 Bft) W 273 ° 0 min 0,000 mm 0,0 UV-I 0 W/m² 0,4 °C 0,3 °C 14,5 km/h (3 Bft)
15.03.2019 04:59 3,2 °C 82 % 1011,3 hPa 0,0 mm 11,6 km/h (2 Bft) W-SW 242 ° 0 min 0,000 mm 0,0 UV-I 0 W/m² 0,4 °C 0,2 °C 14,5 km/h (3 Bft)
15.03.2019 05:00 3,2 °C 83 % 1011,3 hPa 0,0 mm 15,4 km/h (3 Bft) W 267 ° 0 min 0,000 mm 0,0 UV-I 0 W/m² 0,6 °C -0,5 °C 24,1 km/h (4 Bft)
15.03.2019 05:01 3,2 °C 82 % 1011,4 hPa 0,0 mm 12,4 km/h (3 Bft) W 261 ° 0 min 0,025 mm 0,0 UV-I 0 W/m² 0,4 °C -0,0 °C 17,7 km/h (3 Bft)
15.03.2019 05:02 3,2 °C 82 % 1011,3 hPa 0,0 mm 16,6 km/h (3 Bft) W 275 ° 0 min 0,000 mm 0,0 UV-I 0 W/m² 0,4 °C -0,7 °C 22,5 km/h (4 Bft)
15.03.2019 05:03 3,2 °C 82 % 1011,4 hPa 0,0 mm 12,6 km/h (3 Bft) W 281 ° 0 min 0,000 mm 0,0 UV-I 0 W/m² 0,4 °C -0,0 °C 17,7 km/h (3 Bft)
15.03.2019 05:04 3,2 °C 82 % 1011,4 hPa 0,0 mm 11,5 km/h (2 Bft) W-SW 240 ° 0 min 0,000 mm 0,0 UV-I 0 W/m² 0,4 °C 0,2 °C 19,3 km/h (3 Bft)
15.03.2019 05:05 3,2 °C 82 % 1011,4 hPa 0,0 mm 13,9 km/h (3 Bft) W-SW 253 ° 0 min 0,000 mm 0,0 UV-I 0 W/m² 0,4 °C -0,3 °C 22,5 km/h (4 Bft)
15.03.2019 05:06 3,2 °C 82 % 1011,4 hPa 0,0 mm 15,0 km/h (3 Bft) W 267 ° 0 min 0,000 mm 0,0 UV-I 0 W/m² 0,4 °C -0,5 °C 20,9 km/h (4 Bft)
15.03.2019 05:07 3,2 °C 82 % 1011,4 hPa 0,0 mm 15,9 km/h (3 Bft) W 264 ° 0 min 0,000 mm 0,0 UV-I 0 W/m² 0,4 °C -0,6 °C 24,1 km/h (4 Bft)
15.03.2019 05:08 3,2 °C 82 % 1011,4 hPa 0,0 mm 11,5 km/h (2 Bft) W-SW 256 ° 0 min 0,000 mm 0,0 UV-I 0 W/m² 0,4 °C 0,2 °C 17,7 km/h (3 Bft)
15.03.2019 05:09 3,2 °C 82 % 1011,4 hPa 0,0 mm 10,4 km/h (2 Bft) W-SW 237 ° 0 min 0,000 mm 0,0 UV-I 0 W/m² 0,4 °C 0,4 °C 16,1 km/h (3 Bft)
15.03.2019 05:10 3,2 °C 82 % 1011,4 hPa 0,0 mm 6,4 km/h (2 Bft) W 263 ° 0 min 0,000 mm 0,0 UV-I 0 W/m² 0,4 °C 1,5 °C 11,3 km/h (2 Bft)
15.03.2019 05:11 3,2 °C 82 % 1011,5 hPa 0,0 mm 8,6 km/h (2 Bft) W-SW 254 ° 0 min 0,000 mm 0,0 UV-I 0 W/m² 0,4 °C 0,9 °C 12,9 km/h (3 Bft)
15.03.2019 05:12 3,2 °C 82 % 1011,5 hPa 0,0 mm 11,4 km/h (2 Bft) W 276 ° 0 min 0,000 mm 0,0 UV-I 0 W/m² 0,4 °C 0,2 °C 16,1 km/h (3 Bft)
15.03.2019 05:13 3,2 °C 82 % 1011,5 hPa 0,0 mm 4,5 km/h (1 Bft) W 271 ° 0 min 0,000 mm 0,0 UV-I 0 W/m² 0,4 °C 3,2 °C 6,4 km/h (2 Bft)
15.03.2019 05:14 3,2 °C 82 % 1011,5 hPa 0,0 mm 8,5 km/h (2 Bft) W-SW 252 ° 0 min 0,000 mm 0,0 UV-I 0 W/m² 0,4 °C 0,9 °C 12,9 km/h (3 Bft)
15.03.2019 05:15 3,2 °C 82 % 1011,6 hPa 0,0 mm 11,9 km/h (2 Bft) W 267 ° 0 min 0,000 mm 0,0 UV-I 0 W/m² 0,4 °C 0,1 °C 16,1 km/h (3 Bft)
15.03.2019 05:16 3,2 °C 82 % 1011,5 hPa 0,0 mm 17,1 km/h (3 Bft) W-SW 254 ° 0 min 0,000 mm 0,0 UV-I 0 W/m² 0,4 °C -0,8 °C 22,5 km/h (4 Bft)
15.03.2019 05:17 3,2 °C 82 % 1011,5 hPa 0,0 mm 17,5 km/h (3 Bft) SW 236 ° 0 min 0,000 mm 0,0 UV-I 0 W/m² 0,4 °C -0,9 °C 24,1 km/h (4 Bft)
15.03.2019 05:18 3,2 °C 82 % 1011,5 hPa 0,0 mm 7,4 km/h (2 Bft) W-SW 253 ° 0 min 0,000 mm 0,0 UV-I 0 W/m² 0,4 °C 1,2 °C 14,5 km/h (3 Bft)
15.03.2019 05:19 3,2 °C 82 % 1011,5 hPa 0,0 mm 7,8 km/h (2 Bft) S-SW 196 ° 0 min 0,000 mm 0,0 UV-I 0 W/m² 0,4 °C 1,1 °C 12,9 km/h (3 Bft)
15.03.2019 05:20 3,2 °C 82 % 1011,5 hPa 0,0 mm 20,5 km/h (4 Bft) W-SW 241 ° 0 min 0,000 mm 0,0 UV-I 0 W/m² 0,4 °C -1,3 °C 29,0 km/h (5 Bft)
15.03.2019 05:21 3,2 °C 82 % 1011,5 hPa 0,0 mm 14,1 km/h (3 Bft) S-SW 206 ° 0 min 0,000 mm 0,0 UV-I 0 W/m² 0,4 °C -0,3 °C 22,5 km/h (4 Bft)
15.03.2019 05:22 3,2 °C 82 % 1011,5 hPa 0,0 mm 12,7 km/h (3 Bft) SW 230 ° 0 min 0,000 mm 0,0 UV-I 0 W/m² 0,4 °C -0,1 °C 20,9 km/h (4 Bft)
15.03.2019 05:23 3,2 °C 82 % 1011,5 hPa 0,0 mm 9,4 km/h (2 Bft) S-SW 209 ° 0 min 0,000 mm 0,0 UV-I 0 W/m² 0,4 °C 0,7 °C 12,9 km/h (3 Bft)
15.03.2019 05:24 3,2 °C 82 % 1011,4 hPa 0,0 mm 6,6 km/h (2 Bft) SW 215 ° 0 min 0,000 mm 0,0 UV-I 0 W/m² 0,4 °C 1,4 °C 12,9 km/h (3 Bft)
15.03.2019 05:25 3,3 °C 82 % 1011,4 hPa 0,0 mm 5,8 km/h (2 Bft) W 270 ° 0 min 0,000 mm 0,0 UV-I 0 W/m² 0,5 °C 1,8 °C 11,3 km/h (2 Bft)
15.03.2019 05:26 3,3 °C 82 % 1011,4 hPa 0,0 mm 11,4 km/h (2 Bft) SW 234 ° 0 min 0,000 mm 0,0 UV-I 0 W/m² 0,5 °C 0,3 °C 17,7 km/h (3 Bft)
15.03.2019 05:27 3,3 °C 82 % 1011,5 hPa 0,0 mm 6,2 km/h (2 Bft) W-NW 301 ° 0 min 0,000 mm 0,0 UV-I 0 W/m² 0,5 °C 1,7 °C 12,9 km/h (3 Bft)
15.03.2019 05:28 3,3 °C 82 % 1011,5 hPa 0,0 mm 8,4 km/h (2 Bft) W-SW 254 ° 0 min 0,000 mm 0,0 UV-I 0 W/m² 0,5 °C 1,0 °C 14,5 km/h (3 Bft)
15.03.2019 05:29 3,3 °C 82 % 1011,5 hPa 0,0 mm 8,9 km/h (2 Bft) W 279 ° 0 min 0,000 mm 0,0 UV-I 0 W/m² 0,5 °C 0,9 °C 14,5 km/h (3 Bft)
15.03.2019 05:30 3,2 °C 82 % 1011,5 hPa 0,0 mm 13,1 km/h (3 Bft) W-SW 256 ° 0 min 0,000 mm 0,0 UV-I 0 W/m² 0,4 °C -0,1 °C 24,1 km/h (4 Bft)
15.03.2019 05:31 3,3 °C 82 % 1011,5 hPa 0,0 mm 13,4 km/h (3 Bft) W-NW 283 ° 0 min 0,000 mm 0,0 UV-I 0 W/m² 0,5 °C -0,1 °C 19,3 km/h (3 Bft)
15.03.2019 05:32 3,2 °C 82 % 1011,5 hPa 0,0 mm 11,1 km/h (2 Bft) W 276 ° 0 min 0,000 mm 0,0 UV-I 0 W/m² 0,4 °C 0,3 °C 17,7 km/h (3 Bft)
15.03.2019 05:33 3,2 °C 82 % 1011,5 hPa 0,0 mm 14,8 km/h (3 Bft) W 275 ° 0 min 0,000 mm 0,0 UV-I 0 W/m² 0,4 °C -0,4 °C 20,9 km/h (4 Bft)
15.03.2019 05:34 3,2 °C 82 % 1011,5 hPa 0,0 mm 13,5 km/h (3 Bft) W 265 ° 0 min 0,000 mm 0,0 UV-I 0 W/m² 0,4 °C -0,2 °C 20,9 km/h (4 Bft)
15.03.2019 05:35 3,3 °C 82 % 1011,5 hPa 0,0 mm 10,9 km/h (2 Bft) W 263 ° 0 min 0,000 mm 0,0 UV-I 0 W/m² 0,5 °C 0,4 °C 17,7 km/h (3 Bft)
15.03.2019 05:36 3,3 °C 82 % 1011,5 hPa 0,0 mm 6,2 km/h (2 Bft) SW 233 ° 0 min 0,000 mm 0,0 UV-I 0 W/m² 0,5 °C 1,7 °C 9,7 km/h (2 Bft)
15.03.2019 05:37 3,3 °C 82 % 1011,5 hPa 0,0 mm 11,2 km/h (2 Bft) SW 235 ° 0 min 0,000 mm 0,0 UV-I 0 W/m² 0,5 °C 0,4 °C 16,1 km/h (3 Bft)
15.03.2019 05:38 3,3 °C 82 % 1011,5 hPa 0,0 mm 10,5 km/h (2 Bft) W 261 ° 0 min 0,000 mm 0,0 UV-I 0 W/m² 0,5 °C 0,5 °C 14,5 km/h (3 Bft)
15.03.2019 05:39 3,3 °C 82 % 1011,5 hPa 0,0 mm 7,0 km/h (2 Bft) SW 233 ° 0 min 0,000 mm 0,0 UV-I 0 W/m² 0,5 °C 1,4 °C 11,3 km/h (2 Bft)
15.03.2019 05:40 3,3 °C 82 % 1011,4 hPa 0,0 mm 11,5 km/h (2 Bft) W 263 ° 0 min 0,000 mm 0,0 UV-I 0 W/m² 0,5 °C 0,3 °C 17,7 km/h (3 Bft)
15.03.2019 05:41 3,3 °C 82 % 1011,5 hPa 0,0 mm 7,1 km/h (2 Bft) W-SW 240 ° 0 min 0,000 mm 0,0 UV-I 0 W/m² 0,5 °C 1,4 °C 12,9 km/h (3 Bft)
15.03.2019 05:42 3,3 °C 82 % 1011,5 hPa 0,0 mm 4,7 km/h (1 Bft) W-SW 242 ° 0 min 0,000 mm 0,0 UV-I 0 W/m² 0,5 °C 2,3 °C 8,0 km/h (2 Bft)
15.03.2019 05:43 3,3 °C 82 % 1011,4 hPa 0,0 mm 9,5 km/h (2 Bft) SW 234 ° 0 min 0,000 mm 0,0 UV-I 0 W/m² 0,5 °C 0,7 °C 19,3 km/h (3 Bft)
15.03.2019 05:44 3,3 °C 82 % 1011,5 hPa 0,0 mm 5,6 km/h (1 Bft) W-SW 240 ° 0 min 0,000 mm 0,0 UV-I 0 W/m² 0,5 °C 1,9 °C 11,3 km/h (2 Bft)
15.03.2019 05:45 3,3 °C 83 % 1011,4 hPa 0,0 mm 6,4 km/h (2 Bft) W-SW 238 ° 0 min 0,000 mm 0,0 UV-I 0 W/m² 0,7 °C 1,6 °C 12,9 km/h (3 Bft)
15.03.2019 05:46 3,3 °C 83 % 1011,4 hPa 0,0 mm 15,1 km/h (3 Bft) W-NW 303 ° 0 min 0,000 mm 0,0 UV-I 0 W/m² 0,7 °C -0,4 °C 27,4 km/h (4 Bft)
15.03.2019 05:47 3,3 °C 83 % 1011,5 hPa 0,0 mm 12,0 km/h (2 Bft) W-SW 252 ° 0 min 0,000 mm 0,0 UV-I 0 W/m² 0,7 °C 0,2 °C 19,3 km/h (3 Bft)
15.03.2019 05:48 3,3 °C 83 % 1011,4 hPa 0,0 mm 10,9 km/h (2 Bft) W 275 ° 0 min 0,000 mm 0,0 UV-I 0 W/m² 0,7 °C 0,4 °C 14,5 km/h (3 Bft)
15.03.2019 05:49 3,3 °C 83 % 1011,4 hPa 0,0 mm 13,9 km/h (3 Bft) S-SW 209 ° 0 min 0,000 mm 0,0 UV-I 0 W/m² 0,7 °C -0,2 °C 24,1 km/h (4 Bft)
15.03.2019 05:50 3,3 °C 83 % 1011,4 hPa 0,0 mm 12,8 km/h (3 Bft) W 259 ° 0 min 0,000 mm 0,0 UV-I 0 W/m² 0,7 °C 0,0 °C 20,9 km/h (4 Bft)
15.03.2019 05:51 3,3 °C 83 % 1011,5 hPa 0,0 mm 8,6 km/h (2 Bft) W 269 ° 0 min 0,000 mm 0,0 UV-I 0 W/m² 0,7 °C 1,0 °C 12,9 km/h (3 Bft)
15.03.2019 05:52 3,3 °C 83 % 1011,5 hPa 0,0 mm 9,8 km/h (2 Bft) W 264 ° 0 min 0,000 mm 0,0 UV-I 0 W/m² 0,7 °C 0,7 °C 12,9 km/h (3 Bft)
15.03.2019 05:53 3,3 °C 83 % 1011,5 hPa 0,0 mm 8,2 km/h (2 Bft) W 265 ° 0 min 0,000 mm 0,0 UV-I 0 W/m² 0,7 °C 1,1 °C 17,7 km/h (3 Bft)
15.03.2019 05:54 3,3 °C 83 % 1011,5 hPa 0,0 mm 14,5 km/h (3 Bft) SW 229 ° 0 min 0,000 mm 0,0 UV-I 0 W/m² 0,7 °C -0,3 °C 17,7 km/h (3 Bft)
15.03.2019 05:55 3,3 °C 83 % 1011,5 hPa 0,0 mm 7,8 km/h (2 Bft) S-SW 205 ° 0 min 0,000 mm 0,0 UV-I 0 W/m² 0,7 °C 1,2 °C 17,7 km/h (3 Bft)
15.03.2019 05:56 3,3 °C 83 % 1011,5 hPa 0,0 mm 10,8 km/h (2 Bft) W-SW 241 ° 0 min 0,000 mm 0,0 UV-I 0 W/m² 0,7 °C 0,4 °C 16,1 km/h (3 Bft)
15.03.2019 05:57 3,2 °C 83 % 1011,5 hPa 0,0 mm 12,8 km/h (3 Bft) W 267 ° 0 min 0,000 mm 0,0 UV-I 0 W/m² 0,6 °C -0,1 °C 16,1 km/h (3 Bft)
15.03.2019 05:58 3,3 °C 83 % 1011,5 hPa 0,0 mm 16,0 km/h (3 Bft) W 279 ° 0 min 0,000 mm 0,0 UV-I 0 W/m² 0,7 °C -0,5 °C 19,3 km/h (3 Bft)
15.03.2019 05:59 3,3 °C 83 % 1011,5 hPa 0,0 mm 14,9 km/h (3 Bft) W-SW 252 ° 0 min 0,000 mm 0,0 UV-I 0 W/m² 0,7 °C -0,3 °C 19,3 km/h (3 Bft)
15.03.2019 06:00 3,2 °C 83 % 1011,6 hPa 0,0 mm 12,3 km/h (3 Bft) W-SW 239 ° 0 min 0,025 mm 0,0 UV-I 0 W/m² 0,6 °C 0,0 °C 17,7 km/h (3 Bft)
15.03.2019 06:01 3,3 °C 83 % 1011,6 hPa 0,0 mm 4,7 km/h (1 Bft) W 260 ° 0 min 0,000 mm 0,0 UV-I 0 W/m² 0,7 °C 2,3 °C 8,0 km/h (2 Bft)
15.03.2019 06:02 3,2 °C 83 % 1011,5 hPa 0,0 mm 13,3 km/h (3 Bft) W 264 ° 0 min 0,000 mm 0,0 UV-I 0 W/m² 0,6 °C -0,2 °C 16,1 km/h (3 Bft)
15.03.2019 06:03 3,3 °C 83 % 1011,5 hPa 0,0 mm 15,5 km/h (3 Bft) W 268 ° 0 min 0,000 mm 0,0 UV-I 0 W/m² 0,7 °C -0,4 °C 19,3 km/h (3 Bft)
15.03.2019 06:04 3,3 °C 83 % 1011,4 hPa 0,0 mm 11,9 km/h (2 Bft) W-SW 248 ° 0 min 0,000 mm 0,0 UV-I 0 W/m² 0,7 °C 0,2 °C 16,1 km/h (3 Bft)
15.03.2019 06:05 3,2 °C 84 % 1011,4 hPa 0,0 mm 8,2 km/h (2 Bft) N-NW 343 ° 0 min 0,000 mm 0,0 UV-I 0 W/m² 0,8 °C 1,0 °C 12,9 km/h (3 Bft)
15.03.2019 06:06 3,2 °C 84 % 1011,4 hPa 0,0 mm 10,9 km/h (2 Bft) W 271 ° 0 min 0,000 mm 0,0 UV-I 0 W/m² 0,8 °C 0,3 °C 16,1 km/h (3 Bft)
15.03.2019 06:07 3,2 °C 84 % 1011,4 hPa 0,0 mm 14,1 km/h (3 Bft) W 265 ° 0 min 0,000 mm 0,0 UV-I 0 W/m² 0,8 °C -0,3 °C 17,7 km/h (3 Bft)
15.03.2019 06:08 3,2 °C 84 % 1011,3 hPa 0,0 mm 11,5 km/h (2 Bft) W-NW 284 ° 0 min 0,000 mm 0,0 UV-I 0 W/m² 0,8 °C 0,2 °C 14,5 km/h (3 Bft)
15.03.2019 06:09 3,2 °C 84 % 1011,3 hPa 0,0 mm 11,0 km/h (2 Bft) S-SW 196 ° 0 min 0,000 mm 0,0 UV-I 0 W/m² 0,8 °C 0,3 °C 17,7 km/h (3 Bft)
15.03.2019 06:10 3,3 °C 84 % 1011,2 hPa 0,0 mm 5,7 km/h (1 Bft) S-SW 203 ° 0 min 0,000 mm 0,0 UV-I 0 W/m² 0,9 °C 1,9 °C 9,7 km/h (2 Bft)
15.03.2019 06:11 3,2 °C 84 % 1011,2 hPa 0,0 mm 9,9 km/h (2 Bft) S-SW 208 ° 0 min 0,000 mm 0,0 UV-I 0 W/m² 0,8 °C 0,5 °C 16,1 km/h (3 Bft)
15.03.2019 06:12 3,2 °C 84 % 1011,2 hPa 0,0 mm 6,8 km/h (2 Bft) SW 223 ° 0 min 0,000 mm 0,0 UV-I 0 W/m² 0,8 °C 1,4 °C 9,7 km/h (2 Bft)
15.03.2019 06:13 3,2 °C 84 % 1011,2 hPa 0,0 mm 12,0 km/h (2 Bft) W-SW 250 ° 0 min 0,000 mm 0,0 UV-I 0 W/m² 0,8 °C 0,1 °C 17,7 km/h (3 Bft)
15.03.2019 06:14 3,2 °C 84 % 1011,2 hPa 0,0 mm 10,2 km/h (2 Bft) W-SW 254 ° 0 min 0,000 mm 0,0 UV-I 0 W/m² 0,8 °C 0,5 °C 20,9 km/h (4 Bft)
15.03.2019 06:15 3,2 °C 84 % 1011,2 hPa 0,0 mm 14,6 km/h (3 Bft) W-NW 295 ° 0 min 0,000 mm 0,0 UV-I 0 W/m² 0,8 °C -0,4 °C 22,5 km/h (4 Bft)
15.03.2019 06:16 3,2 °C 84 % 1011,2 hPa 0,0 mm 10,3 km/h (2 Bft) W-SW 245 ° 0 min 0,000 mm 0,0 UV-I 0 W/m² 0,8 °C 0,4 °C 17,7 km/h (3 Bft)
15.03.2019 06:17 3,2 °C 85 % 1011,2 hPa 0,0 mm 9,3 km/h (2 Bft) W-SW 241 ° 0 min 0,000 mm 0,0 UV-I 0 W/m² 0,9 °C 0,7 °C 19,3 km/h (3 Bft)
15.03.2019 06:18 3,2 °C 85 % 1011,2 hPa 0,0 mm 7,6 km/h (2 Bft) W 263 ° 0 min 0,000 mm 0,0 UV-I 0 W/m² 0,9 °C 1,1 °C 11,3 km/h (2 Bft)
15.03.2019 06:19 3,2 °C 85 % 1011,3 hPa 0,0 mm 11,3 km/h (2 Bft) NW 304 ° 0 min 0,000 mm 0,0 UV-I 0 W/m² 0,9 °C 0,2 °C 16,1 km/h (3 Bft)
15.03.2019 06:20 3,2 °C 85 % 1011,3 hPa 0,0 mm 11,2 km/h (2 Bft) W 271 ° 0 min 0,000 mm 0,0 UV-I 0 W/m² 0,9 °C 0,2 °C 16,1 km/h (3 Bft)
15.03.2019 06:21 3,2 °C 85 % 1011,3 hPa 0,0 mm 10,3 km/h (2 Bft) W 261 ° 0 min 0,000 mm 0,0 UV-I 0 W/m² 0,9 °C 0,4 °C 12,9 km/h (3 Bft)
15.03.2019 06:22 3,2 °C 85 % 1011,2 hPa 0,0 mm 6,2 km/h (2 Bft) W 278 ° 0 min 0,000 mm 0,0 UV-I 0 W/m² 0,9 °C 1,6 °C 9,7 km/h (2 Bft)
15.03.2019 06:23 3,2 °C 85 % 1011,3 hPa 0,0 mm 6,8 km/h (2 Bft) W 263 ° 0 min 0,000 mm 0,0 UV-I 0 W/m² 0,9 °C 1,4 °C 9,7 km/h (2 Bft)
15.03.2019 06:24 3,2 °C 85 % 1011,3 hPa 0,0 mm 8,6 km/h (2 Bft) W-SW 246 ° 0 min 0,000 mm 0,0 UV-I 0 W/m² 0,9 °C 0,9 °C 11,3 km/h (2 Bft)
15.03.2019 06:25 3,2 °C 85 % 1011,3 hPa 0,0 mm 11,3 km/h (2 Bft) W-SW 250 ° 0 min 0,000 mm 0,0 UV-I 0 W/m² 0,9 °C 0,2 °C 22,5 km/h (4 Bft)
15.03.2019 06:26 3,1 °C 86 % 1011,3 hPa 0,0 mm 11,8 km/h (2 Bft) W 263 ° 0 min 0,000 mm 0,0 UV-I 0 W/m² 1,0 °C -0,0 °C 19,3 km/h (3 Bft)
15.03.2019 06:27 3,1 °C 86 % 1011,3 hPa 0,0 mm 8,6 km/h (2 Bft) W-SW 251 ° 0 min 0,000 mm 0,0 UV-I 0 W/m² 1,0 °C 0,7 °C 12,9 km/h (3 Bft)
15.03.2019 06:28 3,1 °C 86 % 1011,3 hPa 0,0 mm 5,5 km/h (1 Bft) W-NW 282 ° 0 min 0,000 mm 0,0 UV-I 0 W/m² 1,0 °C 1,7 °C 9,7 km/h (2 Bft)
15.03.2019 06:29 3,1 °C 86 % 1011,3 hPa 0,0 mm 6,4 km/h (2 Bft) W-SW 258 ° 0 min 0,000 mm 0,0 UV-I 0 W/m² 1,0 °C 1,4 °C 9,7 km/h (2 Bft)
15.03.2019 06:30 3,1 °C 86 % 1011,4 hPa 0,0 mm 8,2 km/h (2 Bft) W 272 ° 0 min 0,000 mm 0,0 UV-I 0 W/m² 1,0 °C 0,8 °C 14,5 km/h (3 Bft)
15.03.2019 06:31 3,1 °C 86 % 1011,3 hPa 0,0 mm 4,8 km/h (1 Bft) W 263 ° 0 min 0,000 mm 0,0 UV-I 0 W/m² 1,0 °C 2,0 °C 6,4 km/h (2 Bft)
15.03.2019 06:32 3,1 °C 86 % 1011,3 hPa 0,0 mm 8,4 km/h (2 Bft) W-SW 253 ° 0 min 0,000 mm 0,0 UV-I 0 W/m² 1,0 °C 0,8 °C 12,9 km/h (3 Bft)
15.03.2019 06:33 3,1 °C 86 % 1011,3 hPa 0,0 mm 9,8 km/h (2 Bft) W-SW 257 ° 0 min 0,000 mm 0,0 UV-I 0 W/m² 1,0 °C 0,4 °C 14,5 km/h (3 Bft)
15.03.2019 06:34 3,1 °C 86 % 1011,2 hPa 0,0 mm 7,9 km/h (2 Bft) W-SW 250 ° 0 min 0,000 mm 0,0 UV-I 0 W/m² 1,0 °C 0,9 °C 12,9 km/h (3 Bft)
15.03.2019 06:35 3,1 °C 86 % 1011,3 hPa 0,0 mm 10,0 km/h (2 Bft) W-NW 296 ° 0 min 0,000 mm 0,0 UV-I 0 W/m² 1,0 °C 0,4 °C 12,9 km/h (3 Bft)
15.03.2019 06:36 3,1 °C 86 % 1011,3 hPa 0,0 mm 5,8 km/h (2 Bft) W-NW 282 ° 0 min 0,000 mm 0,0 UV-I 0 W/m² 1,0 °C 1,6 °C 6,4 km/h (2 Bft)
15.03.2019 06:37 3,1 °C 87 % 1011,3 hPa 0,0 mm 5,9 km/h (2 Bft) W 262 ° 0 min 0,000 mm 0,0 UV-I 0 W/m² 1,2 °C 1,6 °C 9,7 km/h (2 Bft)
15.03.2019 06:38 3,1 °C 87 % 1011,2 hPa 0,0 mm 7,6 km/h (2 Bft) W 277 ° 0 min 0,000 mm 0,0 UV-I 0 W/m² 1,2 °C 1,0 °C 9,7 km/h (2 Bft)
15.03.2019 06:39 3,1 °C 87 % 1011,3 hPa 0,0 mm 7,8 km/h (2 Bft) W-SW 237 ° 0 min 0,000 mm 0,0 UV-I 0 W/m² 1,2 °C 1,0 °C 14,5 km/h (3 Bft)
15.03.2019 06:40 3,1 °C 87 % 1011,2 hPa 0,0 mm 6,9 km/h (2 Bft) W-SW 250 ° 0 min 0,000 mm 0,0 UV-I 0 W/m² 1,2 °C 1,2 °C 9,7 km/h (2 Bft)
15.03.2019 06:41 3,1 °C 87 % 1011,3 hPa 0,0 mm 8,6 km/h (2 Bft) W-NW 293 ° 0 min 0,000 mm 0,0 UV-I 0 W/m² 1,2 °C 0,7 °C 14,5 km/h (3 Bft)
15.03.2019 06:42 3,1 °C 87 % 1011,3 hPa 0,0 mm 7,2 km/h (2 Bft) W 263 ° 0 min 0,000 mm 0,0 UV-I 0 W/m² 1,2 °C 1,1 °C 12,9 km/h (3 Bft)
15.03.2019 06:43 3,1 °C 87 % 1011,2 hPa 0,0 mm 7,8 km/h (2 Bft) W-SW 256 ° 0 min 0,000 mm 0,0 UV-I 0 W/m² 1,2 °C 1,0 °C 12,9 km/h (3 Bft)
15.03.2019 06:44 3,2 °C 87 % 1011,4 hPa 0,0 mm 7,0 km/h (2 Bft) W 259 ° 0 min 0,000 mm 0,0 UV-I 0 W/m² 1,2 °C 1,3 °C 11,3 km/h (2 Bft)
15.03.2019 06:45 3,2 °C 87 % 1011,4 hPa 0,0 mm 13,8 km/h (3 Bft) W 269 ° 0 min 0,000 mm 0,0 UV-I 0 W/m² 1,2 °C -0,3 °C 19,3 km/h (3 Bft)
15.03.2019 06:46 3,2 °C 87 % 1011,3 hPa 0,0 mm 11,1 km/h (2 Bft) SW 233 ° 0 min 0,000 mm 0,0 UV-I 0 W/m² 1,2 °C 0,3 °C 16,1 km/h (3 Bft)
15.03.2019 06:47 3,1 °C 87 % 1011,3 hPa 0,0 mm 15,8 km/h (3 Bft) W-SW 258 ° 0 min 0,000 mm 0,0 UV-I 0 W/m² 1,2 °C -0,7 °C 19,3 km/h (3 Bft)
15.03.2019 06:48 3,2 °C 87 % 1011,4 hPa 0,0 mm 12,8 km/h (3 Bft) W-SW 255 ° 0 min 0,000 mm 0,0 UV-I 0 W/m² 1,2 °C -0,1 °C 17,7 km/h (3 Bft)
15.03.2019 06:49 3,2 °C 87 % 1011,3 hPa 0,0 mm 8,2 km/h (2 Bft) W 266 ° 0 min 0,000 mm 0,0 UV-I 0 W/m² 1,2 °C 1,0 °C 12,9 km/h (3 Bft)
15.03.2019 06:50 3,1 °C 87 % 1011,3 hPa 0,0 mm 7,6 km/h (2 Bft) S-SW 198 ° 0 min 0,000 mm 0,0 UV-I 0 W/m² 1,2 °C 1,0 °C 12,9 km/h (3 Bft)
15.03.2019 06:51 3,1 °C 87 % 1011,3 hPa 0,2 mm 5,8 km/h (2 Bft) W-NW 284 ° 0 min 0,000 mm 0,0 UV-I 0 W/m² 1,2 °C 1,6 °C 9,7 km/h (2 Bft)
15.03.2019 06:52 3,0 °C 87 % 1011,3 hPa 0,0 mm 7,4 km/h (2 Bft) W-NW 302 ° 0 min 0,000 mm 0,0 UV-I 0 W/m² 1,1 °C 1,0 °C 11,3 km/h (2 Bft)
15.03.2019 06:53 3,0 °C 88 % 1011,4 hPa 0,0 mm 3,3 km/h (1 Bft) W-NW 301 ° 0 min 0,000 mm 0,0 UV-I 0 W/m² 1,2 °C 3,0 °C 4,8 km/h (1 Bft)
15.03.2019 06:54 2,9 °C 88 % 1011,4 hPa 0,0 mm 5,2 km/h (1 Bft) W 260 ° 0 min 0,000 mm 0,0 UV-I 0 W/m² 1,1 °C 1,6 °C 6,4 km/h (2 Bft)
15.03.2019 06:55 2,9 °C 88 % 1011,4 hPa 0,0 mm 5,6 km/h (1 Bft) W-SW 242 ° 0 min 0,000 mm 0,0 UV-I 0 W/m² 1,1 °C 1,5 °C 6,4 km/h (2 Bft)
15.03.2019 06:56 2,8 °C 88 % 1011,4 hPa 0,0 mm 8,0 km/h (2 Bft) W 275 ° 0 min 0,000 mm 0,0 UV-I 5 W/m² 1,0 °C 0,6 °C 12,9 km/h (3 Bft)
15.03.2019 06:57 2,8 °C 88 % 1011,4 hPa 0,0 mm 8,6 km/h (2 Bft) W 263 ° 0 min 0,000 mm 0,0 UV-I 0 W/m² 1,0 °C 0,4 °C 11,3 km/h (2 Bft)
15.03.2019 06:58 2,8 °C 89 % 1011,4 hPa 0,0 mm 11,1 km/h (2 Bft) W-SW 257 ° 0 min 0,000 mm 0,0 UV-I 0 W/m² 1,2 °C -0,2 °C 14,5 km/h (3 Bft)
15.03.2019 06:59 2,8 °C 89 % 1011,4 hPa 0,0 mm 9,5 km/h (2 Bft) W-NW 292 ° 0 min 0,000 mm 0,0 UV-I 0 W/m² 1,2 °C 0,2 °C 12,9 km/h (3 Bft)
15.03.2019 07:00 2,7 °C 89 % 1011,4 hPa 0,2 mm 7,1 km/h (2 Bft) W 268 ° 0 min 0,000 mm 0,0 UV-I 0 W/m² 1,1 °C 0,7 °C 9,7 km/h (2 Bft)
15.03.2019 07:01 2,7 °C 89 % 1011,4 hPa 0,0 mm 5,1 km/h (1 Bft) W-SW 247 ° 0 min 0,000 mm 0,0 UV-I 0 W/m² 1,1 °C 1,4 °C 9,7 km/h (2 Bft)
15.03.2019 07:02 2,7 °C 89 % 1011,4 hPa 0,0 mm 3,1 km/h (1 Bft) SW 231 ° 0 min 0,000 mm 0,0 UV-I 5 W/m² 1,1 °C 2,7 °C 4,8 km/h (1 Bft)
15.03.2019 07:03 2,7 °C 89 % 1011,4 hPa 0,0 mm 9,0 km/h (2 Bft) W 266 ° 0 min 0,000 mm 0,0 UV-I 5 W/m² 1,1 °C 0,2 °C 14,5 km/h (3 Bft)
15.03.2019 07:04 2,6 °C 89 % 1011,3 hPa 0,2 mm 11,7 km/h (2 Bft) W-SW 255 ° 0 min 0,000 mm 0,0 UV-I 0 W/m² 1,0 °C -0,6 °C 16,1 km/h (3 Bft)
15.03.2019 07:05 2,6 °C 89 % 1011,4 hPa 0,0 mm 10,0 km/h (2 Bft) W 273 ° 0 min 0,000 mm 0,0 UV-I 0 W/m² 1,0 °C -0,2 °C 14,5 km/h (3 Bft)
15.03.2019 07:06 2,6 °C 89 % 1011,4 hPa 0,0 mm 9,7 km/h (2 Bft) W 271 ° 0 min 0,000 mm 0,0 UV-I 5 W/m² 1,0 °C -0,1 °C 12,9 km/h (3 Bft)
15.03.2019 07:07 2,6 °C 90 % 1011,4 hPa 0,0 mm 8,0 km/h (2 Bft) W 259 ° 0 min 0,000 mm 0,0 UV-I 7 W/m² 1,1 °C 0,3 °C 11,3 km/h (2 Bft)
15.03.2019 07:08 2,6 °C 90 % 1011,4 hPa 0,0 mm 4,6 km/h (1 Bft) W-SW 250 ° 0 min 0,000 mm 0,0 UV-I 7 W/m² 1,1 °C 1,5 °C 6,4 km/h (2 Bft)
15.03.2019 07:09 2,6 °C 90 % 1011,4 hPa 0,0 mm 7,7 km/h (2 Bft) W-SW 250 ° 0 min 0,000 mm 0,0 UV-I 5 W/m² 1,1 °C 0,4 °C 11,3 km/h (2 Bft)
15.03.2019 07:10 2,6 °C 90 % 1011,4 hPa 0,0 mm 9,5 km/h (2 Bft) W 274 ° 0 min 0,000 mm 0,0 UV-I 5 W/m² 1,1 °C -0,1 °C 12,9 km/h (3 Bft)
15.03.2019 07:11 2,6 °C 90 % 1011,4 hPa 0,0 mm 7,7 km/h (2 Bft) W 276 ° 0 min 0,000 mm 0,0 UV-I 5 W/m² 1,1 °C 0,4 °C 11,3 km/h (2 Bft)
15.03.2019 07:12 2,6 °C 90 % 1011,4 hPa 0,0 mm 12,0 km/h (2 Bft) W 265 ° 0 min 0,000 mm 0,0 UV-I 5 W/m² 1,1 °C -0,7 °C 19,3 km/h (3 Bft)
15.03.2019 07:13 2,6 °C 90 % 1011,4 hPa 0,0 mm 10,7 km/h (2 Bft) W-SW 256 ° 0 min 0,000 mm 0,0 UV-I 5 W/m² 1,1 °C -0,4 °C 17,7 km/h (3 Bft)
15.03.2019 07:14 2,6 °C 90 % 1011,4 hPa 0,0 mm 8,3 km/h (2 Bft) W 263 ° 0 min 0,000 mm 0,0 UV-I 9 W/m² 1,1 °C 0,2 °C 12,9 km/h (3 Bft)
15.03.2019 07:15 2,6 °C 90 % 1011,3 hPa 0,0 mm 13,1 km/h (3 Bft) W 272 ° 0 min 0,000 mm 0,0 UV-I 9 W/m² 1,1 °C -0,9 °C 16,1 km/h (3 Bft)
15.03.2019 07:16 2,6 °C 90 % 1011,4 hPa 0,0 mm 11,1 km/h (2 Bft) W-NW 286 ° 0 min 0,000 mm 0,0 UV-I 9 W/m² 1,1 °C -0,5 °C 14,5 km/h (3 Bft)
15.03.2019 07:17 2,6 °C 90 % 1011,5 hPa 0,0 mm 6,4 km/h (2 Bft) W-NW 284 ° 0 min 0,000 mm 0,0 UV-I 9 W/m² 1,1 °C 0,8 °C 12,9 km/h (3 Bft)
15.03.2019 07:18 2,7 °C 90 % 1011,4 hPa 0,0 mm 9,3 km/h (2 Bft) W-SW 250 ° 0 min 0,000 mm 0,0 UV-I 9 W/m² 1,2 °C 0,1 °C 12,9 km/h (3 Bft)
15.03.2019 07:19 2,7 °C 90 % 1011,5 hPa 0,0 mm 13,5 km/h (3 Bft) W-NW 288 ° 0 min 0,000 mm 0,0 UV-I 11 W/m² 1,2 °C -0,8 °C 17,7 km/h (3 Bft)
15.03.2019 07:20 2,7 °C 90 % 1011,5 hPa 0,0 mm 13,3 km/h (3 Bft) W 259 ° 0 min 0,000 mm 0,0 UV-I 11 W/m² 1,2 °C -0,8 °C 17,7 km/h (3 Bft)
15.03.2019 07:21 2,7 °C 90 % 1011,5 hPa 0,0 mm 9,3 km/h (2 Bft) W-NW 284 ° 0 min 0,000 mm 0,0 UV-I 11 W/m² 1,2 °C 0,1 °C 17,7 km/h (3 Bft)
15.03.2019 07:22 2,7 °C 90 % 1011,5 hPa 0,0 mm 9,7 km/h (2 Bft) W 268 ° 0 min 0,000 mm 0,0 UV-I 11 W/m² 1,2 °C -0,0 °C 19,3 km/h (3 Bft)
15.03.2019 07:23 2,8 °C 90 % 1011,5 hPa 0,0 mm 14,8 km/h (3 Bft) W-SW 250 ° 0 min 0,000 mm 0,0 UV-I 12 W/m² 1,3 °C -0,9 °C 17,7 km/h (3 Bft)
15.03.2019 07:24 2,8 °C 90 % 1011,6 hPa 0,0 mm 9,5 km/h (2 Bft) W-SW 253 ° 0 min 0,000 mm 0,0 UV-I 12 W/m² 1,3 °C 0,2 °C 14,5 km/h (3 Bft)
15.03.2019 07:25 2,8 °C 90 % 1011,6 hPa 0,0 mm 12,9 km/h (3 Bft) SW 234 ° 0 min 0,000 mm 0,0 UV-I 12 W/m² 1,3 °C -0,6 °C 17,7 km/h (3 Bft)
15.03.2019 07:26 2,8 °C 90 % 1011,6 hPa 0,0 mm 10,8 km/h (2 Bft) W-SW 250 ° 0 min 0,000 mm 0,0 UV-I 11 W/m² 1,3 °C -0,2 °C 16,1 km/h (3 Bft)
15.03.2019 07:27 2,8 °C 90 % 1011,5 hPa 0,0 mm 17,6 km/h (3 Bft) W-SW 255 ° 0 min 0,000 mm 0,0 UV-I 12 W/m² 1,3 °C -1,4 °C 24,1 km/h (4 Bft)
15.03.2019 07:28 2,8 °C 90 % 1011,6 hPa 0,0 mm 8,2 km/h (2 Bft) W-NW 283 ° 0 min 0,000 mm 0,0 UV-I 14 W/m² 1,3 °C 0,5 °C 12,9 km/h (3 Bft)
15.03.2019 07:29 2,8 °C 90 % 1011,4 hPa 0,0 mm 12,9 km/h (3 Bft) W 261 ° 0 min 0,000 mm 0,0 UV-I 16 W/m² 1,3 °C -0,6 °C 22,5 km/h (4 Bft)
15.03.2019 07:30 2,8 °C 90 % 1011,4 hPa 0,0 mm 10,4 km/h (2 Bft) W 269 ° 0 min 0,000 mm 0,0 UV-I 18 W/m² 1,3 °C -0,1 °C 17,7 km/h (3 Bft)
15.03.2019 07:31 2,8 °C 90 % 1011,4 hPa 0,2 mm 15,3 km/h (3 Bft) W 265 ° 0 min 0,000 mm 0,0 UV-I 18 W/m² 1,3 °C -1,0 °C 19,3 km/h (3 Bft)
15.03.2019 07:32 2,8 °C 90 % 1011,4 hPa 0,0 mm 13,3 km/h (3 Bft) W 269 ° 0 min 0,000 mm 0,0 UV-I 16 W/m² 1,3 °C -0,7 °C 17,7 km/h (3 Bft)
15.03.2019 07:33 2,8 °C 90 % 1011,4 hPa 0,0 mm 9,0 km/h (2 Bft) W 268 ° 0 min 0,000 mm 0,0 UV-I 16 W/m² 1,3 °C 0,3 °C 22,5 km/h (4 Bft)
15.03.2019 07:34 2,8 °C 90 % 1011,4 hPa 0,0 mm 14,1 km/h (3 Bft) SW 233 ° 0 min 0,000 mm 0,0 UV-I 18 W/m² 1,3 °C -0,8 °C 19,3 km/h (3 Bft)
15.03.2019 07:35 2,8 °C 90 % 1011,3 hPa 0,0 mm 8,7 km/h (2 Bft) W 280 ° 0 min 0,000 mm 0,0 UV-I 19 W/m² 1,3 °C 0,4 °C 12,9 km/h (3 Bft)
15.03.2019 07:36 2,8 °C 90 % 1011,4 hPa 0,0 mm 13,5 km/h (3 Bft) W 263 ° 0 min 0,000 mm 0,0 UV-I 19 W/m² 1,3 °C -0,7 °C 20,9 km/h (4 Bft)
15.03.2019 07:37 2,8 °C 90 % 1011,3 hPa 0,0 mm 18,3 km/h (3 Bft) W 265 ° 0 min 0,000 mm 0,0 UV-I 21 W/m² 1,3 °C -1,5 °C 24,1 km/h (4 Bft)
15.03.2019 07:38 2,9 °C 90 % 1011,4 hPa 0,0 mm 17,2 km/h (3 Bft) W 280 ° 0 min 0,000 mm 0,0 UV-I 21 W/m² 1,4 °C -1,2 °C 24,1 km/h (4 Bft)
15.03.2019 07:39 2,9 °C 90 % 1011,4 hPa 0,0 mm 13,6 km/h (3 Bft) S 180 ° 0 min 0,000 mm 0,0 UV-I 21 W/m² 1,4 °C -0,6 °C 19,3 km/h (3 Bft)
15.03.2019 07:40 2,9 °C 90 % 1011,3 hPa 0,0 mm 10,3 km/h (2 Bft) W-SW 237 ° 0 min 0,000 mm 0,0 UV-I 19 W/m² 1,4 °C 0,1 °C 16,1 km/h (3 Bft)
15.03.2019 07:41 2,9 °C 90 % 1011,4 hPa 0,0 mm 8,9 km/h (2 Bft) W 281 ° 0 min 0,000 mm 0,0 UV-I 19 W/m² 1,4 °C 0,4 °C 12,9 km/h (3 Bft)
15.03.2019 07:42 2,9 °C 90 % 1011,4 hPa 0,0 mm 10,6 km/h (2 Bft) SW 234 ° 0 min 0,000 mm 0,0 UV-I 19 W/m² 1,4 °C 0,0 °C 14,5 km/h (3 Bft)
15.03.2019 07:43 2,9 °C 90 % 1011,3 hPa 0,0 mm 10,9 km/h (2 Bft) W-SW 257 ° 0 min 0,000 mm 0,0 UV-I 19 W/m² 1,4 °C -0,1 °C 19,3 km/h (3 Bft)
15.03.2019 07:44 3,0 °C 90 % 1011,3 hPa 0,0 mm 10,9 km/h (2 Bft) W 260 ° 0 min 0,000 mm 0,0 UV-I 19 W/m² 1,5 °C 0,1 °C 16,1 km/h (3 Bft)
15.03.2019 07:45 3,0 °C 90 % 1011,3 hPa 0,0 mm 14,1 km/h (3 Bft) W 259 ° 0 min 0,000 mm 0,0 UV-I 18 W/m² 1,5 °C -0,6 °C 22,5 km/h (4 Bft)
15.03.2019 07:46 3,1 °C 90 % 1011,3 hPa 0,0 mm 8,7 km/h (2 Bft) SW 217 ° 0 min 0,000 mm 0,0 UV-I 19 W/m² 1,6 °C 0,7 °C 12,9 km/h (3 Bft)
15.03.2019 07:47 3,1 °C 90 % 1011,4 hPa 0,0 mm 12,4 km/h (3 Bft) W-SW 246 ° 0 min 0,000 mm 0,0 UV-I 21 W/m² 1,6 °C -0,1 °C 17,7 km/h (3 Bft)
15.03.2019 07:48 3,2 °C 90 % 1011,2 hPa 0,0 mm 14,0 km/h (3 Bft) W 270 ° 0 min 0,000 mm 0,0 UV-I 21 W/m² 1,7 °C -0,3 °C 22,5 km/h (4 Bft)
15.03.2019 07:49 3,2 °C 90 % 1011,2 hPa 0,0 mm 13,2 km/h (3 Bft) W-SW 246 ° 0 min 0,000 mm 0,0 UV-I 23 W/m² 1,7 °C -0,2 °C 17,7 km/h (3 Bft)
15.03.2019 07:50 3,3 °C 89 % 1011,3 hPa 0,0 mm 8,2 km/h (2 Bft) W-SW 258 ° 0 min 0,000 mm 0,0 UV-I 25 W/m² 1,7 °C 1,1 °C 16,1 km/h (3 Bft)
15.03.2019 07:51 3,3 °C 89 % 1011,3 hPa 0,0 mm 11,9 km/h (2 Bft) W-SW 251 ° 0 min 0,000 mm 0,0 UV-I 26 W/m² 1,7 °C 0,2 °C 19,3 km/h (3 Bft)
15.03.2019 07:52 3,3 °C 89 % 1011,3 hPa 0,0 mm 14,8 km/h (3 Bft) W-SW 241 ° 0 min 0,000 mm 0,0 UV-I 26 W/m² 1,7 °C -0,3 °C 20,9 km/h (4 Bft)
15.03.2019 07:53 3,3 °C 89 % 1011,4 hPa 0,0 mm 13,9 km/h (3 Bft) SW 231 ° 0 min 0,000 mm 0,0 UV-I 26 W/m² 1,7 °C -0,2 °C 20,9 km/h (4 Bft)
15.03.2019 07:54 3,4 °C 89 % 1011,3 hPa 0,0 mm 11,6 km/h (2 Bft) W 260 ° 0 min 0,000 mm 0,0 UV-I 26 W/m² 1,8 °C 0,4 °C 16,1 km/h (3 Bft)
15.03.2019 07:55 3,4 °C 89 % 1011,4 hPa 0,0 mm 14,6 km/h (3 Bft) W-SW 252 ° 0 min 0,000 mm 0,0 UV-I 25 W/m² 1,8 °C -0,2 °C 20,9 km/h (4 Bft)
15.03.2019 07:56 3,5 °C 89 % 1011,4 hPa 0,0 mm 14,6 km/h (3 Bft) NW 318 ° 0 min 0,000 mm 0,0 UV-I 19 W/m² 1,9 °C -0,0 °C 19,3 km/h (3 Bft)
15.03.2019 07:57 3,5 °C 88 % 1011,4 hPa 0,0 mm 12,7 km/h (3 Bft) W 269 ° 0 min 0,000 mm 0,0 UV-I 16 W/m² 1,7 °C 0,3 °C 20,9 km/h (4 Bft)
15.03.2019 07:58 3,6 °C 88 % 1011,5 hPa 0,0 mm 10,9 km/h (2 Bft) W-SW 252 ° 0 min 0,000 mm 0,0 UV-I 16 W/m² 1,8 °C 0,8 °C 17,7 km/h (3 Bft)
15.03.2019 07:59 3,6 °C 88 % 1011,4 hPa 0,0 mm 12,0 km/h (2 Bft) W-SW 244 ° 0 min 0,000 mm 0,0 UV-I 18 W/m² 1,8 °C 0,6 °C 22,5 km/h (4 Bft)
15.03.2019 08:00 3,6 °C 88 % 1011,5 hPa 0,0 mm 15,6 km/h (3 Bft) W 278 ° 0 min 0,000 mm 0,0 UV-I 19 W/m² 1,8 °C -0,1 °C 22,5 km/h (4 Bft)
15.03.2019 08:01 3,7 °C 88 % 1011,5 hPa 0,0 mm 12,6 km/h (3 Bft) W-SW 242 ° 0 min 0,026 mm 0,0 UV-I 18 W/m² 1,9 °C 0,6 °C 17,7 km/h (3 Bft)
15.03.2019 08:02 3,7 °C 88 % 1011,6 hPa 0,0 mm 17,6 km/h (3 Bft) W 281 ° 0 min 0,000 mm 0,0 UV-I 16 W/m² 1,9 °C -0,2 °C 25,7 km/h (4 Bft)
15.03.2019 08:03 3,7 °C 88 % 1011,5 hPa 0,0 mm 11,6 km/h (2 Bft) SW 236 ° 0 min 0,000 mm 0,0 UV-I 18 W/m² 1,9 °C 0,8 °C 20,9 km/h (4 Bft)
15.03.2019 08:04 3,7 °C 88 % 1011,6 hPa 0,0 mm 16,1 km/h (3 Bft) W 261 ° 0 min 0,000 mm 0,0 UV-I 18 W/m² 1,9 °C -0,0 °C 29,0 km/h (5 Bft)
15.03.2019 08:05 3,7 °C 88 % 1011,6 hPa 0,0 mm 13,0 km/h (3 Bft) SW 230 ° 0 min 0,000 mm 0,0 UV-I 18 W/m² 1,9 °C 0,5 °C 19,3 km/h (3 Bft)
15.03.2019 08:06 3,7 °C 87 % 1011,7 hPa 0,0 mm 12,5 km/h (3 Bft) W 259 ° 0 min 0,000 mm 0,0 UV-I 18 W/m² 1,7 °C 0,6 °C 29,0 km/h (5 Bft)
15.03.2019 08:07 3,7 °C 87 % 1011,7 hPa 0,0 mm 21,7 km/h (4 Bft) W 281 ° 0 min 0,000 mm 0,0 UV-I 16 W/m² 1,7 °C -0,8 °C 27,4 km/h (4 Bft)
15.03.2019 08:08 3,7 °C 87 % 1011,7 hPa 0,0 mm 12,5 km/h (3 Bft) W 267 ° 0 min 0,000 mm 0,0 UV-I 14 W/m² 1,7 °C 0,6 °C 16,1 km/h (3 Bft)
15.03.2019 08:09 3,7 °C 87 % 1011,8 hPa 0,2 mm 12,4 km/h (3 Bft) W 259 ° 0 min 0,000 mm 0,0 UV-I 16 W/m² 1,7 °C 0,6 °C 17,7 km/h (3 Bft)
15.03.2019 08:10 3,7 °C 88 % 1011,8 hPa 0,0 mm 8,5 km/h (2 Bft) W 268 ° 0 min 0,000 mm 0,0 UV-I 18 W/m² 1,9 °C 1,5 °C 11,3 km/h (2 Bft)
15.03.2019 08:11 3,7 °C 88 % 1011,8 hPa 0,0 mm 10,3 km/h (2 Bft) W 272 ° 0 min 0,000 mm 0,0 UV-I 19 W/m² 1,9 °C 1,0 °C 14,5 km/h (3 Bft)
15.03.2019 08:12 3,7 °C 88 % 1011,8 hPa 0,0 mm 12,7 km/h (3 Bft) W 266 ° 0 min 0,000 mm 0,0 UV-I 18 W/m² 1,9 °C 0,5 °C 17,7 km/h (3 Bft)
15.03.2019 08:13 3,7 °C 88 % 1011,8 hPa 0,0 mm 15,8 km/h (3 Bft) SW 236 ° 0 min 0,000 mm 0,0 UV-I 18 W/m² 1,9 °C 0,0 °C 20,9 km/h (4 Bft)
15.03.2019 08:14 3,6 °C 88 % 1011,9 hPa 0,0 mm 15,1 km/h (3 Bft) W 259 ° 0 min 0,000 mm 0,0 UV-I 14 W/m² 1,8 °C 0,0 °C 25,7 km/h (4 Bft)
15.03.2019 08:15 3,6 °C 88 % 1011,8 hPa 0,0 mm 12,2 km/h (2 Bft) W 266 ° 0 min 0,000 mm 0,0 UV-I 12 W/m² 1,8 °C 0,5 °C 17,7 km/h (3 Bft)
15.03.2019 08:16 3,6 °C 88 % 1011,8 hPa 0,0 mm 13,1 km/h (3 Bft) W-SW 258 ° 0 min 0,000 mm 0,0 UV-I 12 W/m² 1,8 °C 0,4 °C 17,7 km/h (3 Bft)
15.03.2019 08:17 3,6 °C 88 % 1011,9 hPa 0,2 mm 8,3 km/h (2 Bft) SW 220 ° 0 min 0,000 mm 0,0 UV-I 12 W/m² 1,8 °C 1,4 °C 14,5 km/h (3 Bft)
15.03.2019 08:18 3,6 °C 88 % 1011,9 hPa 0,0 mm 18,5 km/h (3 Bft) W-SW 240 ° 0 min 0,000 mm 0,0 UV-I 12 W/m² 1,8 °C -0,5 °C 27,4 km/h (4 Bft)
15.03.2019 08:19 3,5 °C 88 % 1011,9 hPa 0,0 mm 15,1 km/h (3 Bft) SW 236 ° 0 min 0,000 mm 0,0 UV-I 14 W/m² 1,7 °C -0,1 °C 20,9 km/h (4 Bft)
15.03.2019 08:20 3,4 °C 88 % 1011,9 hPa 0,2 mm 17,1 km/h (3 Bft) W-NW 302 ° 0 min 0,000 mm 0,0 UV-I 14 W/m² 1,6 °C -0,6 °C 20,9 km/h (4 Bft)
15.03.2019 08:21 3,4 °C 88 % 1011,8 hPa 0,0 mm 12,1 km/h (2 Bft) W-SW 257 ° 0 min 0,000 mm 0,0 UV-I 16 W/m² 1,6 °C 0,3 °C 19,3 km/h (3 Bft)
15.03.2019 08:22 3,4 °C 88 % 1011,9 hPa 0,0 mm 13,0 km/h (3 Bft) W-SW 258 ° 0 min 0,000 mm 0,0 UV-I 16 W/m² 1,6 °C 0,1 °C 20,9 km/h (4 Bft)
15.03.2019 08:23 3,3 °C 88 % 1011,9 hPa 0,0 mm 14,0 km/h (3 Bft) W 265 ° 0 min 0,000 mm 0,0 UV-I 14 W/m² 1,5 °C -0,2 °C 24,1 km/h (4 Bft)
15.03.2019 08:24 3,3 °C 88 % 1011,9 hPa 0,0 mm 15,8 km/h (3 Bft) W-NW 290 ° 0 min 0,000 mm 0,0 UV-I 16 W/m² 1,5 °C -0,5 °C 24,1 km/h (4 Bft)
15.03.2019 08:25 3,3 °C 89 % 1012,0 hPa 0,2 mm 12,6 km/h (3 Bft) W-SW 237 ° 0 min 0,000 mm 0,0 UV-I 14 W/m² 1,7 °C 0,1 °C 17,7 km/h (3 Bft)
15.03.2019 08:26 3,2 °C 89 % 1011,9 hPa 0,0 mm 21,5 km/h (4 Bft) W-NW 290 ° 0 min 0,000 mm 0,0 UV-I 14 W/m² 1,6 °C -1,4 °C 29,0 km/h (5 Bft)
15.03.2019 08:27 3,2 °C 89 % 1012,0 hPa 0,0 mm 15,5 km/h (3 Bft) W 273 ° 0 min 0,000 mm 0,0 UV-I 16 W/m² 1,6 °C -0,6 °C 20,9 km/h (4 Bft)
15.03.2019 08:28 3,2 °C 89 % 1012,1 hPa 0,2 mm 7,6 km/h (2 Bft) SW 234 ° 0 min 0,000 mm 0,0 UV-I 16 W/m² 1,6 °C 1,1 °C 17,7 km/h (3 Bft)
15.03.2019 08:29 3,1 °C 89 % 1012,0 hPa 0,0 mm 10,1 km/h (2 Bft) W-SW 239 ° 0 min 0,000 mm 0,0 UV-I 16 W/m² 1,5 °C 0,4 °C 17,7 km/h (3 Bft)
15.03.2019 08:30 3,1 °C 89 % 1012,1 hPa 0,0 mm 11,3 km/h (2 Bft) W-SW 252 ° 0 min 0,000 mm 0,0 UV-I 18 W/m² 1,5 °C 0,1 °C 19,3 km/h (3 Bft)
15.03.2019 08:31 3,0 °C 89 % 1012,0 hPa 0,0 mm 11,9 km/h (2 Bft) W-SW 257 ° 0 min 0,000 mm 0,0 UV-I 18 W/m² 1,4 °C -0,1 °C 20,9 km/h (4 Bft)
15.03.2019 08:32 3,0 °C 89 % 1012,0 hPa 0,0 mm 19,2 km/h (3 Bft) W-SW 257 ° 0 min 0,000 mm 0,0 UV-I 18 W/m² 1,4 °C -1,3 °C 27,4 km/h (4 Bft)
15.03.2019 08:33 2,9 °C 89 % 1012,0 hPa 0,2 mm 20,4 km/h (4 Bft) W 259 ° 0 min 0,000 mm 0,0 UV-I 19 W/m² 1,3 °C -1,6 °C 30,6 km/h (5 Bft)
15.03.2019 08:34 2,9 °C 89 % 1012,0 hPa 0,0 mm 13,7 km/h (3 Bft) SW 236 ° 0 min 0,000 mm 0,0 UV-I 21 W/m² 1,3 °C -0,6 °C 24,1 km/h (4 Bft)
15.03.2019 08:35 2,9 °C 89 % 1012,0 hPa 0,0 mm 9,5 km/h (2 Bft) W 265 ° 0 min 0,000 mm 0,0 UV-I 21 W/m² 1,3 °C 0,3 °C 14,5 km/h (3 Bft)
15.03.2019 08:36 2,9 °C 89 % 1012,0 hPa 0,2 mm 11,4 km/h (2 Bft) W-NW 282 ° 0 min 0,000 mm 0,0 UV-I 21 W/m² 1,3 °C -0,2 °C 16,1 km/h (3 Bft)
15.03.2019 08:37 2,9 °C 89 % 1012,0 hPa 0,0 mm 13,9 km/h (3 Bft) W-NW 294 ° 0 min 0,000 mm 0,0 UV-I 23 W/m² 1,3 °C -0,6 °C 17,7 km/h (3 Bft)
15.03.2019 08:38 2,9 °C 90 % 1012,0 hPa 0,0 mm 10,0 km/h (2 Bft) W-SW 248 ° 0 min 0,000 mm 0,0 UV-I 21 W/m² 1,4 °C 0,1 °C 14,5 km/h (3 Bft)
15.03.2019 08:39 2,9 °C 90 % 1012,0 hPa 0,0 mm 12,9 km/h (3 Bft) W 267 ° 0 min 0,000 mm 0,0 UV-I 23 W/m² 1,4 °C -0,5 °C 24,1 km/h (4 Bft)
15.03.2019 08:40 2,8 °C 90 % 1012,0 hPa 0,0 mm 15,9 km/h (3 Bft) W 267 ° 0 min 0,000 mm 0,0 UV-I 23 W/m² 1,3 °C -1,1 °C 27,4 km/h (4 Bft)
15.03.2019 08:41 2,8 °C 90 % 1012,0 hPa 0,2 mm 14,9 km/h (3 Bft) W 259 ° 0 min 0,000 mm 0,0 UV-I 23 W/m² 1,3 °C -0,9 °C 20,9 km/h (4 Bft)
15.03.2019 08:42 2,8 °C 90 % 1012,1 hPa 0,0 mm 9,3 km/h (2 Bft) W-SW 255 ° 0 min 0,000 mm 0,0 UV-I 23 W/m² 1,3 °C 0,2 °C 12,9 km/h (3 Bft)
15.03.2019 08:43 2,8 °C 90 % 1012,2 hPa 0,0 mm 9,7 km/h (2 Bft) W 260 ° 0 min 0,000 mm 0,0 UV-I 23 W/m² 1,3 °C 0,1 °C 16,1 km/h (3 Bft)
15.03.2019 08:44 2,8 °C 90 % 1012,2 hPa 0,0 mm 12,9 km/h (3 Bft) W 265 ° 0 min 0,000 mm 0,0 UV-I 23 W/m² 1,3 °C -0,6 °C 17,7 km/h (3 Bft)
15.03.2019 08:45 2,8 °C 90 % 1012,3 hPa 0,0 mm 15,2 km/h (3 Bft) W-SW 254 ° 0 min 0,000 mm 0,0 UV-I 23 W/m² 1,3 °C -1,0 °C 19,3 km/h (3 Bft)
15.03.2019 08:46 2,8 °C 90 % 1012,2 hPa 0,0 mm 11,5 km/h (2 Bft) W-SW 258 ° 0 min 0,000 mm 0,0 UV-I 25 W/m² 1,3 °C -0,3 °C 17,7 km/h (3 Bft)
15.03.2019 08:47 2,8 °C 90 % 1012,2 hPa 0,2 mm 7,6 km/h (2 Bft) W 267 ° 0 min 0,000 mm 0,0 UV-I 25 W/m² 1,3 °C 0,7 °C 11,3 km/h (2 Bft)
15.03.2019 08:48 2,7 °C 90 % 1012,2 hPa 0,0 mm 8,9 km/h (2 Bft) W 269 ° 0 min 0,000 mm 0,0 UV-I 26 W/m² 1,2 °C 0,2 °C 27,4 km/h (4 Bft)
15.03.2019 08:49 2,7 °C 90 % 1012,2 hPa 0,0 mm 15,9 km/h (3 Bft) W 262 ° 0 min 0,000 mm 0,0 UV-I 26 W/m² 1,2 °C -1,2 °C 25,7 km/h (4 Bft)
15.03.2019 08:50 2,7 °C 90 % 1012,2 hPa 0,0 mm 14,2 km/h (3 Bft) W 265 ° 0 min 0,000 mm 0,0 UV-I 25 W/m² 1,2 °C -0,9 °C 19,3 km/h (3 Bft)
15.03.2019 08:51 2,7 °C 90 % 1012,3 hPa 0,0 mm 15,6 km/h (3 Bft) W 259 ° 0 min 0,000 mm 0,0 UV-I 25 W/m² 1,2 °C -1,2 °C 20,9 km/h (4 Bft)
15.03.2019 08:52 2,7 °C 90 % 1012,3 hPa 0,2 mm 11,9 km/h (2 Bft) W-NW 285 ° 0 min 0,000 mm 0,0 UV-I 25 W/m² 1,2 °C -0,5 °C 16,1 km/h (3 Bft)
15.03.2019 08:53 2,7 °C 91 % 1012,3 hPa 0,0 mm 9,8 km/h (2 Bft) NW 319 ° 0 min 0,000 mm 0,0 UV-I 25 W/m² 1,4 °C -0,0 °C 16,1 km/h (3 Bft)
15.03.2019 08:54 2,6 °C 90 % 1012,3 hPa 0,0 mm 11,7 km/h (2 Bft) S 190 ° 0 min 0,000 mm 0,0 UV-I 26 W/m² 1,1 °C -0,6 °C 16,1 km/h (3 Bft)
15.03.2019 08:55 2,6 °C 90 % 1012,3 hPa 0,0 mm 11,7 km/h (2 Bft) W 281 ° 0 min 0,000 mm 0,0 UV-I 26 W/m² 1,1 °C -0,6 °C 16,1 km/h (3 Bft)
15.03.2019 08:56 2,6 °C 90 % 1012,3 hPa 0,2 mm 7,4 km/h (2 Bft) W 274 ° 0 min 0,000 mm 0,0 UV-I 28 W/m² 1,1 °C 0,5 °C 11,3 km/h (2 Bft)
15.03.2019 08:57 2,5 °C 91 % 1012,3 hPa 0,0 mm 10,8 km/h (2 Bft) W-SW 248 ° 0 min 0,000 mm 0,0 UV-I 28 W/m² 1,2 °C -0,5 °C 16,1 km/h (3 Bft)
15.03.2019 08:58 2,5 °C 91 % 1012,4 hPa 0,0 mm 12,6 km/h (3 Bft) W-SW 257 ° 0 min 0,000 mm 0,0 UV-I 28 W/m² 1,2 °C -0,9 °C 16,1 km/h (3 Bft)
15.03.2019 08:59 2,5 °C 91 % 1012,4 hPa 0,0 mm 11,7 km/h (2 Bft) W-SW 257 ° 0 min 0,000 mm 0,0 UV-I 28 W/m² 1,2 °C -0,7 °C 14,5 km/h (3 Bft)
15.03.2019 09:00 2,5 °C 91 % 1012,4 hPa 0,0 mm 7,0 km/h (2 Bft) W-SW 248 ° 0 min 0,000 mm 0,0 UV-I 28 W/m² 1,2 °C 0,5 °C 11,3 km/h (2 Bft)
15.03.2019 09:01 2,4 °C 91 % 1012,4 hPa 0,2 mm 4,5 km/h (1 Bft) W 265 ° 0 min 0,025 mm 0,0 UV-I 28 W/m² 1,1 °C 2,4 °C 6,4 km/h (2 Bft)
15.03.2019 09:02 2,4 °C 91 % 1012,4 hPa 0,0 mm 10,7 km/h (2 Bft) W 275 ° 0 min 0,000 mm 0,0 UV-I 28 W/m² 1,1 °C -0,6 °C 17,7 km/h (3 Bft)
15.03.2019 09:03 2,4 °C 91 % 1012,3 hPa 0,0 mm 10,8 km/h (2 Bft) W-SW 257 ° 0 min 0,000 mm 0,0 UV-I 28 W/m² 1,1 °C -0,6 °C 19,3 km/h (3 Bft)
15.03.2019 09:04 2,4 °C 91 % 1012,3 hPa 0,0 mm 9,5 km/h (2 Bft) W-SW 245 ° 0 min 0,000 mm 0,0 UV-I 28 W/m² 1,1 °C -0,3 °C 14,5 km/h (3 Bft)
15.03.2019 09:05 2,3 °C 91 % 1012,3 hPa 0,2 mm 9,3 km/h (2 Bft) W 267 ° 0 min 0,000 mm 0,0 UV-I 30 W/m² 1,0 °C -0,4 °C 14,5 km/h (3 Bft)
15.03.2019 09:06 2,3 °C 91 % 1012,2 hPa 0,0 mm 8,5 km/h (2 Bft) W-SW 253 ° 0 min 0,000 mm 0,0 UV-I 33 W/m² 1,0 °C -0,2 °C 11,3 km/h (2 Bft)
15.03.2019 09:07 2,3 °C 91 % 1012,3 hPa 0,0 mm 9,0 km/h (2 Bft) W 262 ° 0 min 0,000 mm 0,0 UV-I 33 W/m² 1,0 °C -0,3 °C 12,9 km/h (3 Bft)
15.03.2019 09:08 2,3 °C 91 % 1012,3 hPa 0,0 mm 8,8 km/h (2 Bft) W 262 ° 0 min 0,000 mm 0,0 UV-I 33 W/m² 1,0 °C -0,3 °C 12,9 km/h (3 Bft)
15.03.2019 09:09 2,3 °C 91 % 1012,3 hPa 0,0 mm 5,8 km/h (2 Bft) W 272 ° 0 min 0,000 mm 0,0 UV-I 33 W/m² 1,0 °C 0,7 °C 12,9 km/h (3 Bft)
15.03.2019 09:10 2,3 °C 91 % 1012,3 hPa 0,0 mm 13,1 km/h (3 Bft) W-NW 288 ° 0 min 0,000 mm 0,0 UV-I 33 W/m² 1,0 °C -1,2 °C 16,1 km/h (3 Bft)
15.03.2019 09:11 2,3 °C 91 % 1012,3 hPa 0,2 mm 8,0 km/h (2 Bft) W 259 ° 0 min 0,000 mm 0,0 UV-I 33 W/m² 1,0 °C -0,0 °C 12,9 km/h (3 Bft)
15.03.2019 09:12 2,4 °C 91 % 1012,3 hPa 0,0 mm 12,0 km/h (2 Bft) W 271 ° 0 min 0,000 mm 0,0 UV-I 35 W/m² 1,1 °C -0,9 °C 14,5 km/h (3 Bft)
15.03.2019 09:13 2,4 °C 91 % 1012,3 hPa 0,0 mm 6,7 km/h (2 Bft) W-SW 254 ° 0 min 0,000 mm 0,0 UV-I 37 W/m² 1,1 °C 0,5 °C 9,7 km/h (2 Bft)
15.03.2019 09:14 2,4 °C 91 % 1012,3 hPa 0,0 mm 9,9 km/h (2 Bft) W 269 ° 0 min 0,000 mm 0,0 UV-I 37 W/m² 1,1 °C -0,4 °C 14,5 km/h (3 Bft)
15.03.2019 09:15 2,4 °C 91 % 1012,3 hPa 0,0 mm 7,8 km/h (2 Bft) W 261 ° 0 min 0,000 mm 0,0 UV-I 37 W/m² 1,1 °C 0,1 °C 11,3 km/h (2 Bft)
15.03.2019 09:16 2,4 °C 91 % 1012,3 hPa 0,0 mm 8,4 km/h (2 Bft) SW 236 ° 0 min 0,000 mm 0,0 UV-I 39 W/m² 1,1 °C -0,0 °C 14,5 km/h (3 Bft)
15.03.2019 09:17 2,4 °C 91 % 1012,3 hPa 0,2 mm 9,9 km/h (2 Bft) W-SW 248 ° 0 min 0,000 mm 0,0 UV-I 39 W/m² 1,1 °C -0,4 °C 16,1 km/h (3 Bft)
15.03.2019 09:18 2,4 °C 91 % 1012,2 hPa 0,0 mm 6,2 km/h (2 Bft) W-SW 249 ° 0 min 0,000 mm 0,0 UV-I 39 W/m² 1,1 °C 0,7 °C 9,7 km/h (2 Bft)
15.03.2019 09:19 2,5 °C 91 % 1012,2 hPa 0,0 mm 5,1 km/h (1 Bft) W-SW 255 ° 0 min 0,000 mm 0,0 UV-I 39 W/m² 1,2 °C 1,2 °C 9,7 km/h (2 Bft)
15.03.2019 09:20 2,5 °C 91 % 1012,2 hPa 0,0 mm 2,7 km/h (1 Bft) SW 234 ° 0 min 0,000 mm 0,0 UV-I 40 W/m² 1,2 °C 2,5 °C 4,8 km/h (1 Bft)
15.03.2019 09:21 2,5 °C 91 % 1012,2 hPa 0,0 mm 6,0 km/h (2 Bft) S 189 ° 0 min 0,000 mm 0,0 UV-I 42 W/m² 1,2 °C 0,8 °C 9,7 km/h (2 Bft)
15.03.2019 09:22 2,6 °C 91 % 1012,1 hPa 0,0 mm 5,4 km/h (1 Bft) W 270 ° 0 min 0,000 mm 0,0 UV-I 44 W/m² 1,3 °C 1,2 °C 9,7 km/h (2 Bft)
15.03.2019 09:23 2,6 °C 91 % 1012,2 hPa 0,0 mm 8,2 km/h (2 Bft) W 263 ° 0 min 0,000 mm 0,0 UV-I 46 W/m² 1,3 °C 0,3 °C 12,9 km/h (3 Bft)
15.03.2019 09:24 2,6 °C 91 % 1012,2 hPa 0,0 mm 3,8 km/h (1 Bft) SW 221 ° 0 min 0,000 mm 0,0 UV-I 49 W/m² 1,3 °C 2,6 °C 8,0 km/h (2 Bft)
15.03.2019 09:25 2,6 °C 91 % 1012,1 hPa 0,2 mm 3,3 km/h (1 Bft) S-SW 209 ° 0 min 0,000 mm 0,0 UV-I 49 W/m² 1,3 °C 2,6 °C 6,4 km/h (2 Bft)
15.03.2019 09:26 2,7 °C 91 % 1012,1 hPa 0,0 mm 7,0 km/h (2 Bft) W 271 ° 0 min 0,000 mm 0,0 UV-I 49 W/m² 1,4 °C 0,7 °C 11,3 km/h (2 Bft)
15.03.2019 09:27 2,7 °C 91 % 1012,1 hPa 0,0 mm 7,0 km/h (2 Bft) W-SW 242 ° 0 min 0,000 mm 0,0 UV-I 49 W/m² 1,4 °C 0,7 °C 12,9 km/h (3 Bft)
15.03.2019 09:28 2,7 °C 91 % 1012,1 hPa 0,0 mm 4,5 km/h (1 Bft) W-SW 257 ° 0 min 0,000 mm 0,0 UV-I 51 W/m² 1,4 °C 2,7 °C 8,0 km/h (2 Bft)
15.03.2019 09:29 2,7 °C 91 % 1012,1 hPa 0,0 mm 7,2 km/h (2 Bft) W 259 ° 0 min 0,000 mm 0,0 UV-I 54 W/m² 1,4 °C 0,7 °C 12,9 km/h (3 Bft)
15.03.2019 09:30 2,8 °C 91 % 1012,0 hPa 0,0 mm 5,6 km/h (1 Bft) W-SW 254 ° 0 min 0,000 mm 0,0 UV-I 56 W/m² 1,5 °C 1,3 °C 9,7 km/h (2 Bft)
15.03.2019 09:31 2,8 °C 91 % 1012,0 hPa 0,2 mm 4,3 km/h (1 Bft) W-SW 251 ° 0 min 0,000 mm 0,0 UV-I 56 W/m² 1,5 °C 2,8 °C 11,3 km/h (2 Bft)
15.03.2019 09:32 2,8 °C 91 % 1012,0 hPa 0,0 mm 6,4 km/h (2 Bft) SW 227 ° 0 min 0,000 mm 0,0 UV-I 58 W/m² 1,5 °C 1,1 °C 12,9 km/h (3 Bft)
15.03.2019 09:33 2,8 °C 91 % 1012,0 hPa 0,0 mm 4,8 km/h (1 Bft) W 260 ° 0 min 0,000 mm 0,0 UV-I 58 W/m² 1,5 °C 1,7 °C 11,3 km/h (2 Bft)
15.03.2019 09:34 2,8 °C 91 % 1012,0 hPa 0,0 mm 5,7 km/h (1 Bft) W 275 ° 0 min 0,000 mm 0,0 UV-I 58 W/m² 1,5 °C 1,3 °C 9,7 km/h (2 Bft)
15.03.2019 09:35 2,9 °C 91 % 1012,0 hPa 0,0 mm 7,2 km/h (2 Bft) W-SW 256 ° 0 min 0,000 mm 0,0 UV-I 60 W/m² 1,6 °C 0,9 °C 9,7 km/h (2 Bft)
15.03.2019 09:36 2,9 °C 91 % 1012,0 hPa 0,0 mm 5,5 km/h (1 Bft) W-SW 237 ° 0 min 0,000 mm 0,5 UV-I 62 W/m² 1,6 °C 1,5 °C 8,0 km/h (2 Bft)
15.03.2019 09:37 2,9 °C 91 % 1012,0 hPa 0,0 mm 5,3 km/h (1 Bft) W 267 ° 0 min 0,000 mm 0,5 UV-I 62 W/m² 1,6 °C 1,6 °C 9,7 km/h (2 Bft)
15.03.2019 09:38 2,9 °C 91 % 1012,0 hPa 0,0 mm 4,8 km/h (1 Bft) W 267 ° 0 min 0,000 mm 0,5 UV-I 62 W/m² 1,6 °C 1,8 °C 12,9 km/h (3 Bft)
15.03.2019 09:39 2,9 °C 91 % 1012,0 hPa 0,2 mm 11,3 km/h (2 Bft) W 263 ° 0 min 0,000 mm 0,5 UV-I 63 W/m² 1,6 °C -0,1 °C 16,1 km/h (3 Bft)
15.03.2019 09:40 2,9 °C 91 % 1012,0 hPa 0,0 mm 7,4 km/h (2 Bft) W-SW 244 ° 0 min 0,000 mm 0,5 UV-I 63 W/m² 1,6 °C 0,8 °C 12,9 km/h (3 Bft)
15.03.2019 09:41 3,0 °C 91 % 1012,0 hPa 0,0 mm 5,5 km/h (1 Bft) W 259 ° 0 min 0,000 mm 0,5 UV-I 67 W/m² 1,7 °C 1,6 °C 9,7 km/h (2 Bft)
15.03.2019 09:42 3,0 °C 91 % 1012,0 hPa 0,0 mm 5,3 km/h (1 Bft) W-SW 246 ° 0 min 0,000 mm 0,5 UV-I 69 W/m² 1,7 °C 1,7 °C 8,0 km/h (2 Bft)
15.03.2019 09:43 3,0 °C 91 % 1012,0 hPa 0,0 mm 6,8 km/h (2 Bft) W 281 ° 0 min 0,000 mm 0,5 UV-I 69 W/m² 1,7 °C 1,1 °C 14,5 km/h (3 Bft)
15.03.2019 09:44 3,0 °C 91 % 1012,0 hPa 0,0 mm 6,4 km/h (2 Bft) W-SW 253 ° 0 min 0,000 mm 0,5 UV-I 67 W/m² 1,7 °C 1,3 °C 12,9 km/h (3 Bft)
15.03.2019 09:45 3,1 °C 91 % 1012,0 hPa 0,0 mm 8,4 km/h (2 Bft) W 259 ° 0 min 0,000 mm 0,5 UV-I 67 W/m² 1,8 °C 0,8 °C 14,5 km/h (3 Bft)
15.03.2019 09:46 3,1 °C 91 % 1011,9 hPa 0,2 mm 4,7 km/h (1 Bft) W 275 ° 0 min 0,000 mm 0,5 UV-I 69 W/m² 1,8 °C 2,1 °C 9,7 km/h (2 Bft)
15.03.2019 09:47 3,1 °C 91 % 1011,9 hPa 0,0 mm 5,9 km/h (2 Bft) S-SW 199 ° 0 min 0,000 mm 0,5 UV-I 72 W/m² 1,8 °C 1,6 °C 11,3 km/h (2 Bft)
15.03.2019 09:48 3,1 °C 91 % 1011,9 hPa 0,0 mm 6,7 km/h (2 Bft) W 267 ° 0 min 0,000 mm 0,6 UV-I 72 W/m² 1,8 °C 1,3 °C 11,3 km/h (2 Bft)
15.03.2019 09:49 3,2 °C 91 % 1011,9 hPa 0,0 mm 6,2 km/h (2 Bft) SW 221 ° 0 min 0,000 mm 0,6 UV-I 74 W/m² 1,9 °C 1,6 °C 9,7 km/h (2 Bft)
15.03.2019 09:50 3,1 °C 91 % 1011,9 hPa 0,0 mm 7,0 km/h (2 Bft) W-SW 257 ° 0 min 0,000 mm 0,6 UV-I 74 W/m² 1,8 °C 1,2 °C 11,3 km/h (2 Bft)
15.03.2019 09:51 3,2 °C 91 % 1011,9 hPa 0,0 mm 5,7 km/h (1 Bft) W 267 ° 0 min 0,000 mm 0,6 UV-I 74 W/m² 1,9 °C 1,8 °C 9,7 km/h (2 Bft)
15.03.2019 09:52 3,2 °C 91 % 1011,9 hPa 0,0 mm 9,3 km/h (2 Bft) S-SW 213 ° 0 min 0,000 mm 0,6 UV-I 74 W/m² 1,9 °C 0,7 °C 12,9 km/h (3 Bft)
15.03.2019 09:53 3,2 °C 91 % 1011,9 hPa 0,0 mm 8,4 km/h (2 Bft) W-SW 250 ° 0 min 0,000 mm 0,6 UV-I 76 W/m² 1,9 °C 0,9 °C 11,3 km/h (2 Bft)
15.03.2019 09:54 3,2 °C 91 % 1011,9 hPa 0,0 mm 4,7 km/h (1 Bft) W-SW 254 ° 0 min 0,000 mm 0,6 UV-I 77 W/m² 1,9 °C 2,2 °C 8,0 km/h (2 Bft)
15.03.2019 09:55 3,2 °C 91 % 1011,9 hPa 0,2 mm 5,3 km/h (1 Bft) W-SW 238 ° 0 min 0,000 mm 0,6 UV-I 79 W/m² 1,9 °C 1,9 °C 6,4 km/h (2 Bft)
15.03.2019 09:56 3,2 °C 91 % 1011,9 hPa 0,0 mm 2,7 km/h (1 Bft) W-SW 238 ° 0 min 0,000 mm 0,6 UV-I 81 W/m² 1,9 °C 3,2 °C 4,8 km/h (1 Bft)
15.03.2019 09:57 3,2 °C 91 % 1011,9 hPa 0,0 mm 3,0 km/h (1 Bft) W 263 ° 0 min 0,000 mm 0,6 UV-I 79 W/m² 1,9 °C 3,2 °C 4,8 km/h (1 Bft)
15.03.2019 09:58 3,2 °C 91 % 1011,9 hPa 0,0 mm 7,0 km/h (2 Bft) W 266 ° 0 min 0,000 mm 0,6 UV-I 79 W/m² 1,9 °C 1,3 °C 11,3 km/h (2 Bft)
15.03.2019 09:59 3,2 °C 91 % 1011,8 hPa 0,0 mm 4,2 km/h (1 Bft) W 265 ° 0 min 0,000 mm 0,6 UV-I 81 W/m² 1,9 °C 3,2 °C 6,4 km/h (2 Bft)
15.03.2019 10:00 3,3 °C 91 % 1011,9 hPa 0,0 mm 3,2 km/h (1 Bft) W 271 ° 0 min 0,026 mm 0,6 UV-I 81 W/m² 2,0 °C 3,3 °C 4,8 km/h (1 Bft)
15.03.2019 10:01 3,3 °C 91 % 1011,9 hPa 0,0 mm 2,4 km/h (1 Bft) NW 316 ° 0 min 0,000 mm 0,6 UV-I 81 W/m² 2,0 °C 3,3 °C 4,8 km/h (1 Bft)
15.03.2019 10:02 3,3 °C 91 % 1011,8 hPa 0,0 mm 7,4 km/h (2 Bft) W-SW 258 ° 0 min 0,000 mm 0,6 UV-I 81 W/m² 2,0 °C 1,3 °C 11,3 km/h (2 Bft)
15.03.2019 10:03 3,3 °C 91 % 1011,9 hPa 0,2 mm 5,0 km/h (1 Bft) W-NW 290 ° 0 min 0,000 mm 0,6 UV-I 79 W/m² 2,0 °C 2,2 °C 9,7 km/h (2 Bft)
15.03.2019 10:04 3,3 °C 91 % 1011,9 hPa 0,0 mm 4,8 km/h (1 Bft) W-SW 257 ° 0 min 0,000 mm 0,6 UV-I 74 W/m² 2,0 °C 2,2 °C 6,4 km/h (2 Bft)
15.03.2019 10:05 3,3 °C 91 % 1011,9 hPa 0,0 mm 5,5 km/h (1 Bft) W 263 ° 0 min 0,000 mm 0,6 UV-I 72 W/m² 2,0 °C 2,0 °C 9,7 km/h (2 Bft)
15.03.2019 10:06 3,3 °C 91 % 1011,9 hPa 0,0 mm 4,8 km/h (1 Bft) W 270 ° 0 min 0,000 mm 0,6 UV-I 70 W/m² 2,0 °C 2,2 °C 9,7 km/h (2 Bft)
15.03.2019 10:07 3,3 °C 91 % 1011,8 hPa 0,0 mm 6,3 km/h (2 Bft) W 265 ° 0 min 0,000 mm 0,6 UV-I 72 W/m² 2,0 °C 1,7 °C 11,3 km/h (2 Bft)
15.03.2019 10:08 3,3 °C 91 % 1011,8 hPa 0,0 mm 5,2 km/h (1 Bft) W 274 ° 0 min 0,000 mm 0,6 UV-I 72 W/m² 2,0 °C 2,1 °C 6,4 km/h (2 Bft)
15.03.2019 10:09 3,3 °C 91 % 1011,9 hPa 0,0 mm 6,7 km/h (2 Bft) W 265 ° 0 min 0,000 mm 0,6 UV-I 70 W/m² 2,0 °C 1,5 °C 11,3 km/h (2 Bft)
15.03.2019 10:10 3,3 °C 91 % 1011,8 hPa 0,0 mm 4,4 km/h (1 Bft) W 264 ° 0 min 0,000 mm 0,6 UV-I 70 W/m² 2,0 °C 3,3 °C 6,4 km/h (2 Bft)
15.03.2019 10:11 3,3 °C 91 % 1011,8 hPa 0,0 mm 3,3 km/h (1 Bft) W-SW 252 ° 0 min 0,000 mm 0,6 UV-I 70 W/m² 2,0 °C 3,3 °C 9,7 km/h (2 Bft)
15.03.2019 10:12 3,3 °C 91 % 1011,8 hPa 0,2 mm 6,6 km/h (2 Bft) W-NW 284 ° 0 min 0,000 mm 0,6 UV-I 72 W/m² 2,0 °C 1,6 °C 11,3 km/h (2 Bft)
15.03.2019 10:13 3,3 °C 91 % 1011,8 hPa 0,0 mm 8,7 km/h (2 Bft) W 265 ° 0 min 0,000 mm 0,6 UV-I 74 W/m² 2,0 °C 0,9 °C 12,9 km/h (3 Bft)
15.03.2019 10:14 3,3 °C 91 % 1011,8 hPa 0,0 mm 8,3 km/h (2 Bft) W-SW 254 ° 0 min 0,000 mm 0,6 UV-I 76 W/m² 2,0 °C 1,1 °C 14,5 km/h (3 Bft)
15.03.2019 10:15 3,3 °C 91 % 1011,8 hPa 0,0 mm 7,6 km/h (2 Bft) W 264 ° 0 min 0,000 mm 0,6 UV-I 76 W/m² 2,0 °C 1,3 °C 12,9 km/h (3 Bft)
15.03.2019 10:16 3,3 °C 91 % 1011,8 hPa 0,0 mm 6,8 km/h (2 Bft) W-NW 289 ° 0 min 0,000 mm 0,6 UV-I 76 W/m² 2,0 °C 1,5 °C 12,9 km/h (3 Bft)
15.03.2019 10:17 3,3 °C 91 % 1011,7 hPa 0,0 mm 12,6 km/h (3 Bft) W-SW 258 ° 0 min 0,000 mm 0,6 UV-I 76 W/m² 2,0 °C 0,1 °C 17,7 km/h (3 Bft)
15.03.2019 10:18 3,3 °C 91 % 1011,7 hPa 0,0 mm 8,1 km/h (2 Bft) W-SW 257 ° 0 min 0,000 mm 0,6 UV-I 72 W/m² 2,0 °C 1,1 °C 12,9 km/h (3 Bft)
15.03.2019 10:19 3,3 °C 91 % 1011,7 hPa 0,2 mm 5,9 km/h (2 Bft) W 269 ° 0 min 0,000 mm 0,6 UV-I 72 W/m² 2,0 °C 1,8 °C 9,7 km/h (2 Bft)
15.03.2019 10:20 3,3 °C 91 % 1011,8 hPa 0,0 mm 4,3 km/h (1 Bft) S-SW 210 ° 0 min 0,000 mm 0,6 UV-I 70 W/m² 2,0 °C 3,3 °C 6,4 km/h (2 Bft)
15.03.2019 10:21 3,2 °C 91 % 1011,7 hPa 0,0 mm 6,9 km/h (2 Bft) SW 226 ° 0 min 0,000 mm 0,6 UV-I 72 W/m² 1,9 °C 1,3 °C 16,1 km/h (3 Bft)
15.03.2019 10:22 3,2 °C 91 % 1011,7 hPa 0,0 mm 8,5 km/h (2 Bft) W-SW 239 ° 0 min 0,000 mm 0,6 UV-I 79 W/m² 1,9 °C 0,9 °C 16,1 km/h (3 Bft)
15.03.2019 10:23 3,2 °C 91 % 1011,7 hPa 0,0 mm 5,3 km/h (1 Bft) W-SW 248 ° 0 min 0,000 mm 0,6 UV-I 81 W/m² 1,9 °C 1,9 °C 9,7 km/h (2 Bft)
15.03.2019 10:24 3,2 °C 91 % 1011,7 hPa 0,0 mm 6,0 km/h (2 Bft) W 269 ° 0 min 0,000 mm 0,7 UV-I 83 W/m² 1,9 °C 1,7 °C 9,7 km/h (2 Bft)
15.03.2019 10:25 3,2 °C 91 % 1011,6 hPa 0,2 mm 9,1 km/h (2 Bft) W-SW 256 ° 0 min 0,000 mm 0,7 UV-I 84 W/m² 1,9 °C 0,7 °C 12,9 km/h (3 Bft)
15.03.2019 10:26 3,3 °C 91 % 1011,6 hPa 0,0 mm 7,4 km/h (2 Bft) W-SW 248 ° 0 min 0,000 mm 0,7 UV-I 84 W/m² 2,0 °C 1,3 °C 12,9 km/h (3 Bft)
15.03.2019 10:27 3,3 °C 91 % 1011,6 hPa 0,0 mm 7,2 km/h (2 Bft) W 271 ° 0 min 0,000 mm 0,6 UV-I 83 W/m² 2,0 °C 1,4 °C 11,3 km/h (2 Bft)
15.03.2019 10:28 3,3 °C 91 % 1011,6 hPa 0,0 mm 10,4 km/h (2 Bft) W 267 ° 0 min 0,000 mm 0,6 UV-I 81 W/m² 2,0 °C 0,5 °C 16,1 km/h (3 Bft)
15.03.2019 10:29 3,3 °C 91 % 1011,6 hPa 0,0 mm 9,1 km/h (2 Bft) W-SW 238 ° 0 min 0,000 mm 0,6 UV-I 81 W/m² 2,0 °C 0,8 °C 14,5 km/h (3 Bft)
15.03.2019 10:30 3,3 °C 91 % 1011,5 hPa 0,2 mm 12,0 km/h (2 Bft) W 274 ° 0 min 0,000 mm 0,6 UV-I 79 W/m² 2,0 °C 0,2 °C 16,1 km/h (3 Bft)
15.03.2019 10:31 3,3 °C 91 % 1011,5 hPa 0,0 mm 8,4 km/h (2 Bft) W-SW 239 ° 0 min 0,000 mm 0,6 UV-I 77 W/m² 2,0 °C 1,0 °C 12,9 km/h (3 Bft)
15.03.2019 10:32 3,3 °C 91 % 1011,5 hPa 0,0 mm 10,6 km/h (2 Bft) W-NW 292 ° 0 min 0,000 mm 0,6 UV-I 77 W/m² 2,0 °C 0,5 °C 16,1 km/h (3 Bft)
15.03.2019 10:33 3,3 °C 91 % 1011,4 hPa 0,0 mm 9,6 km/h (2 Bft) SW 215 ° 0 min 0,000 mm 0,6 UV-I 79 W/m² 2,0 °C 0,7 °C 14,5 km/h (3 Bft)
15.03.2019 10:34 3,3 °C 91 % 1011,4 hPa 0,0 mm 8,1 km/h (2 Bft) W 271 ° 0 min 0,000 mm 0,6 UV-I 79 W/m² 2,0 °C 1,1 °C 12,9 km/h (3 Bft)
15.03.2019 10:35 3,3 °C 91 % 1011,4 hPa 0,0 mm 4,8 km/h (1 Bft) W 269 ° 0 min 0,000 mm 0,6 UV-I 79 W/m² 2,0 °C 2,2 °C 6,4 km/h (2 Bft)
15.03.2019 10:36 3,3 °C 91 % 1011,4 hPa 0,2 mm 6,9 km/h (2 Bft) W 277 ° 0 min 0,000 mm 0,6 UV-I 79 W/m² 2,0 °C 1,5 °C 9,7 km/h (2 Bft)
15.03.2019 10:37 3,3 °C 91 % 1011,4 hPa 0,0 mm 6,6 km/h (2 Bft) W-SW 247 ° 0 min 0,000 mm 0,7 UV-I 79 W/m² 2,0 °C 1,6 °C 11,3 km/h (2 Bft)
15.03.2019 10:38 3,3 °C 92 % 1011,4 hPa 0,0 mm 9,4 km/h (2 Bft) W 267 ° 0 min 0,000 mm 0,7 UV-I 83 W/m² 2,1 °C 0,8 °C 14,5 km/h (3 Bft)
15.03.2019 10:39 3,3 °C 91 % 1011,4 hPa 0,0 mm 6,9 km/h (2 Bft) W 276 ° 0 min 0,000 mm 0,6 UV-I 81 W/m² 2,0 °C 1,5 °C 12,9 km/h (3 Bft)
15.03.2019 10:40 3,3 °C 92 % 1011,3 hPa 0,0 mm 8,4 km/h (2 Bft) W 260 ° 0 min 0,000 mm 0,6 UV-I 76 W/m² 2,1 °C 1,0 °C 14,5 km/h (3 Bft)
15.03.2019 10:41 3,3 °C 91 % 1011,4 hPa 0,2 mm 7,9 km/h (2 Bft) W-NW 288 ° 0 min 0,000 mm 0,6 UV-I 72 W/m² 2,0 °C 1,2 °C 16,1 km/h (3 Bft)
15.03.2019 10:42 3,3 °C 91 % 1011,4 hPa 0,0 mm 10,9 km/h (2 Bft) W 261 ° 0 min 0,000 mm 0,6 UV-I 69 W/m² 2,0 °C 0,4 °C 16,1 km/h (3 Bft)
15.03.2019 10:43 3,4 °C 91 % 1011,3 hPa 0,0 mm 13,7 km/h (3 Bft) W-SW 248 ° 0 min 0,000 mm 0,5 UV-I 65 W/m² 2,1 °C -0,0 °C 19,3 km/h (3 Bft)
15.03.2019 10:44 3,4 °C 91 % 1011,4 hPa 0,0 mm 10,8 km/h (2 Bft) W-NW 288 ° 0 min 0,000 mm 0,5 UV-I 65 W/m² 2,1 °C 0,6 °C 16,1 km/h (3 Bft)
15.03.2019 10:45 3,4 °C 91 % 1011,4 hPa 0,0 mm 15,5 km/h (3 Bft) W 279 ° 0 min 0,000 mm 0,5 UV-I 62 W/m² 2,1 °C -0,3 °C 19,3 km/h (3 Bft)
15.03.2019 10:46 3,4 °C 91 % 1011,4 hPa 0,0 mm 10,7 km/h (2 Bft) W 275 ° 0 min 0,000 mm 0,5 UV-I 62 W/m² 2,1 °C 0,6 °C 12,9 km/h (3 Bft)
15.03.2019 10:47 3,4 °C 91 % 1011,3 hPa 0,2 mm 12,1 km/h (2 Bft) W 273 ° 0 min 0,000 mm 0,5 UV-I 63 W/m² 2,1 °C 0,3 °C 16,1 km/h (3 Bft)
15.03.2019 10:48 3,5 °C 91 % 1011,3 hPa 0,0 mm 8,5 km/h (2 Bft) W-SW 257 ° 0 min 0,000 mm 0,5 UV-I 63 W/m² 2,2 °C 1,2 °C 16,1 km/h (3 Bft)
15.03.2019 10:49 3,5 °C 91 % 1011,3 hPa 0,0 mm 11,8 km/h (2 Bft) W-NW 284 ° 0 min 0,000 mm 0,5 UV-I 62 W/m² 2,2 °C 0,5 °C 14,5 km/h (3 Bft)
15.03.2019 10:50 3,6 °C 91 % 1011,3 hPa 0,0 mm 13,7 km/h (3 Bft) W 277 ° 0 min 0,000 mm 0,5 UV-I 60 W/m² 2,3 °C 0,2 °C 22,5 km/h (4 Bft)
15.03.2019 10:51 3,6 °C 91 % 1011,2 hPa 0,2 mm 13,3 km/h (3 Bft) W 259 ° 0 min 0,000 mm 0,5 UV-I 62 W/m² 2,3 °C 0,3 °C 19,3 km/h (3 Bft)
15.03.2019 10:52 3,6 °C 91 % 1011,3 hPa 0,0 mm 9,4 km/h (2 Bft) W 264 ° 0 min 0,000 mm 0,6 UV-I 65 W/m² 2,3 °C 1,1 °C 12,9 km/h (3 Bft)
15.03.2019 10:53 3,6 °C 91 % 1011,3 hPa 0,0 mm 11,7 km/h (2 Bft) W 263 ° 0 min 0,000 mm 0,6 UV-I 67 W/m² 2,3 °C 0,6 °C 16,1 km/h (3 Bft)
15.03.2019 10:54 3,6 °C 91 % 1011,2 hPa 0,0 mm 12,1 km/h (2 Bft) W 259 ° 0 min 0,000 mm 0,6 UV-I 69 W/m² 2,3 °C 0,5 °C 14,5 km/h (3 Bft)
15.03.2019 10:55 3,7 °C 91 % 1011,2 hPa 0,2 mm 11,3 km/h (2 Bft) W 261 ° 0 min 0,000 mm 0,6 UV-I 70 W/m² 2,4 °C 0,8 °C 16,1 km/h (3 Bft)
15.03.2019 10:56 3,7 °C 91 % 1011,3 hPa 0,0 mm 11,6 km/h (2 Bft) SW 219 ° 0 min 0,000 mm 0,6 UV-I 69 W/m² 2,4 °C 0,8 °C 14,5 km/h (3 Bft)
15.03.2019 10:57 3,7 °C 91 % 1011,2 hPa 0,0 mm 8,8 km/h (2 Bft) W 269 ° 0 min 0,000 mm 0,6 UV-I 63 W/m² 2,4 °C 1,4 °C 12,9 km/h (3 Bft)
15.03.2019 10:58 3,7 °C 91 % 1011,2 hPa 0,2 mm 9,7 km/h (2 Bft) W 279 ° 0 min 0,000 mm 0,5 UV-I 63 W/m² 2,4 °C 1,2 °C 12,9 km/h (3 Bft)
15.03.2019 10:59 3,8 °C 91 % 1011,2 hPa 0,0 mm 8,2 km/h (2 Bft) W 277 ° 0 min 0,000 mm 0,5 UV-I 63 W/m² 2,5 °C 1,7 °C 12,9 km/h (3 Bft)
15.03.2019 11:00 3,8 °C 91 % 1011,1 hPa 0,0 mm 15,4 km/h (3 Bft) W-SW 257 ° 0 min 0,025 mm 0,5 UV-I 63 W/m² 2,5 °C 0,2 °C 19,3 km/h (3 Bft)
15.03.2019 11:01 3,8 °C 91 % 1011,1 hPa 0,0 mm 13,3 km/h (3 Bft) W 269 ° 0 min 0,000 mm 0,5 UV-I 62 W/m² 2,5 °C 0,6 °C 19,3 km/h (3 Bft)
15.03.2019 11:02 3,8 °C 91 % 1011,2 hPa 0,2 mm 16,2 km/h (3 Bft) W-SW 254 ° 0 min 0,000 mm 0,5 UV-I 60 W/m² 2,5 °C 0,1 °C 27,4 km/h (4 Bft)
15.03.2019 11:03 3,8 °C 91 % 1011,1 hPa 0,0 mm 13,0 km/h (3 Bft) W 270 ° 0 min 0,000 mm 0,5 UV-I 62 W/m² 2,5 °C 0,6 °C 17,7 km/h (3 Bft)
15.03.2019 11:04 3,9 °C 91 % 1011,1 hPa 0,0 mm 8,1 km/h (2 Bft) W 259 ° 0 min 0,000 mm 0,5 UV-I 63 W/m² 2,6 °C 1,8 °C 16,1 km/h (3 Bft)
15.03.2019 11:05 3,9 °C 91 % 1011,1 hPa 0,2 mm 12,3 km/h (3 Bft) W 276 ° 0 min 0,000 mm 0,5 UV-I 65 W/m² 2,6 °C 0,9 °C 17,7 km/h (3 Bft)
15.03.2019 11:06 3,9 °C 91 % 1011,0 hPa 0,0 mm 10,2 km/h (2 Bft) W-NW 284 ° 0 min 0,000 mm 0,5 UV-I 65 W/m² 2,6 °C 1,3 °C 16,1 km/h (3 Bft)
15.03.2019 11:07 4,0 °C 91 % 1011,0 hPa 0,0 mm 14,6 km/h (3 Bft) SW 236 ° 0 min 0,000 mm 0,5 UV-I 65 W/m² 2,7 °C 0,6 °C 22,5 km/h (4 Bft)
15.03.2019 11:08 4,0 °C 91 % 1011,0 hPa 0,0 mm 16,9 km/h (3 Bft) W-NW 290 ° 0 min 0,000 mm 0,5 UV-I 65 W/m² 2,7 °C 0,2 °C 24,1 km/h (4 Bft)
15.03.2019 11:09 4,1 °C 91 % 1011,0 hPa 0,2 mm 15,2 km/h (3 Bft) W-SW 250 ° 0 min 0,000 mm 0,5 UV-I 67 W/m² 2,8 °C 0,6 °C 19,3 km/h (3 Bft)
15.03.2019 11:10 4,1 °C 91 % 1010,9 hPa 0,0 mm 12,5 km/h (3 Bft) W-SW 243 ° 0 min 0,000 mm 0,6 UV-I 67 W/m² 2,8 °C 1,1 °C 16,1 km/h (3 Bft)
15.03.2019 11:11 4,2 °C 91 % 1011,0 hPa 0,0 mm 16,6 km/h (3 Bft) W-NW 299 ° 0 min 0,000 mm 0,6 UV-I 69 W/m² 2,9 °C 0,5 °C 20,9 km/h (4 Bft)
15.03.2019 11:12 4,2 °C 91 % 1010,9 hPa 0,0 mm 14,8 km/h (3 Bft) W-SW 258 ° 0 min 0,000 mm 0,6 UV-I 70 W/m² 2,9 °C 0,8 °C 22,5 km/h (4 Bft)
15.03.2019 11:13 4,2 °C 91 % 1011,0 hPa 0,2 mm 15,1 km/h (3 Bft) W-SW 254 ° 0 min 0,000 mm 0,6 UV-I 70 W/m² 2,9 °C 0,7 °C 20,9 km/h (4 Bft)
15.03.2019 11:14 4,2 °C 91 % 1011,0 hPa 0,0 mm 13,2 km/h (3 Bft) W-SW 256 ° 0 min 0,000 mm 0,6 UV-I 72 W/m² 2,9 °C 1,1 °C 20,9 km/h (4 Bft)
15.03.2019 11:15 4,3 °C 91 % 1011,0 hPa 0,0 mm 11,5 km/h (2 Bft) W-SW 246 ° 0 min 0,000 mm 0,6 UV-I 76 W/m² 3,0 °C 1,5 °C 16,1 km/h (3 Bft)
15.03.2019 11:16 4,3 °C 91 % 1010,9 hPa 0,0 mm 13,5 km/h (3 Bft) W 266 ° 0 min 0,000 mm 0,6 UV-I 76 W/m² 3,0 °C 1,1 °C 24,1 km/h (4 Bft)
15.03.2019 11:17 4,3 °C 91 % 1010,9 hPa 0,0 mm 13,3 km/h (3 Bft) W-SW 256 ° 0 min 0,000 mm 0,6 UV-I 76 W/m² 3,0 °C 1,2 °C 20,9 km/h (4 Bft)
15.03.2019 11:18 4,3 °C 91 % 1011,0 hPa 0,0 mm 12,1 km/h (2 Bft) W 265 ° 0 min 0,000 mm 0,6 UV-I 76 W/m² 3,0 °C 1,4 °C 14,5 km/h (3 Bft)
15.03.2019 11:19 4,3 °C 91 % 1010,9 hPa 0,2 mm 9,1 km/h (2 Bft) W 259 ° 0 min 0,000 mm 0,6 UV-I 74 W/m² 3,0 °C 2,0 °C 14,5 km/h (3 Bft)
15.03.2019 11:20 4,3 °C 91 % 1011,0 hPa 0,0 mm 12,9 km/h (3 Bft) W-SW 252 ° 0 min 0,000 mm 0,6 UV-I 74 W/m² 3,0 °C 1,2 °C 20,9 km/h (4 Bft)
15.03.2019 11:21 4,4 °C 91 % 1011,0 hPa 0,0 mm 10,2 km/h (2 Bft) W-SW 250 ° 0 min 0,000 mm 0,6 UV-I 74 W/m² 3,1 °C 1,9 °C 16,1 km/h (3 Bft)
15.03.2019 11:22 4,4 °C 91 % 1011,0 hPa 0,0 mm 9,5 km/h (2 Bft) W-SW 242 ° 0 min 0,000 mm 0,6 UV-I 70 W/m² 3,1 °C 2,1 °C 16,1 km/h (3 Bft)
15.03.2019 11:23 4,4 °C 91 % 1011,0 hPa 0,2 mm 16,2 km/h (3 Bft) W-SW 251 ° 0 min 0,000 mm 0,6 UV-I 69 W/m² 3,1 °C 0,8 °C 25,7 km/h (4 Bft)
15.03.2019 11:24 4,4 °C 91 % 1011,0 hPa 0,0 mm 14,3 km/h (3 Bft) W 263 ° 0 min 0,000 mm 0,6 UV-I 69 W/m² 3,1 °C 1,1 °C 19,3 km/h (3 Bft)
15.03.2019 11:25 4,5 °C 91 % 1011,0 hPa 0,0 mm 8,5 km/h (2 Bft) W-NW 296 ° 0 min 0,000 mm 0,6 UV-I 69 W/m² 3,2 °C 2,4 °C 12,9 km/h (3 Bft)
15.03.2019 11:26 4,5 °C 91 % 1011,0 hPa 0,0 mm 10,0 km/h (2 Bft) W 259 ° 0 min 0,000 mm 0,6 UV-I 67 W/m² 3,2 °C 2,1 °C 12,9 km/h (3 Bft)
15.03.2019 11:27 4,5 °C 91 % 1011,0 hPa 0,0 mm 12,7 km/h (3 Bft) W 263 ° 0 min 0,000 mm 0,6 UV-I 67 W/m² 3,2 °C 1,5 °C 19,3 km/h (3 Bft)
15.03.2019 11:28 4,5 °C 91 % 1010,9 hPa 0,2 mm 14,4 km/h (3 Bft) W-SW 238 ° 0 min 0,000 mm 0,6 UV-I 65 W/m² 3,2 °C 1,2 °C 20,9 km/h (4 Bft)
15.03.2019 11:29 4,5 °C 91 % 1011,0 hPa 0,0 mm 18,7 km/h (3 Bft) W 263 ° 0 min 0,000 mm 0,6 UV-I 69 W/m² 3,2 °C 0,6 °C 25,7 km/h (4 Bft)
15.03.2019 11:30 4,6 °C 91 % 1010,8 hPa 0,0 mm 18,0 km/h (3 Bft) W-SW 253 ° 0 min 0,000 mm 0,6 UV-I 69 W/m² 3,3 °C 0,8 °C 22,5 km/h (4 Bft)
15.03.2019 11:31 4,6 °C 91 % 1010,8 hPa 0,0 mm 16,2 km/h (3 Bft) W 274 ° 0 min 0,000 mm 0,6 UV-I 69 W/m² 3,3 °C 1,1 °C 22,5 km/h (4 Bft)
15.03.2019 11:32 4,6 °C 91 % 1010,8 hPa 0,0 mm 10,3 km/h (2 Bft) W 261 ° 0 min 0,000 mm 0,6 UV-I 70 W/m² 3,3 °C 2,1 °C 14,5 km/h (3 Bft)
15.03.2019 11:33 4,7 °C 91 % 1010,8 hPa 0,2 mm 6,5 km/h (2 Bft) W-SW 252 ° 0 min 0,000 mm 0,6 UV-I 72 W/m² 3,4 °C 3,2 °C 9,7 km/h (2 Bft)
15.03.2019 11:34 4,7 °C 91 % 1010,8 hPa 0,0 mm 9,0 km/h (2 Bft) W-SW 248 ° 0 min 0,000 mm 0,6 UV-I 74 W/m² 3,4 °C 2,5 °C 12,9 km/h (3 Bft)
15.03.2019 11:35 4,7 °C 91 % 1010,8 hPa 0,0 mm 11,4 km/h (2 Bft) W-NW 297 ° 0 min 0,000 mm 0,6 UV-I 72 W/m² 3,4 °C 2,0 °C 16,1 km/h (3 Bft)
15.03.2019 11:36 4,7 °C 91 % 1010,9 hPa 0,0 mm 14,8 km/h (3 Bft) SW 233 ° 0 min 0,000 mm 0,6 UV-I 76 W/m² 3,4 °C 1,4 °C 24,1 km/h (4 Bft)
15.03.2019 11:37 4,7 °C 91 % 1010,8 hPa 0,2 mm 19,2 km/h (3 Bft) W 268 ° 0 min 0,000 mm 0,6 UV-I 70 W/m² 3,4 °C 0,8 °C 24,1 km/h (4 Bft)
15.03.2019 11:38 4,8 °C 91 % 1010,8 hPa 0,0 mm 8,8 km/h (2 Bft) W 271 ° 0 min 0,000 mm 0,7 UV-I 81 W/m² 3,5 °C 2,7 °C 12,9 km/h (3 Bft)
15.03.2019 11:39 4,8 °C 91 % 1010,8 hPa 0,0 mm 15,3 km/h (3 Bft) W-SW 257 ° 0 min 0,000 mm 0,7 UV-I 79 W/m² 3,5 °C 1,5 °C 22,5 km/h (4 Bft)
15.03.2019 11:40 4,8 °C 91 % 1010,8 hPa 0,0 mm 18,4 km/h (3 Bft) W-NW 290 ° 0 min 0,000 mm 0,6 UV-I 72 W/m² 3,5 °C 1,0 °C 25,7 km/h (4 Bft)
15.03.2019 11:41 4,8 °C 91 % 1010,9 hPa 0,0 mm 12,8 km/h (3 Bft) W 267 ° 0 min 0,000 mm 0,7 UV-I 79 W/m² 3,5 °C 1,9 °C 24,1 km/h (4 Bft)
15.03.2019 11:42 4,8 °C 91 % 1010,9 hPa 0,2 mm 14,5 km/h (3 Bft) W 259 ° 0 min 0,000 mm 0,6 UV-I 77 W/m² 3,5 °C 1,6 °C 20,9 km/h (4 Bft)
15.03.2019 11:43 4,9 °C 91 % 1010,8 hPa 0,0 mm 14,8 km/h (3 Bft) W 266 ° 0 min 0,000 mm 0,6 UV-I 76 W/m² 3,6 °C 1,7 °C 20,9 km/h (4 Bft)
15.03.2019 11:44 4,9 °C 91 % 1010,9 hPa 0,0 mm 12,9 km/h (3 Bft) W 262 ° 0 min 0,000 mm 0,6 UV-I 76 W/m² 3,6 °C 2,0 °C 19,3 km/h (3 Bft)
15.03.2019 11:45 4,9 °C 91 % 1010,9 hPa 0,0 mm 15,4 km/h (3 Bft) SW 234 ° 0 min 0,000 mm 0,7 UV-I 77 W/m² 3,6 °C 1,6 °C 24,1 km/h (4 Bft)
15.03.2019 11:46 5,0 °C 91 % 1010,8 hPa 0,0 mm 10,1 km/h (2 Bft) W 263 ° 0 min 0,000 mm 0,7 UV-I 81 W/m² 3,7 °C 2,6 °C 16,1 km/h (3 Bft)
15.03.2019 11:47 5,0 °C 90 % 1010,9 hPa 0,2 mm 13,4 km/h (3 Bft) W-SW 252 ° 0 min 0,000 mm 0,7 UV-I 81 W/m² 3,5 °C 2,0 °C 17,7 km/h (3 Bft)
15.03.2019 11:48 5,1 °C 90 % 1010,8 hPa 0,0 mm 17,6 km/h (3 Bft) W-SW 253 ° 0 min 0,000 mm 0,7 UV-I 83 W/m² 3,6 °C 1,5 °C 24,1 km/h (4 Bft)
15.03.2019 11:49 5,1 °C 90 % 1010,8 hPa 0,0 mm 18,1 km/h (3 Bft) W 277 ° 0 min 0,000 mm 0,6 UV-I 77 W/m² 3,6 °C 1,4 °C 24,1 km/h (4 Bft)
15.03.2019 11:50 5,1 °C 90 % 1010,8 hPa 0,0 mm 14,6 km/h (3 Bft) W 259 ° 0 min 0,000 mm 0,6 UV-I 76 W/m² 3,6 °C 1,9 °C 19,3 km/h (3 Bft)
15.03.2019 11:51 5,1 °C 90 % 1010,8 hPa 0,0 mm 15,7 km/h (3 Bft) W 277 ° 0 min 0,000 mm 0,7 UV-I 84 W/m² 3,6 °C 1,8 °C 24,1 km/h (4 Bft)
15.03.2019 11:52 5,1 °C 91 % 1010,9 hPa 0,0 mm 11,6 km/h (2 Bft) W 263 ° 0 min 0,000 mm 0,7 UV-I 84 W/m² 3,8 °C 2,5 °C 20,9 km/h (4 Bft)
15.03.2019 11:53 5,1 °C 91 % 1010,9 hPa 0,2 mm 13,0 km/h (3 Bft) W 271 ° 0 min 0,000 mm 0,7 UV-I 84 W/m² 3,8 °C 2,2 °C 24,1 km/h (4 Bft)
15.03.2019 11:54 5,2 °C 91 % 1010,8 hPa 0,0 mm 17,0 km/h (3 Bft) W-SW 254 ° 0 min 0,000 mm 0,7 UV-I 81 W/m² 3,9 °C 1,7 °C 22,5 km/h (4 Bft)
15.03.2019 11:55 5,2 °C 90 % 1010,7 hPa 0,0 mm 21,7 km/h (4 Bft) W-SW 257 ° 0 min 0,000 mm 0,7 UV-I 84 W/m² 3,7 °C 1,1 °C 29,0 km/h (5 Bft)
15.03.2019 11:56 5,2 °C 90 % 1010,7 hPa 0,0 mm 15,0 km/h (3 Bft) W 260 ° 0 min 0,000 mm 0,8 UV-I 84 W/m² 3,7 °C 2,0 °C 24,1 km/h (4 Bft)
15.03.2019 11:57 5,2 °C 90 % 1010,7 hPa 0,0 mm 18,1 km/h (3 Bft) W-SW 248 ° 0 min 0,000 mm 0,7 UV-I 81 W/m² 3,7 °C 1,6 °C 20,9 km/h (4 Bft)
15.03.2019 11:58 5,3 °C 90 % 1010,8 hPa 0,0 mm 19,8 km/h (3 Bft) NW 308 ° 0 min 0,000 mm 0,7 UV-I 84 W/m² 3,8 °C 1,5 °C 27,4 km/h (4 Bft)
15.03.2019 11:59 5,3 °C 90 % 1010,6 hPa 0,0 mm 19,7 km/h (3 Bft) W 271 ° 0 min 0,000 mm 0,7 UV-I 86 W/m² 3,8 °C 1,5 °C 33,8 km/h (5 Bft)
15.03.2019 12:00 5,3 °C 90 % 1010,8 hPa 0,2 mm 24,9 km/h (4 Bft) SW 233 ° 0 min 0,000 mm 0,7 UV-I 86 W/m² 3,8 °C 0,9 °C 32,2 km/h (5 Bft)
15.03.2019 12:01 5,3 °C 90 % 1010,8 hPa 0,0 mm 22,4 km/h (4 Bft) W-SW 250 ° 0 min 0,051 mm 0,7 UV-I 88 W/m² 3,8 °C 1,2 °C 27,4 km/h (4 Bft)
15.03.2019 12:02 5,3 °C 90 % 1010,8 hPa 0,0 mm 18,2 km/h (3 Bft) W 266 ° 0 min 0,000 mm 0,7 UV-I 88 W/m² 3,8 °C 1,7 °C 29,0 km/h (5 Bft)
15.03.2019 12:03 5,4 °C 90 % 1010,9 hPa 0,0 mm 14,5 km/h (3 Bft) W-SW 247 ° 0 min 0,000 mm 0,8 UV-I 91 W/m² 3,9 °C 2,3 °C 20,9 km/h (4 Bft)
15.03.2019 12:04 5,4 °C 90 % 1010,8 hPa 0,0 mm 16,2 km/h (3 Bft) NW 312 ° 0 min 0,000 mm 0,7 UV-I 86 W/m² 3,9 °C 2,1 °C 27,4 km/h (4 Bft)
15.03.2019 12:05 5,5 °C 90 % 1010,8 hPa 0,0 mm 14,4 km/h (3 Bft) W 279 ° 0 min 0,000 mm 0,7 UV-I 84 W/m² 4,0 °C 2,5 °C 20,9 km/h (4 Bft)
15.03.2019 12:06 5,6 °C 90 % 1010,8 hPa 0,2 mm 16,8 km/h (3 Bft) W 259 ° 0 min 0,000 mm 0,7 UV-I 81 W/m² 4,1 °C 2,2 °C 24,1 km/h (4 Bft)
15.03.2019 12:07 5,6 °C 90 % 1010,9 hPa 0,0 mm 13,7 km/h (3 Bft) W 259 ° 0 min 0,000 mm 0,7 UV-I 79 W/m² 4,1 °C 2,7 °C 20,9 km/h (4 Bft)
15.03.2019 12:08 5,6 °C 90 % 1010,8 hPa 0,0 mm 16,0 km/h (3 Bft) W-NW 292 ° 0 min 0,000 mm 0,7 UV-I 74 W/m² 4,1 °C 2,3 °C 20,9 km/h (4 Bft)
15.03.2019 12:09 5,6 °C 90 % 1010,8 hPa 0,0 mm 17,0 km/h (3 Bft) W-SW 240 ° 0 min 0,000 mm 0,7 UV-I 76 W/m² 4,1 °C 2,2 °C 24,1 km/h (4 Bft)
15.03.2019 12:10 5,6 °C 90 % 1010,9 hPa 0,0 mm 19,5 km/h (3 Bft) N-NW 338 ° 0 min 0,000 mm 0,7 UV-I 76 W/m² 4,1 °C 1,9 °C 30,6 km/h (5 Bft)
15.03.2019 12:11 5,6 °C 90 % 1010,8 hPa 0,0 mm 16,6 km/h (3 Bft) W 281 ° 0 min 0,000 mm 0,6 UV-I 74 W/m² 4,1 °C 2,3 °C 25,7 km/h (4 Bft)
15.03.2019 12:12 5,6 °C 90 % 1011,0 hPa 0,0 mm 24,6 km/h (4 Bft) W-NW 284 ° 0 min 0,000 mm 0,7 UV-I 77 W/m² 4,1 °C 1,3 °C 32,2 km/h (5 Bft)
15.03.2019 12:13 5,6 °C 90 % 1010,9 hPa 0,2 mm 22,1 km/h (4 Bft) W 265 ° 0 min 0,000 mm 0,7 UV-I 76 W/m² 4,1 °C 1,6 °C 29,0 km/h (5 Bft)
15.03.2019 12:14 5,6 °C 90 % 1010,9 hPa 0,0 mm 20,1 km/h (4 Bft) W 275 ° 0 min 0,000 mm 0,6 UV-I 76 W/m² 4,1 °C 1,8 °C 30,6 km/h (5 Bft)
15.03.2019 12:15 5,7 °C 90 % 1011,0 hPa 0,0 mm 23,4 km/h (4 Bft) W 269 ° 0 min 0,000 mm 0,7 UV-I 76 W/m² 4,2 °C 1,6 °C 33,8 km/h (5 Bft)
15.03.2019 12:16 5,7 °C 90 % 1010,9 hPa 0,0 mm 23,6 km/h (4 Bft) W-NW 288 ° 0 min 0,000 mm 0,7 UV-I 79 W/m² 4,2 °C 1,6 °C 33,8 km/h (5 Bft)
15.03.2019 12:17 5,7 °C 90 % 1010,9 hPa 0,0 mm 17,0 km/h (3 Bft) W-SW 249 ° 0 min 0,000 mm 0,7 UV-I 79 W/m² 4,2 °C 2,3 °C 24,1 km/h (4 Bft)
15.03.2019 12:18 5,7 °C 90 % 1010,9 hPa 0,0 mm 23,1 km/h (4 Bft) W 263 ° 0 min 0,000 mm 0,7 UV-I 79 W/m² 4,2 °C 1,6 °C 27,4 km/h (4 Bft)
15.03.2019 12:19 5,7 °C 90 % 1010,9 hPa 0,0 mm 22,6 km/h (4 Bft) W 275 ° 0 min 0,000 mm 0,7 UV-I 83 W/m² 4,2 °C 1,7 °C 30,6 km/h (5 Bft)
15.03.2019 12:20 5,7 °C 90 % 1010,9 hPa 0,2 mm 20,0 km/h (4 Bft) W 274 ° 0 min 0,000 mm 0,7 UV-I 86 W/m² 4,2 °C 2,0 °C 30,6 km/h (5 Bft)
15.03.2019 12:21 5,7 °C 90 % 1010,9 hPa 0,0 mm 15,8 km/h (3 Bft) W-SW 252 ° 0 min 0,000 mm 0,8 UV-I 88 W/m² 4,2 °C 2,5 °C 20,9 km/h (4 Bft)
15.03.2019 12:22 5,7 °C 90 % 1010,9 hPa 0,0 mm 16,9 km/h (3 Bft) W 267 ° 0 min 0,000 mm 0,8 UV-I 91 W/m² 4,2 °C 2,3 °C 20,9 km/h (4 Bft)
15.03.2019 12:23 5,7 °C 90 % 1010,9 hPa 0,0 mm 14,0 km/h (3 Bft) W 269 ° 0 min 0,000 mm 0,8 UV-I 95 W/m² 4,2 °C 2,8 °C 19,3 km/h (3 Bft)
15.03.2019 12:24 5,7 °C 90 % 1010,9 hPa 0,0 mm 12,9 km/h (3 Bft) W 265 ° 0 min 0,000 mm 0,8 UV-I 91 W/m² 4,2 °C 2,9 °C 22,5 km/h (4 Bft)
15.03.2019 12:25 5,7 °C 90 % 1010,9 hPa 0,0 mm 17,7 km/h (3 Bft) W 269 ° 0 min 0,000 mm 0,8 UV-I 97 W/m² 4,2 °C 2,2 °C 22,5 km/h (4 Bft)
15.03.2019 12:26 5,7 °C 90 % 1010,9 hPa 0,2 mm 18,0 km/h (3 Bft) W-SW 257 ° 0 min 0,000 mm 0,9 UV-I 100 W/m² 4,2 °C 2,2 °C 25,7 km/h (4 Bft)
15.03.2019 12:27 5,7 °C 90 % 1010,9 hPa 0,0 mm 18,0 km/h (3 Bft) W 261 ° 0 min 0,000 mm 0,8 UV-I 100 W/m² 4,2 °C 2,2 °C 25,7 km/h (4 Bft)
15.03.2019 12:28 5,7 °C 90 % 1010,9 hPa 0,0 mm 19,5 km/h (3 Bft) W-NW 292 ° 0 min 0,000 mm 0,9 UV-I 102 W/m² 4,2 °C 2,0 °C 29,0 km/h (5 Bft)
15.03.2019 12:29 5,7 °C 90 % 1010,9 hPa 0,0 mm 12,7 km/h (3 Bft) W-SW 249 ° 0 min 0,000 mm 0,9 UV-I 104 W/m² 4,2 °C 3,0 °C 19,3 km/h (3 Bft)
15.03.2019 12:30 5,8 °C 90 % 1010,9 hPa 0,0 mm 23,6 km/h (4 Bft) W-SW 254 ° 0 min 0,000 mm 0,9 UV-I 104 W/m² 4,3 °C 1,7 °C 30,6 km/h (5 Bft)
15.03.2019 12:31 5,8 °C 90 % 1010,9 hPa 0,0 mm 17,0 km/h (3 Bft) W-NW 288 ° 0 min 0,000 mm 0,8 UV-I 98 W/m² 4,3 °C 2,5 °C 25,7 km/h (4 Bft)
15.03.2019 12:32 5,8 °C 90 % 1010,9 hPa 0,0 mm 16,6 km/h (3 Bft) W 259 ° 0 min 0,000 mm 0,9 UV-I 100 W/m² 4,3 °C 2,5 °C 20,9 km/h (4 Bft)
15.03.2019 12:33 5,8 °C 90 % 1010,9 hPa 0,2 mm 20,4 km/h (4 Bft) W-SW 250 ° 0 min 0,000 mm 0,8 UV-I 100 W/m² 4,3 °C 2,0 °C 27,4 km/h (4 Bft)
15.03.2019 12:34 5,8 °C 90 % 1010,9 hPa 0,0 mm 18,6 km/h (3 Bft) W 273 ° 0 min 0,000 mm 0,8 UV-I 95 W/m² 4,3 °C 2,2 °C 29,0 km/h (5 Bft)
15.03.2019 12:35 5,8 °C 90 % 1010,9 hPa 0,0 mm 15,1 km/h (3 Bft) W 275 ° 0 min 0,000 mm 0,8 UV-I 97 W/m² 4,3 °C 2,7 °C 27,4 km/h (4 Bft)
15.03.2019 12:36 5,8 °C 90 % 1010,8 hPa 0,0 mm 28,3 km/h (4 Bft) W-NW 290 ° 0 min 0,000 mm 0,8 UV-I 95 W/m² 4,3 °C 1,2 °C 43,5 km/h (6 Bft)
15.03.2019 12:37 5,8 °C 90 % 1010,8 hPa 0,0 mm 21,7 km/h (4 Bft) W 271 ° 0 min 0,000 mm 0,8 UV-I 98 W/m² 4,3 °C 1,9 °C 33,8 km/h (5 Bft)
15.03.2019 12:38 5,8 °C 90 % 1010,9 hPa 0,0 mm 22,0 km/h (4 Bft) W 262 ° 0 min 0,000 mm 0,8 UV-I 100 W/m² 4,3 °C 1,9 °C 32,2 km/h (5 Bft)
15.03.2019 12:39 5,8 °C 90 % 1010,8 hPa 0,0 mm 26,6 km/h (4 Bft) W 270 ° 0 min 0,000 mm 0,8 UV-I 98 W/m² 4,3 °C 1,4 °C 30,6 km/h (5 Bft)
15.03.2019 12:40 5,9 °C 90 % 1010,8 hPa 0,0 mm 20,0 km/h (4 Bft) W-NW 292 ° 0 min 0,000 mm 0,9 UV-I 105 W/m² 4,4 °C 2,2 °C 29,0 km/h (5 Bft)
15.03.2019 12:41 5,9 °C 90 % 1010,8 hPa 0,0 mm 12,7 km/h (3 Bft) W 270 ° 0 min 0,000 mm 0,9 UV-I 105 W/m² 4,4 °C 3,2 °C 19,3 km/h (3 Bft)
15.03.2019 12:42 5,9 °C 90 % 1010,8 hPa 0,2 mm 23,4 km/h (4 Bft) W 275 ° 0 min 0,000 mm 0,9 UV-I 109 W/m² 4,4 °C 1,8 °C 35,4 km/h (5 Bft)
15.03.2019 12:43 5,9 °C 90 % 1010,7 hPa 0,0 mm 19,8 km/h (3 Bft) W 260 ° 0 min 0,000 mm 0,9 UV-I 102 W/m² 4,4 °C 2,2 °C 30,6 km/h (5 Bft)
15.03.2019 12:44 5,9 °C 90 % 1010,9 hPa 0,0 mm 19,1 km/h (3 Bft) SW 215 ° 0 min 0,000 mm 0,8 UV-I 98 W/m² 4,4 °C 2,3 °C 29,0 km/h (5 Bft)
15.03.2019 12:45 5,9 °C 90 % 1010,9 hPa 0,0 mm 17,4 km/h (3 Bft) W 277 ° 0 min 0,000 mm 0,8 UV-I 97 W/m² 4,4 °C 2,5 °C 30,6 km/h (5 Bft)
15.03.2019 12:46 5,9 °C 90 % 1010,9 hPa 0,0 mm 25,3 km/h (4 Bft) W 261 ° 0 min 0,000 mm 0,8 UV-I 97 W/m² 4,4 °C 1,6 °C 35,4 km/h (5 Bft)
15.03.2019 12:47 5,9 °C 90 % 1010,8 hPa 0,0 mm 21,2 km/h (4 Bft) W-SW 251 ° 0 min 0,000 mm 0,8 UV-I 93 W/m² 4,4 °C 2,1 °C 27,4 km/h (4 Bft)
15.03.2019 12:48 5,9 °C 90 % 1010,9 hPa 0,0 mm 20,9 km/h (4 Bft) W-NW 286 ° 0 min 0,000 mm 0,8 UV-I 93 W/m² 4,4 °C 2,1 °C 29,0 km/h (5 Bft)
15.03.2019 12:49 6,0 °C 90 % 1010,8 hPa 0,2 mm 20,7 km/h (4 Bft) W-NW 288 ° 0 min 0,000 mm 0,8 UV-I 97 W/m² 4,5 °C 2,2 °C 27,4 km/h (4 Bft)
15.03.2019 12:50 5,9 °C 90 % 1010,8 hPa 0,0 mm 17,5 km/h (3 Bft) W 271 ° 0 min 0,000 mm 0,8 UV-I 97 W/m² 4,4 °C 2,5 °C 24,1 km/h (4 Bft)
15.03.2019 12:51 5,9 °C 90 % 1010,8 hPa 0,0 mm 22,7 km/h (4 Bft) W-SW 239 ° 0 min 0,000 mm 0,8 UV-I 104 W/m² 4,4 °C 1,9 °C 30,6 km/h (5 Bft)
15.03.2019 12:52 6,0 °C 90 % 1010,8 hPa 0,0 mm 16,4 km/h (3 Bft) W-SW 257 ° 0 min 0,000 mm 0,8 UV-I 102 W/m² 4,5 °C 2,8 °C 22,5 km/h (4 Bft)
15.03.2019 12:53 6,0 °C 90 % 1010,9 hPa 0,0 mm 15,4 km/h (3 Bft) W 278 ° 0 min 0,000 mm 0,8 UV-I 102 W/m² 4,5 °C 2,9 °C 24,1 km/h (4 Bft)
15.03.2019 12:54 6,1 °C 90 % 1010,9 hPa 0,0 mm 27,2 km/h (4 Bft) W 261 ° 0 min 0,000 mm 0,8 UV-I 100 W/m² 4,6 °C 1,7 °C 35,4 km/h (5 Bft)
15.03.2019 12:55 6,0 °C 90 % 1010,9 hPa 0,0 mm 22,7 km/h (4 Bft) W-SW 255 ° 0 min 0,000 mm 0,8 UV-I 93 W/m² 4,5 °C 2,0 °C 35,4 km/h (5 Bft)
15.03.2019 12:56 6,1 °C 89 % 1010,9 hPa 0,0 mm 18,1 km/h (3 Bft) W 265 ° 0 min 0,000 mm 0,8 UV-I 97 W/m² 4,4 °C 2,7 °C 22,5 km/h (4 Bft)
15.03.2019 12:57 6,1 °C 90 % 1011,0 hPa 0,0 mm 20,1 km/h (4 Bft) S-SW 211 ° 0 min 0,000 mm 0,8 UV-I 93 W/m² 4,6 °C 2,4 °C 32,2 km/h (5 Bft)
15.03.2019 12:58 6,1 °C 90 % 1011,0 hPa 0,2 mm 21,3 km/h (4 Bft) W 261 ° 0 min 0,000 mm 0,8 UV-I 91 W/m² 4,6 °C 2,3 °C 30,6 km/h (5 Bft)
15.03.2019 12:59 6,1 °C 90 % 1011,0 hPa 0,0 mm 22,7 km/h (4 Bft) W-NW 290 ° 0 min 0,000 mm 0,8 UV-I 90 W/m² 4,6 °C 2,2 °C 41,8 km/h (6 Bft)
15.03.2019 13:00 6,1 °C 90 % 1010,9 hPa 0,0 mm 18,0 km/h (3 Bft) W 268 ° 0 min 0,000 mm 0,7 UV-I 81 W/m² 4,6 °C 2,7 °C 24,1 km/h (4 Bft)
15.03.2019 13:01 6,1 °C 90 % 1011,1 hPa 0,0 mm 19,4 km/h (3 Bft) W-SW 246 ° 0 min 0,051 mm 0,7 UV-I 79 W/m² 4,6 °C 2,5 °C 32,2 km/h (5 Bft)
15.03.2019 13:02 6,0 °C 90 % 1011,0 hPa 0,0 mm 15,1 km/h (3 Bft) W 266 ° 0 min 0,000 mm 0,6 UV-I 77 W/m² 4,5 °C 3,0 °C 25,7 km/h (4 Bft)
15.03.2019 13:03 6,0 °C 90 % 1011,0 hPa 0,0 mm 18,8 km/h (3 Bft) W 277 ° 0 min 0,000 mm 0,7 UV-I 81 W/m² 4,5 °C 2,5 °C 24,1 km/h (4 Bft)
15.03.2019 13:04 6,0 °C 90 % 1011,0 hPa 0,2 mm 17,3 km/h (3 Bft) W-SW 239 ° 0 min 0,000 mm 0,7 UV-I 83 W/m² 4,5 °C 2,7 °C 24,1 km/h (4 Bft)
15.03.2019 13:05 6,0 °C 90 % 1011,0 hPa 0,0 mm 17,2 km/h (3 Bft) W-NW 285 ° 0 min 0,000 mm 0,7 UV-I 81 W/m² 4,5 °C 2,7 °C 27,4 km/h (4 Bft)
15.03.2019 13:06 6,0 °C 90 % 1011,0 hPa 0,0 mm 16,4 km/h (3 Bft) W-SW 256 ° 0 min 0,000 mm 0,7 UV-I 84 W/m² 4,5 °C 2,8 °C 25,7 km/h (4 Bft)
15.03.2019 13:07 6,0 °C 90 % 1011,0 hPa 0,0 mm 18,8 km/h (3 Bft) W-SW 248 ° 0 min 0,000 mm 0,7 UV-I 86 W/m² 4,5 °C 2,5 °C 32,2 km/h (5 Bft)
15.03.2019 13:08 5,9 °C 90 % 1011,1 hPa 0,0 mm 18,6 km/h (3 Bft) W-SW 257 ° 0 min 0,000 mm 0,7 UV-I 88 W/m² 4,4 °C 2,4 °C 35,4 km/h (5 Bft)
15.03.2019 13:09 5,9 °C 90 % 1011,1 hPa 0,0 mm 29,7 km/h (5 Bft) NW 306 ° 0 min 0,000 mm 0,7 UV-I 90 W/m² 4,4 °C 1,3 °C 46,7 km/h (6 Bft)
15.03.2019 13:10 5,9 °C 90 % 1011,0 hPa 0,0 mm 18,8 km/h (3 Bft) W-SW 256 ° 0 min 0,000 mm 0,7 UV-I 90 W/m² 4,4 °C 2,3 °C 29,0 km/h (5 Bft)
15.03.2019 13:11 5,9 °C 90 % 1011,0 hPa 0,2 mm 23,4 km/h (4 Bft) W 264 ° 0 min 0,000 mm 0,8 UV-I 93 W/m² 4,4 °C 1,8 °C 33,8 km/h (5 Bft)
15.03.2019 13:12 6,0 °C 90 % 1010,9 hPa 0,0 mm 16,8 km/h (3 Bft) W-SW 248 ° 0 min 0,000 mm 0,8 UV-I 93 W/m² 4,5 °C 2,7 °C 22,5 km/h (4 Bft)
15.03.2019 13:13 6,0 °C 90 % 1010,9 hPa 0,0 mm 19,2 km/h (3 Bft) W 260 ° 0 min 0,000 mm 0,8 UV-I 95 W/m² 4,5 °C 2,4 °C 27,4 km/h (4 Bft)
15.03.2019 13:14 6,0 °C 90 % 1010,9 hPa 0,0 mm 22,8 km/h (4 Bft) W 275 ° 0 min 0,000 mm 0,8 UV-I 95 W/m² 4,5 °C 2,0 °C 29,0 km/h (5 Bft)
15.03.2019 13:15 6,0 °C 90 % 1011,0 hPa 0,0 mm 18,7 km/h (3 Bft) W 277 ° 0 min 0,000 mm 0,8 UV-I 100 W/m² 4,5 °C 2,5 °C 25,7 km/h (4 Bft)
15.03.2019 13:16 5,9 °C 90 % 1011,0 hPa 0,2 mm 21,7 km/h (4 Bft) W 263 ° 0 min 0,000 mm 0,8 UV-I 98 W/m² 4,4 °C 2,0 °C 35,4 km/h (5 Bft)
15.03.2019 13:17 5,9 °C 90 % 1010,9 hPa 0,0 mm 17,1 km/h (3 Bft) W-NW 288 ° 0 min 0,000 mm 0,8 UV-I 97 W/m² 4,4 °C 2,6 °C 22,5 km/h (4 Bft)
15.03.2019 13:18 5,9 °C 90 % 1011,0 hPa 0,0 mm 18,8 km/h (3 Bft) W-SW 257 ° 0 min 0,000 mm 0,8 UV-I 97 W/m² 4,4 °C 2,3 °C 27,4 km/h (4 Bft)
15.03.2019 13:19 6,0 °C 90 % 1011,0 hPa 0,0 mm 17,8 km/h (3 Bft) W 277 ° 0 min 0,000 mm 0,8 UV-I 98 W/m² 4,5 °C 2,6 °C 24,1 km/h (4 Bft)
15.03.2019 13:20 6,0 °C 90 % 1010,9 hPa 0,0 mm 16,7 km/h (3 Bft) W-SW 249 ° 0 min 0,000 mm 0,8 UV-I 100 W/m² 4,5 °C 2,7 °C 24,1 km/h (4 Bft)
15.03.2019 13:21 6,0 °C 90 % 1010,9 hPa 0,0 mm 23,3 km/h (4 Bft) W-NW 300 ° 0 min 0,000 mm 0,8 UV-I 100 W/m² 4,5 °C 2,0 °C 30,6 km/h (5 Bft)
15.03.2019 13:22 6,0 °C 90 % 1010,9 hPa 0,0 mm 14,3 km/h (3 Bft) NW 313 ° 0 min 0,000 mm 0,9 UV-I 107 W/m² 4,5 °C 3,1 °C 22,5 km/h (4 Bft)
15.03.2019 13:23 6,0 °C 90 % 1010,9 hPa 0,2 mm 16,6 km/h (3 Bft) W 267 ° 0 min 0,000 mm 0,8 UV-I 105 W/m² 4,5 °C 2,8 °C 29,0 km/h (5 Bft)
15.03.2019 13:24 6,0 °C 90 % 1010,8 hPa 0,0 mm 19,8 km/h (3 Bft) W 267 ° 0 min 0,000 mm 0,8 UV-I 102 W/m² 4,5 °C 2,4 °C 25,7 km/h (4 Bft)
15.03.2019 13:25 6,0 °C 90 % 1010,8 hPa 0,0 mm 22,3 km/h (4 Bft) W 267 ° 0 min 0,000 mm 0,8 UV-I 98 W/m² 4,5 °C 2,1 °C 32,2 km/h (5 Bft)
15.03.2019 13:26 5,9 °C 90 % 1010,9 hPa 0,0 mm 16,7 km/h (3 Bft) W 264 ° 0 min 0,000 mm 0,8 UV-I 98 W/m² 4,4 °C 2,6 °C 22,5 km/h (4 Bft)
15.03.2019 13:27 6,0 °C 90 % 1010,9 hPa 0,0 mm 15,8 km/h (3 Bft) W 263 ° 0 min 0,000 mm 0,8 UV-I 95 W/m² 4,5 °C 2,9 °C 24,1 km/h (4 Bft)
15.03.2019 13:28 6,0 °C 90 % 1010,9 hPa 0,0 mm 19,0 km/h (3 Bft) W 259 ° 0 min 0,000 mm 0,8 UV-I 95 W/m² 4,5 °C 2,4 °C 27,4 km/h (4 Bft)
15.03.2019 13:29 6,0 °C 90 % 1010,9 hPa 0,0 mm 26,7 km/h (4 Bft) W-SW 250 ° 0 min 0,000 mm 0,7 UV-I 91 W/m² 4,5 °C 1,6 °C 35,4 km/h (5 Bft)
15.03.2019 13:30 6,0 °C 90 % 1010,9 hPa 0,2 mm 18,9 km/h (3 Bft) W-SW 248 ° 0 min 0,000 mm 0,7 UV-I 90 W/m² 4,5 °C 2,5 °C 24,1 km/h (4 Bft)
15.03.2019 13:31 6,0 °C 90 % 1010,8 hPa 0,0 mm 18,6 km/h (3 Bft) W 263 ° 0 min 0,000 mm 0,7 UV-I 91 W/m² 4,5 °C 2,5 °C 27,4 km/h (4 Bft)
15.03.2019 13:32 6,1 °C 90 % 1010,8 hPa 0,0 mm 19,8 km/h (3 Bft) W-SW 258 ° 0 min 0,000 mm 0,7 UV-I 93 W/m² 4,6 °C 2,5 °C 27,4 km/h (4 Bft)
15.03.2019 13:33 6,1 °C 90 % 1010,9 hPa 0,0 mm 19,1 km/h (3 Bft) W 270 ° 0 min 0,000 mm 0,7 UV-I 91 W/m² 4,6 °C 2,6 °C 24,1 km/h (4 Bft)
15.03.2019 13:34 6,1 °C 90 % 1010,8 hPa 0,0 mm 16,3 km/h (3 Bft) W 265 ° 0 min 0,000 mm 0,7 UV-I 93 W/m² 4,6 °C 2,9 °C 22,5 km/h (4 Bft)
15.03.2019 13:35 6,1 °C 90 % 1011,0 hPa 0,0 mm 17,2 km/h (3 Bft) W-SW 257 ° 0 min 0,000 mm 0,7 UV-I 86 W/m² 4,6 °C 2,8 °C 25,7 km/h (4 Bft)
15.03.2019 13:36 6,1 °C 90 % 1010,9 hPa 0,0 mm 19,6 km/h (3 Bft) W-NW 282 ° 0 min 0,000 mm 0,7 UV-I 86 W/m² 4,6 °C 2,5 °C 27,4 km/h (4 Bft)
15.03.2019 13:37 6,1 °C 90 % 1010,9 hPa 0,2 mm 23,3 km/h (4 Bft) W 275 ° 0 min 0,000 mm 0,7 UV-I 84 W/m² 4,6 °C 2,1 °C 30,6 km/h (5 Bft)
15.03.2019 13:38 6,1 °C 90 % 1010,9 hPa 0,0 mm 12,3 km/h (3 Bft) W-SW 253 ° 0 min 0,000 mm 0,7 UV-I 86 W/m² 4,6 °C 3,5 °C 17,7 km/h (3 Bft)
15.03.2019 13:39 6,1 °C 90 % 1011,0 hPa 0,0 mm 18,0 km/h (3 Bft) W 260 ° 0 min 0,000 mm 0,7 UV-I 86 W/m² 4,6 °C 2,7 °C 25,7 km/h (4 Bft)
15.03.2019 13:40 6,1 °C 90 % 1010,9 hPa 0,0 mm 23,6 km/h (4 Bft) W-SW 250 ° 0 min 0,000 mm 0,7 UV-I 88 W/m² 4,6 °C 2,1 °C 32,2 km/h (5 Bft)
15.03.2019 13:41 6,1 °C 90 % 1010,9 hPa 0,0 mm 19,6 km/h (3 Bft) W 275 ° 0 min 0,000 mm 0,7 UV-I 86 W/m² 4,6 °C 2,5 °C 24,1 km/h (4 Bft)
15.03.2019 13:42 6,1 °C 90 % 1010,9 hPa 0,0 mm 17,4 km/h (3 Bft) W-NW 295 ° 0 min 0,000 mm 0,7 UV-I 83 W/m² 4,6 °C 2,8 °C 22,5 km/h (4 Bft)
15.03.2019 13:43 6,1 °C 90 % 1011,0 hPa 0,2 mm 20,9 km/h (4 Bft) W-SW 252 ° 0 min 0,000 mm 0,7 UV-I 83 W/m² 4,6 °C 2,4 °C 29,0 km/h (5 Bft)
15.03.2019 13:44 6,1 °C 90 % 1011,0 hPa 0,0 mm 24,8 km/h (4 Bft) W-SW 255 ° 0 min 0,000 mm 0,7 UV-I 81 W/m² 4,6 °C 1,9 °C 37,0 km/h (5 Bft)
15.03.2019 13:45 6,1 °C 90 % 1011,0 hPa 0,0 mm 15,5 km/h (3 Bft) W-NW 294 ° 0 min 0,000 mm 0,6 UV-I 79 W/m² 4,6 °C 3,0 °C 25,7 km/h (4 Bft)
15.03.2019 13:46 6,1 °C 90 % 1010,9 hPa 0,0 mm 17,3 km/h (3 Bft) W-NW 282 ° 0 min 0,000 mm 0,6 UV-I 79 W/m² 4,6 °C 2,8 °C 24,1 km/h (4 Bft)
15.03.2019 13:47 6,1 °C 90 % 1011,0 hPa 0,0 mm 20,9 km/h (4 Bft) W-NW 300 ° 0 min 0,000 mm 0,7 UV-I 83 W/m² 4,6 °C 2,4 °C 30,6 km/h (5 Bft)
15.03.2019 13:48 6,1 °C 90 % 1010,9 hPa 0,0 mm 19,6 km/h (3 Bft) W-NW 290 ° 0 min 0,000 mm 0,7 UV-I 88 W/m² 4,6 °C 2,5 °C 27,4 km/h (4 Bft)
15.03.2019 13:49 6,1 °C 90 % 1010,9 hPa 0,0 mm 17,4 km/h (3 Bft) W-SW 243 ° 0 min 0,000 mm 0,7 UV-I 88 W/m² 4,6 °C 2,8 °C 22,5 km/h (4 Bft)
15.03.2019 13:50 6,1 °C 90 % 1010,9 hPa 0,0 mm 23,0 km/h (4 Bft) W 271 ° 0 min 0,000 mm 0,7 UV-I 88 W/m² 4,6 °C 2,1 °C 32,2 km/h (5 Bft)
15.03.2019 13:51 6,1 °C 90 % 1010,9 hPa 0,2 mm 19,2 km/h (3 Bft) W-NW 283 ° 0 min 0,000 mm 0,7 UV-I 88 W/m² 4,6 °C 2,5 °C 27,4 km/h (4 Bft)
15.03.2019 13:52 6,1 °C 90 % 1010,9 hPa 0,0 mm 18,9 km/h (3 Bft) W-NW 296 ° 0 min 0,000 mm 0,7 UV-I 90 W/m² 4,6 °C 2,6 °C 24,1 km/h (4 Bft)
15.03.2019 13:53 6,1 °C 90 % 1010,9 hPa 0,0 mm 15,4 km/h (3 Bft) SW 234 ° 0 min 0,000 mm 0,7 UV-I 90 W/m² 4,6 °C 3,0 °C 27,4 km/h (4 Bft)
15.03.2019 13:54 6,1 °C 90 % 1010,9 hPa 0,0 mm 20,7 km/h (4 Bft) W 277 ° 0 min 0,000 mm 0,7 UV-I 91 W/m² 4,6 °C 2,4 °C 29,0 km/h (5 Bft)
15.03.2019 13:55 6,1 °C 90 % 1010,9 hPa 0,0 mm 19,7 km/h (3 Bft) W 279 ° 0 min 0,000 mm 0,7 UV-I 91 W/m² 4,6 °C 2,5 °C 25,7 km/h (4 Bft)
15.03.2019 13:56 6,1 °C 90 % 1010,9 hPa 0,0 mm 19,7 km/h (3 Bft) W-NW 291 ° 0 min 0,000 mm 0,7 UV-I 93 W/m² 4,6 °C 2,5 °C 29,0 km/h (5 Bft)
15.03.2019 13:57 6,1 °C 90 % 1011,0 hPa 0,0 mm 24,2 km/h (4 Bft) W-SW 252 ° 0 min 0,000 mm 0,8 UV-I 104 W/m² 4,6 °C 2,0 °C 30,6 km/h (5 Bft)
15.03.2019 13:58 6,1 °C 90 % 1010,9 hPa 0,2 mm 18,8 km/h (3 Bft) W-SW 256 ° 0 min 0,000 mm 0,8 UV-I 102 W/m² 4,6 °C 2,6 °C 27,4 km/h (4 Bft)
15.03.2019 13:59 6,2 °C 90 % 1010,9 hPa 0,0 mm 13,7 km/h (3 Bft) W 259 ° 0 min 0,000 mm 0,8 UV-I 105 W/m² 4,7 °C 3,4 °C 20,9 km/h (4 Bft)
15.03.2019 14:00 6,1 °C 90 % 1010,9 hPa 0,0 mm 18,8 km/h (3 Bft) W 279 ° 0 min 0,000 mm 0,8 UV-I 105 W/m² 4,6 °C 2,6 °C 38,6 km/h (5 Bft)
15.03.2019 14:01 6,2 °C 90 % 1010,8 hPa 0,0 mm 24,8 km/h (4 Bft) W 264 ° 0 min 0,050 mm 0,8 UV-I 104 W/m² 4,7 °C 2,1 °C 30,6 km/h (5 Bft)
15.03.2019 14:02 6,2 °C 90 % 1010,9 hPa 0,0 mm 21,2 km/h (4 Bft) W 261 ° 0 min 0,000 mm 0,8 UV-I 105 W/m² 4,7 °C 2,4 °C 25,7 km/h (4 Bft)
15.03.2019 14:03 6,2 °C 90 % 1011,0 hPa 0,0 mm 20,3 km/h (4 Bft) W 271 ° 0 min 0,000 mm 0,8 UV-I 100 W/m² 4,7 °C 2,5 °C 30,6 km/h (5 Bft)
15.03.2019 14:04 6,2 °C 90 % 1010,9 hPa 0,0 mm 19,4 km/h (3 Bft) W 266 ° 0 min 0,000 mm 0,8 UV-I 100 W/m² 4,7 °C 2,7 °C 29,0 km/h (5 Bft)
15.03.2019 14:05 6,2 °C 90 % 1011,0 hPa 0,0 mm 19,0 km/h (3 Bft) W 274 ° 0 min 0,000 mm 0,8 UV-I 98 W/m² 4,7 °C 2,7 °C 25,7 km/h (4 Bft)
15.03.2019 14:06 6,2 °C 90 % 1010,9 hPa 0,0 mm 18,2 km/h (3 Bft) W-NW 288 ° 0 min 0,000 mm 0,7 UV-I 93 W/m² 4,7 °C 2,8 °C 24,1 km/h (4 Bft)
15.03.2019 14:07 6,2 °C 90 % 1010,9 hPa 0,0 mm 18,9 km/h (3 Bft) W 261 ° 0 min 0,000 mm 0,7 UV-I 91 W/m² 4,7 °C 2,7 °C 25,7 km/h (4 Bft)
15.03.2019 14:08 6,2 °C 90 % 1010,9 hPa 0,2 mm 20,7 km/h (4 Bft) W 270 ° 0 min 0,000 mm 0,7 UV-I 86 W/m² 4,7 °C 2,5 °C 32,2 km/h (5 Bft)
15.03.2019 14:09 6,2 °C 90 % 1011,0 hPa 0,0 mm 21,4 km/h (4 Bft) W-SW 257 ° 0 min 0,000 mm 0,7 UV-I 86 W/m² 4,7 °C 2,4 °C 33,8 km/h (5 Bft)
15.03.2019 14:10 6,2 °C 90 % 1010,9 hPa 0,0 mm 18,3 km/h (3 Bft) W 270 ° 0 min 0,000 mm 0,7 UV-I 84 W/m² 4,7 °C 2,8 °C 24,1 km/h (4 Bft)
15.03.2019 14:11 6,2 °C 89 % 1011,0 hPa 0,0 mm 23,8 km/h (4 Bft) W 272 ° 0 min 0,000 mm 0,7 UV-I 84 W/m² 4,5 °C 2,2 °C 32,2 km/h (5 Bft)
15.03.2019 14:12 6,2 °C 89 % 1010,9 hPa 0,0 mm 17,3 km/h (3 Bft) W 266 ° 0 min 0,000 mm 0,6 UV-I 83 W/m² 4,5 °C 2,9 °C 25,7 km/h (4 Bft)
15.03.2019 14:13 6,2 °C 89 % 1011,0 hPa 0,0 mm 16,9 km/h (3 Bft) W 261 ° 0 min 0,000 mm 0,7 UV-I 84 W/m² 4,5 °C 3,0 °C 27,4 km/h (4 Bft)
15.03.2019 14:14 6,2 °C 89 % 1011,0 hPa 0,0 mm 15,6 km/h (3 Bft) W 274 ° 0 min 0,000 mm 0,7 UV-I 86 W/m² 4,5 °C 3,1 °C 22,5 km/h (4 Bft)
15.03.2019 14:15 6,2 °C 89 % 1011,0 hPa 0,0 mm 17,5 km/h (3 Bft) W 263 ° 0 min 0,000 mm 0,6 UV-I 83 W/m² 4,5 °C 2,9 °C 25,7 km/h (4 Bft)
15.03.2019 14:16 6,2 °C 89 % 1011,0 hPa 0,0 mm 18,2 km/h (3 Bft) W-SW 252 ° 0 min 0,000 mm 0,7 UV-I 86 W/m² 4,5 °C 2,8 °C 25,7 km/h (4 Bft)
15.03.2019 14:17 6,2 °C 89 % 1011,1 hPa 0,2 mm 22,6 km/h (4 Bft) W 276 ° 0 min 0,000 mm 0,6 UV-I 83 W/m² 4,5 °C 2,3 °C 27,4 km/h (4 Bft)
15.03.2019 14:18 6,2 °C 89 % 1011,0 hPa 0,0 mm 21,1 km/h (4 Bft) W 262 ° 0 min 0,000 mm 0,7 UV-I 84 W/m² 4,5 °C 2,5 °C 29,0 km/h (5 Bft)
15.03.2019 14:19 6,2 °C 89 % 1011,0 hPa 0,0 mm 19,0 km/h (3 Bft) W-SW 246 ° 0 min 0,000 mm 0,7 UV-I 86 W/m² 4,5 °C 2,7 °C 27,4 km/h (4 Bft)
15.03.2019 14:20 6,2 °C 89 % 1011,0 hPa 0,0 mm 18,5 km/h (3 Bft) W-SW 250 ° 0 min 0,000 mm 0,6 UV-I 79 W/m² 4,5 °C 2,8 °C 24,1 km/h (4 Bft)
15.03.2019 14:21 6,2 °C 89 % 1011,0 hPa 0,0 mm 18,2 km/h (3 Bft) W-SW 250 ° 0 min 0,000 mm 0,6 UV-I 74 W/m² 4,5 °C 2,8 °C 24,1 km/h (4 Bft)
15.03.2019 14:22 6,2 °C 89 % 1011,0 hPa 0,0 mm 20,3 km/h (4 Bft) W 269 ° 0 min 0,000 mm 0,6 UV-I 77 W/m² 4,5 °C 2,5 °C 27,4 km/h (4 Bft)
15.03.2019 14:23 6,2 °C 89 % 1010,9 hPa 0,0 mm 17,2 km/h (3 Bft) W 265 ° 0 min 0,000 mm 0,6 UV-I 76 W/m² 4,5 °C 2,9 °C 25,7 km/h (4 Bft)
15.03.2019 14:24 6,2 °C 89 % 1011,0 hPa 0,0 mm 20,0 km/h (4 Bft) W 272 ° 0 min 0,000 mm 0,6 UV-I 76 W/m² 4,5 °C 2,6 °C 27,4 km/h (4 Bft)
15.03.2019 14:25 6,2 °C 89 % 1010,9 hPa 0,0 mm 20,4 km/h (4 Bft) W-SW 254 ° 0 min 0,000 mm 0,6 UV-I 76 W/m² 4,5 °C 2,5 °C 25,7 km/h (4 Bft)
15.03.2019 14:26 6,2 °C 89 % 1010,9 hPa 0,2 mm 23,3 km/h (4 Bft) W 277 ° 0 min 0,000 mm 0,6 UV-I 76 W/m² 4,5 °C 2,2 °C 32,2 km/h (5 Bft)
15.03.2019 14:27 6,2 °C 89 % 1011,0 hPa 0,0 mm 20,9 km/h (4 Bft) SW 236 ° 0 min 0,000 mm 0,6 UV-I 74 W/m² 4,5 °C 2,5 °C 29,0 km/h (5 Bft)
15.03.2019 14:28 6,2 °C 89 % 1011,1 hPa 0,0 mm 13,9 km/h (3 Bft) W-NW 294 ° 0 min 0,000 mm 0,6 UV-I 69 W/m² 4,5 °C 3,4 °C 25,7 km/h (4 Bft)
15.03.2019 14:29 6,2 °C 89 % 1011,0 hPa 0,0 mm 14,3 km/h (3 Bft) W-SW 247 ° 0 min 0,000 mm 0,5 UV-I 67 W/m² 4,5 °C 3,3 °C 19,3 km/h (3 Bft)
15.03.2019 14:30 6,2 °C 89 % 1011,0 hPa 0,0 mm 14,8 km/h (3 Bft) W-NW 282 ° 0 min 0,000 mm 0,5 UV-I 67 W/m² 4,5 °C 3,3 °C 20,9 km/h (4 Bft)
15.03.2019 14:31 6,2 °C 89 % 1011,0 hPa 0,0 mm 13,5 km/h (3 Bft) W 265 ° 0 min 0,000 mm 0,5 UV-I 63 W/m² 4,5 °C 3,5 °C 19,3 km/h (3 Bft)
15.03.2019 14:32 6,2 °C 89 % 1011,0 hPa 0,0 mm 17,4 km/h (3 Bft) W 259 ° 0 min 0,000 mm 0,5 UV-I 62 W/m² 4,5 °C 2,9 °C 22,5 km/h (4 Bft)
15.03.2019 14:33 6,2 °C 90 % 1011,0 hPa 0,2 mm 15,8 km/h (3 Bft) W 259 ° 0 min 0,000 mm 0,5 UV-I 63 W/m² 4,7 °C 3,1 °C 20,9 km/h (4 Bft)
15.03.2019 14:34 6,2 °C 90 % 1011,0 hPa 0,0 mm 16,2 km/h (3 Bft) W 267 ° 0 min 0,000 mm 0,5 UV-I 62 W/m² 4,7 °C 3,1 °C 27,4 km/h (4 Bft)
15.03.2019 14:35 6,2 °C 90 % 1011,0 hPa 0,0 mm 18,8 km/h (3 Bft) W 259 ° 0 min 0,000 mm 0,5 UV-I 62 W/m² 4,7 °C 2,7 °C 24,1 km/h (4 Bft)
15.03.2019 14:36 6,2 °C 90 % 1011,0 hPa 0,0 mm 24,1 km/h (4 Bft) NW 314 ° 0 min 0,000 mm 0,5 UV-I 63 W/m² 4,7 °C 2,1 °C 29,0 km/h (5 Bft)
15.03.2019 14:37 6,2 °C 90 % 1011,0 hPa 0,0 mm 15,4 km/h (3 Bft) W-NW 283 ° 0 min 0,000 mm 0,5 UV-I 62 W/m² 4,7 °C 3,2 °C 22,5 km/h (4 Bft)
15.03.2019 14:38 6,2 °C 90 % 1010,9 hPa 0,0 mm 18,0 km/h (3 Bft) W 275 ° 0 min 0,000 mm 0,5 UV-I 62 W/m² 4,7 °C 2,8 °C 24,1 km/h (4 Bft)
15.03.2019 14:39 6,2 °C 90 % 1011,0 hPa 0,0 mm 22,4 km/h (4 Bft) W 281 ° 0 min 0,000 mm 0,5 UV-I 62 W/m² 4,7 °C 2,3 °C 25,7 km/h (4 Bft)
15.03.2019 14:40 6,2 °C 90 % 1011,1 hPa 0,0 mm 24,3 km/h (4 Bft) W 264 ° 0 min 0,000 mm 0,5 UV-I 65 W/m² 4,7 °C 2,1 °C 35,4 km/h (5 Bft)
15.03.2019 14:41 6,2 °C 90 % 1011,2 hPa 0,0 mm 27,6 km/h (4 Bft) W 273 ° 0 min 0,000 mm 0,5 UV-I 65 W/m² 4,7 °C 1,8 °C 41,8 km/h (6 Bft)
15.03.2019 14:42 6,2 °C 89 % 1011,0 hPa 0,2 mm 24,9 km/h (4 Bft) W 270 ° 0 min 0,000 mm 0,5 UV-I 69 W/m² 4,5 °C 2,1 °C 33,8 km/h (5 Bft)
15.03.2019 14:43 6,2 °C 89 % 1011,0 hPa 0,0 mm 22,5 km/h (4 Bft) W 274 ° 0 min 0,000 mm 0,5 UV-I 69 W/m² 4,5 °C 2,3 °C 29,0 km/h (5 Bft)
15.03.2019 14:44 6,2 °C 89 % 1011,0 hPa 0,0 mm 16,0 km/h (3 Bft) W-NW 301 ° 0 min 0,000 mm 0,5 UV-I 70 W/m² 4,5 °C 3,1 °C 19,3 km/h (3 Bft)
15.03.2019 14:45 6,2 °C 89 % 1011,0 hPa 0,0 mm 16,4 km/h (3 Bft) W-SW 257 ° 0 min 0,000 mm 0,6 UV-I 74 W/m² 4,5 °C 3,0 °C 25,7 km/h (4 Bft)
15.03.2019 14:46 6,2 °C 89 % 1011,0 hPa 0,0 mm 10,5 km/h (2 Bft) W 267 ° 0 min 0,000 mm 0,6 UV-I 74 W/m² 4,5 °C 4,0 °C 17,7 km/h (3 Bft)
15.03.2019 14:47 6,2 °C 89 % 1011,0 hPa 0,0 mm 14,7 km/h (3 Bft) W-NW 288 ° 0 min 0,000 mm 0,6 UV-I 74 W/m² 4,5 °C 3,3 °C 20,9 km/h (4 Bft)
15.03.2019 14:48 6,2 °C 90 % 1011,1 hPa 0,0 mm 11,0 km/h (2 Bft) NW 311 ° 0 min 0,000 mm 0,5 UV-I 72 W/m² 4,7 °C 3,9 °C 14,5 km/h (3 Bft)
15.03.2019 14:49 6,2 °C 90 % 1011,0 hPa 0,2 mm 13,5 km/h (3 Bft) W-SW 253 ° 0 min 0,000 mm 0,5 UV-I 72 W/m² 4,7 °C 3,5 °C 24,1 km/h (4 Bft)
15.03.2019 14:50 6,2 °C 90 % 1011,1 hPa 0,0 mm 22,2 km/h (4 Bft) W-SW 248 ° 0 min 0,000 mm 0,5 UV-I 72 W/m² 4,7 °C 2,3 °C 33,8 km/h (5 Bft)
15.03.2019 14:51 6,2 °C 90 % 1011,1 hPa 0,0 mm 15,8 km/h (3 Bft) W 272 ° 0 min 0,000 mm 0,5 UV-I 74 W/m² 4,7 °C 3,1 °C 20,9 km/h (4 Bft)
15.03.2019 14:52 6,2 °C 90 % 1011,1 hPa 0,0 mm 15,3 km/h (3 Bft) W 266 ° 0 min 0,000 mm 0,6 UV-I 74 W/m² 4,7 °C 3,2 °C 22,5 km/h (4 Bft)
15.03.2019 14:53 6,3 °C 90 % 1011,1 hPa 0,0 mm 23,0 km/h (4 Bft) W-SW 244 ° 0 min 0,000 mm 0,6 UV-I 77 W/m² 4,8 °C 2,4 °C 38,6 km/h (5 Bft)
15.03.2019 14:54 6,3 °C 90 % 1011,0 hPa 0,0 mm 21,4 km/h (4 Bft) W-NW 294 ° 0 min 0,000 mm 0,6 UV-I 77 W/m² 4,8 °C 2,6 °C 37,0 km/h (5 Bft)
15.03.2019 14:55 6,3 °C 90 % 1011,1 hPa 0,0 mm 16,0 km/h (3 Bft) W 273 ° 0 min 0,000 mm 0,6 UV-I 77 W/m² 4,8 °C 3,2 °C 22,5 km/h (4 Bft)
15.03.2019 14:56 6,3 °C 90 % 1011,1 hPa 0,0 mm 17,8 km/h (3 Bft) W-SW 248 ° 0 min 0,000 mm 0,6 UV-I 81 W/m² 4,8 °C 3,0 °C 25,7 km/h (4 Bft)
15.03.2019 14:57 6,3 °C 90 % 1011,0 hPa 0,2 mm 14,4 km/h (3 Bft) W-SW 243 ° 0 min 0,000 mm 0,6 UV-I 81 W/m² 4,8 °C 3,4 °C 20,9 km/h (4 Bft)
15.03.2019 14:58 6,3 °C 90 % 1011,1 hPa 0,0 mm 13,5 km/h (3 Bft) W 267 ° 0 min 0,000 mm 0,6 UV-I 81 W/m² 4,8 °C 3,6 °C 16,1 km/h (3 Bft)
15.03.2019 14:59 6,3 °C 90 % 1011,1 hPa 0,0 mm 20,2 km/h (4 Bft) W-SW 240 ° 0 min 0,000 mm 0,6 UV-I 81 W/m² 4,8 °C 2,7 °C 29,0 km/h (5 Bft)
15.03.2019 15:00 6,3 °C 90 % 1011,1 hPa 0,0 mm 20,9 km/h (4 Bft) W 271 ° 0 min 0,000 mm 0,6 UV-I 81 W/m² 4,8 °C 2,6 °C 29,0 km/h (5 Bft)
15.03.2019 15:01 6,3 °C 90 % 1011,0 hPa 0,0 mm 21,1 km/h (4 Bft) W 272 ° 0 min 0,051 mm 0,6 UV-I 81 W/m² 4,8 °C 2,6 °C 33,8 km/h (5 Bft)
15.03.2019 15:02 6,3 °C 89 % 1011,1 hPa 0,0 mm 23,7 km/h (4 Bft) W-SW 255 ° 0 min 0,000 mm 0,6 UV-I 83 W/m² 4,6 °C 2,3 °C 30,6 km/h (5 Bft)
15.03.2019 15:03 6,3 °C 90 % 1011,1 hPa 0,0 mm 17,6 km/h (3 Bft) W-NW 286 ° 0 min 0,000 mm 0,6 UV-I 83 W/m² 4,8 °C 3,0 °C 27,4 km/h (4 Bft)
15.03.2019 15:04 6,3 °C 90 % 1011,1 hPa 0,0 mm 23,2 km/h (4 Bft) NW 309 ° 0 min 0,000 mm 0,6 UV-I 84 W/m² 4,8 °C 2,4 °C 32,2 km/h (5 Bft)
15.03.2019 15:05 6,3 °C 90 % 1011,0 hPa 0,0 mm 13,7 km/h (3 Bft) W-NW 293 ° 0 min 0,000 mm 0,7 UV-I 90 W/m² 4,8 °C 3,5 °C 20,9 km/h (4 Bft)
15.03.2019 15:06 6,3 °C 90 % 1011,1 hPa 0,0 mm 21,5 km/h (4 Bft) W 262 ° 0 min 0,000 mm 0,6 UV-I 88 W/m² 4,8 °C 2,5 °C 35,4 km/h (5 Bft)
15.03.2019 15:07 6,4 °C 90 % 1011,1 hPa 0,2 mm 21,3 km/h (4 Bft) W-SW 246 ° 0 min 0,000 mm 0,6 UV-I 84 W/m² 4,9 °C 2,7 °C 29,0 km/h (5 Bft)
15.03.2019 15:08 6,4 °C 89 % 1011,1 hPa 0,0 mm 13,1 km/h (3 Bft) W 262 ° 0 min 0,000 mm 0,6 UV-I 88 W/m² 4,7 °C 3,8 °C 17,7 km/h (3 Bft)
15.03.2019 15:09 6,4 °C 90 % 1011,2 hPa 0,0 mm 19,4 km/h (3 Bft) W 274 ° 0 min 0,000 mm 0,6 UV-I 86 W/m² 4,9 °C 2,9 °C 27,4 km/h (4 Bft)
15.03.2019 15:10 6,4 °C 90 % 1011,2 hPa 0,0 mm 14,9 km/h (3 Bft) W 269 ° 0 min 0,000 mm 0,6 UV-I 86 W/m² 4,9 °C 3,5 °C 20,9 km/h (4 Bft)
15.03.2019 15:11 6,4 °C 90 % 1011,1 hPa 0,0 mm 19,0 km/h (3 Bft) W 259 ° 0 min 0,000 mm 0,6 UV-I 86 W/m² 4,9 °C 3,0 °C 25,7 km/h (4 Bft)
15.03.2019 15:12 6,4 °C 90 % 1011,1 hPa 0,0 mm 15,1 km/h (3 Bft) W 265 ° 0 min 0,000 mm 0,6 UV-I 84 W/m² 4,9 °C 3,5 °C 25,7 km/h (4 Bft)
15.03.2019 15:13 6,4 °C 90 % 1011,2 hPa 0,0 mm 18,0 km/h (3 Bft) W-SW 250 ° 0 min 0,000 mm 0,6 UV-I 81 W/m² 4,9 °C 3,1 °C 30,6 km/h (5 Bft)
15.03.2019 15:14 6,4 °C 89 % 1011,2 hPa 0,0 mm 18,5 km/h (3 Bft) SW 235 ° 0 min 0,000 mm 0,6 UV-I 83 W/m² 4,7 °C 3,0 °C 30,6 km/h (5 Bft)
15.03.2019 15:15 6,4 °C 89 % 1011,2 hPa 0,0 mm 11,1 km/h (2 Bft) W 266 ° 0 min 0,000 mm 0,6 UV-I 77 W/m² 4,7 °C 4,1 °C 14,5 km/h (3 Bft)
15.03.2019 15:16 6,4 °C 89 % 1011,2 hPa 0,0 mm 15,4 km/h (3 Bft) W-SW 241 ° 0 min 0,000 mm 0,6 UV-I 79 W/m² 4,7 °C 3,4 °C 19,3 km/h (3 Bft)
15.03.2019 15:17 6,4 °C 89 % 1011,2 hPa 0,0 mm 15,8 km/h (3 Bft) W 265 ° 0 min 0,000 mm 0,6 UV-I 79 W/m² 4,7 °C 3,4 °C 20,9 km/h (4 Bft)
15.03.2019 15:18 6,4 °C 90 % 1011,2 hPa 0,2 mm 17,0 km/h (3 Bft) W 273 ° 0 min 0,000 mm 0,6 UV-I 76 W/m² 4,9 °C 3,2 °C 19,3 km/h (3 Bft)
15.03.2019 15:19 6,4 °C 90 % 1011,2 hPa 0,0 mm 13,4 km/h (3 Bft) SW 217 ° 0 min 0,000 mm 0,6 UV-I 76 W/m² 4,9 °C 3,7 °C 22,5 km/h (4 Bft)
15.03.2019 15:20 6,4 °C 90 % 1011,2 hPa 0,0 mm 13,8 km/h (3 Bft) W 270 ° 0 min 0,000 mm 0,6 UV-I 76 W/m² 4,9 °C 3,7 °C 19,3 km/h (3 Bft)
15.03.2019 15:21 6,4 °C 90 % 1011,2 hPa 0,0 mm 21,2 km/h (4 Bft) W 272 ° 0 min 0,000 mm 0,6 UV-I 77 W/m² 4,9 °C 2,7 °C 27,4 km/h (4 Bft)
15.03.2019 15:22 6,4 °C 90 % 1011,2 hPa 0,0 mm 14,6 km/h (3 Bft) W 279 ° 0 min 0,000 mm 0,6 UV-I 81 W/m² 4,9 °C 3,5 °C 24,1 km/h (4 Bft)
15.03.2019 15:23 6,4 °C 90 % 1011,2 hPa 0,0 mm 17,0 km/h (3 Bft) W 264 ° 0 min 0,000 mm 0,6 UV-I 77 W/m² 4,9 °C 3,2 °C 22,5 km/h (4 Bft)
15.03.2019 15:24 6,4 °C 90 % 1011,2 hPa 0,0 mm 20,9 km/h (4 Bft) W-NW 300 ° 0 min 0,000 mm 0,5 UV-I 70 W/m² 4,9 °C 2,7 °C 29,0 km/h (5 Bft)
15.03.2019 15:25 6,4 °C 90 % 1011,2 hPa 0,2 mm 22,3 km/h (4 Bft) W-SW 254 ° 0 min 0,000 mm 0,6 UV-I 79 W/m² 4,9 °C 2,6 °C 30,6 km/h (5 Bft)
15.03.2019 15:26 6,4 °C 90 % 1011,2 hPa 0,0 mm 18,8 km/h (3 Bft) W 263 ° 0 min 0,000 mm 0,6 UV-I 79 W/m² 4,9 °C 3,0 °C 30,6 km/h (5 Bft)
15.03.2019 15:27 6,5 °C 90 % 1011,3 hPa 0,0 mm 20,3 km/h (4 Bft) W-SW 254 ° 0 min 0,000 mm 0,6 UV-I 81 W/m² 5,0 °C 2,9 °C 30,6 km/h (5 Bft)
15.03.2019 15:28 6,5 °C 89 % 1011,3 hPa 0,0 mm 19,2 km/h (3 Bft) W 261 ° 0 min 0,000 mm 0,5 UV-I 72 W/m² 4,8 °C 3,1 °C 30,6 km/h (5 Bft)
15.03.2019 15:29 6,5 °C 89 % 1011,2 hPa 0,0 mm 21,3 km/h (4 Bft) W 276 ° 0 min 0,000 mm 0,6 UV-I 76 W/m² 4,8 °C 2,8 °C 35,4 km/h (5 Bft)
15.03.2019 15:30 6,5 °C 89 % 1011,2 hPa 0,0 mm 21,7 km/h (4 Bft) W 265 ° 0 min 0,000 mm 0,6 UV-I 76 W/m² 4,8 °C 2,8 °C 38,6 km/h (5 Bft)
15.03.2019 15:31 6,5 °C 89 % 1011,2 hPa 0,0 mm 20,4 km/h (4 Bft) W 269 ° 0 min 0,000 mm 0,6 UV-I 76 W/m² 4,8 °C 2,9 °C 37,0 km/h (5 Bft)
15.03.2019 15:32 6,6 °C 89 % 1011,3 hPa 0,0 mm 20,2 km/h (4 Bft) W 259 ° 0 min 0,000 mm 0,5 UV-I 72 W/m² 4,9 °C 3,1 °C 27,4 km/h (4 Bft)
15.03.2019 15:33 6,5 °C 89 % 1011,2 hPa 0,0 mm 15,7 km/h (3 Bft) NW 312 ° 0 min 0,000 mm 0,5 UV-I 67 W/m² 4,8 °C 3,5 °C 20,9 km/h (4 Bft)
15.03.2019 15:34 6,6 °C 89 % 1011,3 hPa 0,0 mm 15,9 km/h (3 Bft) W-SW 244 ° 0 min 0,000 mm 0,5 UV-I 65 W/m² 4,9 °C 3,6 °C 20,9 km/h (4 Bft)
15.03.2019 15:35 6,6 °C 89 % 1011,3 hPa 0,0 mm 14,6 km/h (3 Bft) W 268 ° 0 min 0,000 mm 0,5 UV-I 65 W/m² 4,9 °C 3,8 °C 19,3 km/h (3 Bft)
15.03.2019 15:36 6,5 °C 90 % 1011,4 hPa 0,0 mm 18,8 km/h (3 Bft) W 281 ° 0 min 0,000 mm 0,0 UV-I 60 W/m² 5,0 °C 3,1 °C 35,4 km/h (5 Bft)
15.03.2019 15:37 6,5 °C 90 % 1011,2 hPa 0,0 mm 20,2 km/h (4 Bft) W-SW 257 ° 0 min 0,000 mm 0,0 UV-I 56 W/m² 5,0 °C 2,9 °C 27,4 km/h (4 Bft)
15.03.2019 15:38 6,6 °C 90 % 1011,3 hPa 0,0 mm 12,6 km/h (3 Bft) W 270 ° 0 min 0,000 mm 0,0 UV-I 56 W/m² 5,1 °C 4,1 °C 17,7 km/h (3 Bft)
15.03.2019 15:39 6,5 °C 90 % 1011,4 hPa 0,2 mm 19,6 km/h (3 Bft) W-NW 296 ° 0 min 0,000 mm 0,0 UV-I 58 W/m² 5,0 °C 3,0 °C 33,8 km/h (5 Bft)
15.03.2019 15:40 6,6 °C 90 % 1011,3 hPa 0,0 mm 18,6 km/h (3 Bft) W-SW 257 ° 0 min 0,000 mm 0,0 UV-I 60 W/m² 5,1 °C 3,2 °C 24,1 km/h (4 Bft)
15.03.2019 15:41 6,5 °C 90 % 1011,3 hPa 0,0 mm 19,7 km/h (3 Bft) W-SW 256 ° 0 min 0,000 mm 0,5 UV-I 62 W/m² 5,0 °C 3,0 °C 30,6 km/h (5 Bft)
15.03.2019 15:42 6,5 °C 89 % 1011,3 hPa 0,0 mm 18,5 km/h (3 Bft) W-SW 257 ° 0 min 0,000 mm 0,0 UV-I 56 W/m² 4,8 °C 3,1 °C 24,1 km/h (4 Bft)
15.03.2019 15:43 6,6 °C 90 % 1011,3 hPa 0,0 mm 16,3 km/h (3 Bft) W 268 ° 0 min 0,000 mm 0,0 UV-I 53 W/m² 5,1 °C 3,5 °C 25,7 km/h (4 Bft)
15.03.2019 15:44 6,5 °C 89 % 1011,2 hPa 0,0 mm 14,6 km/h (3 Bft) W-NW 284 ° 0 min 0,000 mm 0,0 UV-I 56 W/m² 4,8 °C 3,7 °C 20,9 km/h (4 Bft)
15.03.2019 15:45 6,6 °C 90 % 1011,4 hPa 0,0 mm 15,2 km/h (3 Bft) W-NW 296 ° 0 min 0,000 mm 0,0 UV-I 53 W/m² 5,1 °C 3,7 °C 19,3 km/h (3 Bft)
15.03.2019 15:46 6,5 °C 90 % 1011,1 hPa 0,0 mm 14,4 km/h (3 Bft) SW 225 ° 0 min 0,000 mm 0,0 UV-I 46 W/m² 5,0 °C 3,7 °C 22,5 km/h (4 Bft)
15.03.2019 15:47 6,5 °C 90 % 1011,3 hPa 0,0 mm 23,3 km/h (4 Bft) W-NW 289 ° 0 min 0,000 mm 0,0 UV-I 47 W/m² 5,0 °C 2,6 °C 35,4 km/h (5 Bft)
15.03.2019 15:48 6,6 °C 90 % 1011,3 hPa 0,0 mm 24,1 km/h (4 Bft) W 265 ° 0 min 0,000 mm 0,0 UV-I 47 W/m² 5,1 °C 2,7 °C 38,6 km/h (5 Bft)
15.03.2019 15:49 6,6 °C 89 % 1011,3 hPa 0,0 mm 22,6 km/h (4 Bft) W 266 ° 0 min 0,000 mm 0,0 UV-I 44 W/m² 4,9 °C 2,8 °C 29,0 km/h (5 Bft)
15.03.2019 15:50 6,6 °C 89 % 1011,3 hPa 0,0 mm 26,2 km/h (4 Bft) NW 314 ° 0 min 0,000 mm 0,0 UV-I 46 W/m² 4,9 °C 2,5 °C 38,6 km/h (5 Bft)
15.03.2019 15:51 6,6 °C 89 % 1011,2 hPa 0,0 mm 18,5 km/h (3 Bft) W-NW 288 ° 0 min 0,000 mm 0,0 UV-I 44 W/m² 4,9 °C 3,3 °C 22,5 km/h (4 Bft)
15.03.2019 15:52 6,6 °C 89 % 1011,3 hPa 0,0 mm 15,4 km/h (3 Bft) SW 236 ° 0 min 0,000 mm 0,0 UV-I 42 W/m² 4,9 °C 3,7 °C 24,1 km/h (4 Bft)
15.03.2019 15:53 6,7 °C 89 % 1011,4 hPa 0,0 mm 20,1 km/h (4 Bft) W 263 ° 0 min 0,000 mm 0,0 UV-I 44 W/m² 5,0 °C 3,2 °C 29,0 km/h (5 Bft)
15.03.2019 15:54 6,7 °C 89 % 1011,4 hPa 0,0 mm 16,9 km/h (3 Bft) W 275 ° 0 min 0,000 mm 0,0 UV-I 42 W/m² 5,0 °C 3,6 °C 24,1 km/h (4 Bft)
15.03.2019 15:55 6,7 °C 89 % 1011,3 hPa 0,0 mm 22,5 km/h (4 Bft) W 274 ° 0 min 0,000 mm 0,0 UV-I 42 W/m² 5,0 °C 2,9 °C 29,0 km/h (5 Bft)
15.03.2019 15:56 6,7 °C 89 % 1011,3 hPa 0,0 mm 19,6 km/h (3 Bft) W-SW 248 ° 0 min 0,000 mm 0,0 UV-I 46 W/m² 5,0 °C 3,3 °C 29,0 km/h (5 Bft)
15.03.2019 15:57 6,7 °C 89 % 1011,4 hPa 0,0 mm 14,6 km/h (3 Bft) W-SW 249 ° 0 min 0,000 mm 0,0 UV-I 49 W/m² 5,0 °C 3,9 °C 22,5 km/h (4 Bft)
15.03.2019 15:58 6,7 °C 89 % 1011,3 hPa 0,0 mm 16,3 km/h (3 Bft) S-SW 204 ° 0 min 0,000 mm 0,0 UV-I 53 W/m² 5,0 °C 3,7 °C 30,6 km/h (5 Bft)
15.03.2019 15:59 6,8 °C 89 % 1011,3 hPa 0,0 mm 23,3 km/h (4 Bft) W-NW 290 ° 0 min 0,000 mm 0,0 UV-I 53 W/m² 5,1 °C 3,0 °C 32,2 km/h (5 Bft)
15.03.2019 16:00 6,8 °C 89 % 1011,3 hPa 0,0 mm 16,9 km/h (3 Bft) W-SW 241 ° 0 min 0,051 mm 0,0 UV-I 53 W/m² 5,1 °C 3,7 °C 24,1 km/h (4 Bft)
15.03.2019 16:01 6,8 °C 89 % 1011,4 hPa 0,0 mm 23,5 km/h (4 Bft) W 269 ° 0 min 0,000 mm 0,0 UV-I 56 W/m² 5,1 °C 3,0 °C 27,4 km/h (4 Bft)
15.03.2019 16:02 6,8 °C 89 % 1011,2 hPa 0,0 mm 21,0 km/h (4 Bft) W 273 ° 0 min 0,000 mm 0,0 UV-I 56 W/m² 5,1 °C 3,2 °C 35,4 km/h (5 Bft)
15.03.2019 16:03 6,8 °C 89 % 1011,3 hPa 0,0 mm 17,1 km/h (3 Bft) W 262 ° 0 min 0,000 mm 0,5 UV-I 67 W/m² 5,1 °C 3,7 °C 27,4 km/h (4 Bft)
15.03.2019 16:04 6,9 °C 89 % 1011,3 hPa 0,0 mm 17,1 km/h (3 Bft) W 261 ° 0 min 0,000 mm 0,0 UV-I 65 W/m² 5,2 °C 3,8 °C 27,4 km/h (4 Bft)
15.03.2019 16:05 6,9 °C 88 % 1011,3 hPa 0,0 mm 12,7 km/h (3 Bft) W 267 ° 0 min 0,000 mm 0,0 UV-I 63 W/m² 5,1 °C 4,4 °C 17,7 km/h (3 Bft)
15.03.2019 16:06 7,0 °C 88 % 1011,3 hPa 0,0 mm 12,9 km/h (3 Bft) W 263 ° 0 min 0,000 mm 0,0 UV-I 62 W/m² 5,2 °C 4,5 °C 27,4 km/h (4 Bft)
15.03.2019 16:07 7,0 °C 88 % 1011,3 hPa 0,0 mm 18,2 km/h (3 Bft) W 259 ° 0 min 0,000 mm 0,5 UV-I 65 W/m² 5,2 °C 3,8 °C 27,4 km/h (4 Bft)
15.03.2019 16:08 7,0 °C 88 % 1011,3 hPa 0,0 mm 17,1 km/h (3 Bft) W-NW 294 ° 0 min 0,000 mm 0,0 UV-I 58 W/m² 5,2 °C 3,9 °C 24,1 km/h (4 Bft)
15.03.2019 16:09 7,1 °C 88 % 1011,3 hPa 0,0 mm 16,6 km/h (3 Bft) W 262 ° 0 min 0,000 mm 0,0 UV-I 58 W/m² 5,2 °C 4,1 °C 19,3 km/h (3 Bft)
15.03.2019 16:10 7,1 °C 88 % 1011,3 hPa 0,0 mm 19,8 km/h (3 Bft) W-SW 249 ° 0 min 0,000 mm 0,0 UV-I 60 W/m² 5,2 °C 3,7 °C 30,6 km/h (5 Bft)
15.03.2019 16:11 7,1 °C 88 % 1011,2 hPa 0,0 mm 19,4 km/h (3 Bft) W-SW 243 ° 0 min 0,000 mm 0,0 UV-I 58 W/m² 5,2 °C 3,8 °C 24,1 km/h (4 Bft)
15.03.2019 16:12 7,1 °C 88 % 1011,3 hPa 0,0 mm 19,0 km/h (3 Bft) NW 308 ° 0 min 0,000 mm 0,0 UV-I 53 W/m² 5,2 °C 3,8 °C 25,7 km/h (4 Bft)
15.03.2019 16:13 7,1 °C 88 % 1011,2 hPa 0,0 mm 18,6 km/h (3 Bft) W-SW 245 ° 0 min 0,000 mm 0,0 UV-I 47 W/m² 5,2 °C 3,9 °C 25,7 km/h (4 Bft)
15.03.2019 16:14 7,1 °C 88 % 1011,2 hPa 0,0 mm 18,6 km/h (3 Bft) W 273 ° 0 min 0,000 mm 0,0 UV-I 46 W/m² 5,2 °C 3,9 °C 22,5 km/h (4 Bft)
15.03.2019 16:15 7,1 °C 88 % 1011,3 hPa 0,0 mm 22,0 km/h (4 Bft) W 279 ° 0 min 0,000 mm 0,0 UV-I 42 W/m² 5,2 °C 3,5 °C 38,6 km/h (5 Bft)
15.03.2019 16:16 7,1 °C 88 % 1011,2 hPa 0,0 mm 15,4 km/h (3 Bft) SW 225 ° 0 min 0,000 mm 0,0 UV-I 42 W/m² 5,2 °C 4,3 °C 25,7 km/h (4 Bft)
15.03.2019 16:17 7,2 °C 88 % 1011,2 hPa 0,0 mm 19,2 km/h (3 Bft) W-SW 250 ° 0 min 0,000 mm 0,0 UV-I 42 W/m² 5,3 °C 3,9 °C 27,4 km/h (4 Bft)
15.03.2019 16:18 7,2 °C 87 % 1011,3 hPa 0,0 mm 19,0 km/h (3 Bft) W-SW 253 ° 0 min 0,000 mm 0,0 UV-I 42 W/m² 5,2 °C 4,0 °C 24,1 km/h (4 Bft)
15.03.2019 16:19 7,2 °C 87 % 1011,4 hPa 0,0 mm 16,6 km/h (3 Bft) W-SW 248 ° 0 min 0,000 mm 0,0 UV-I 39 W/m² 5,2 °C 4,2 °C 25,7 km/h (4 Bft)
15.03.2019 16:20 7,2 °C 87 % 1011,3 hPa 0,0 mm 21,7 km/h (4 Bft) W-NW 300 ° 0 min 0,000 mm 0,0 UV-I 35 W/m² 5,2 °C 3,7 °C 30,6 km/h (5 Bft)
15.03.2019 16:21 7,2 °C 87 % 1011,3 hPa 0,0 mm 20,0 km/h (4 Bft) W 270 ° 0 min 0,000 mm 0,0 UV-I 33 W/m² 5,2 °C 3,8 °C 30,6 km/h (5 Bft)
15.03.2019 16:22 7,2 °C 87 % 1011,3 hPa 0,0 mm 16,6 km/h (3 Bft) W 280 ° 0 min 0,000 mm 0,0 UV-I 35 W/m² 5,2 °C 4,2 °C 24,1 km/h (4 Bft)
15.03.2019 16:23 7,2 °C 87 % 1011,4 hPa 0,0 mm 15,6 km/h (3 Bft) W-SW 255 ° 0 min 0,000 mm 0,0 UV-I 30 W/m² 5,2 °C 4,4 °C 29,0 km/h (5 Bft)
15.03.2019 16:24 7,2 °C 87 % 1011,3 hPa 0,0 mm 23,3 km/h (4 Bft) W-SW 251 ° 0 min 0,000 mm 0,0 UV-I 32 W/m² 5,2 °C 3,5 °C 32,2 km/h (5 Bft)
15.03.2019 16:25 7,3 °C 87 % 1011,3 hPa 0,0 mm 23,5 km/h (4 Bft) W 277 ° 0 min 0,000 mm 0,0 UV-I 32 W/m² 5,3 °C 3,6 °C 30,6 km/h (5 Bft)
15.03.2019 16:26 7,3 °C 87 % 1011,4 hPa 0,0 mm 19,9 km/h (4 Bft) W 260 ° 0 min 0,000 mm 0,0 UV-I 32 W/m² 5,3 °C 4,0 °C 30,6 km/h (5 Bft)
15.03.2019 16:27 7,3 °C 87 % 1011,4 hPa 0,0 mm 16,2 km/h (3 Bft) SW 225 ° 0 min 0,000 mm 0,0 UV-I 32 W/m² 5,3 °C 4,4 °C 24,1 km/h (4 Bft)
15.03.2019 16:28 7,3 °C 87 % 1011,2 hPa 0,0 mm 19,8 km/h (3 Bft) W 259 ° 0 min 0,000 mm 0,0 UV-I 30 W/m² 5,3 °C 4,0 °C 25,7 km/h (4 Bft)
15.03.2019 16:29 7,3 °C 87 % 1011,4 hPa 0,0 mm 17,0 km/h (3 Bft) W 269 ° 0 min 0,000 mm 0,0 UV-I 32 W/m² 5,3 °C 4,3 °C 22,5 km/h (4 Bft)
15.03.2019 16:30 7,3 °C 87 % 1011,3 hPa 0,0 mm 15,0 km/h (3 Bft) W-SW 256 ° 0 min 0,000 mm 0,0 UV-I 30 W/m² 5,3 °C 4,6 °C 20,9 km/h (4 Bft)
15.03.2019 16:31 7,4 °C 87 % 1011,4 hPa 0,0 mm 15,4 km/h (3 Bft) W 273 ° 0 min 0,000 mm 0,0 UV-I 26 W/m² 5,4 °C 4,7 °C 25,7 km/h (4 Bft)
15.03.2019 16:32 7,4 °C 87 % 1011,3 hPa 0,0 mm 13,3 km/h (3 Bft) SW 235 ° 0 min 0,000 mm 0,0 UV-I 28 W/m² 5,4 °C 5,0 °C 17,7 km/h (3 Bft)
15.03.2019 16:33 7,4 °C 87 % 1011,3 hPa 0,0 mm 13,3 km/h (3 Bft) W-SW 257 ° 0 min 0,000 mm 0,0 UV-I 26 W/m² 5,4 °C 5,0 °C 19,3 km/h (3 Bft)
15.03.2019 16:34 7,4 °C 87 % 1011,3 hPa 0,0 mm 14,0 km/h (3 Bft) W 264 ° 0 min 0,000 mm 0,0 UV-I 28 W/m² 5,4 °C 4,9 °C 19,3 km/h (3 Bft)
15.03.2019 16:35 7,4 °C 87 % 1011,2 hPa 0,0 mm 19,8 km/h (3 Bft) W 274 ° 0 min 0,000 mm 0,0 UV-I 35 W/m² 5,4 °C 4,1 °C 29,0 km/h (5 Bft)
15.03.2019 16:36 7,4 °C 87 % 1011,2 hPa 0,0 mm 24,5 km/h (4 Bft) W 269 ° 0 min 0,000 mm 0,0 UV-I 35 W/m² 5,4 °C 3,6 °C 46,7 km/h (6 Bft)
15.03.2019 16:37 7,4 °C 86 % 1011,2 hPa 0,0 mm 24,3 km/h (4 Bft) W 280 ° 0 min 0,000 mm 0,0 UV-I 39 W/m² 5,2 °C 3,7 °C 38,6 km/h (5 Bft)
15.03.2019 16:38 7,4 °C 86 % 1011,1 hPa 0,0 mm 16,2 km/h (3 Bft) W 267 ° 0 min 0,000 mm 0,0 UV-I 39 W/m² 5,2 °C 4,5 °C 24,1 km/h (4 Bft)
15.03.2019 16:39 7,4 °C 86 % 1011,1 hPa 0,0 mm 19,7 km/h (3 Bft) W 278 ° 0 min 0,000 mm 0,0 UV-I 42 W/m² 5,2 °C 4,1 °C 33,8 km/h (5 Bft)
15.03.2019 16:40 7,5 °C 86 % 1011,3 hPa 0,0 mm 30,6 km/h (5 Bft) W 259 ° 0 min 0,000 mm 0,0 UV-I 40 W/m² 5,3 °C 3,3 °C 56,3 km/h (7 Bft)
15.03.2019 16:41 7,6 °C 86 % 1011,2 hPa 0,0 mm 26,0 km/h (4 Bft) W-SW 249 ° 0 min 0,000 mm 0,0 UV-I 35 W/m² 5,4 °C 3,8 °C 45,1 km/h (6 Bft)
15.03.2019 16:42 7,6 °C 86 % 1011,2 hPa 0,0 mm 18,3 km/h (3 Bft) W-NW 282 ° 0 min 0,000 mm 0,0 UV-I 35 W/m² 5,4 °C 4,5 °C 33,8 km/h (5 Bft)
15.03.2019 16:43 7,7 °C 86 % 1011,3 hPa 0,0 mm 19,8 km/h (3 Bft) W 267 ° 0 min 0,000 mm 0,0 UV-I 23 W/m² 5,5 °C 4,5 °C 35,4 km/h (5 Bft)
15.03.2019 16:44 7,6 °C 85 % 1011,4 hPa 0,0 mm 21,4 km/h (4 Bft) W-SW 237 ° 0 min 0,000 mm 0,0 UV-I 21 W/m² 5,2 °C 4,2 °C 32,2 km/h (5 Bft)
15.03.2019 16:45 7,7 °C 85 % 1011,3 hPa 0,0 mm 19,0 km/h (3 Bft) W-SW 250 ° 0 min 0,000 mm 0,0 UV-I 19 W/m² 5,3 °C 4,6 °C 29,0 km/h (5 Bft)
15.03.2019 16:46 7,7 °C 85 % 1011,3 hPa 0,0 mm 23,9 km/h (4 Bft) W 275 ° 0 min 0,000 mm 0,0 UV-I 19 W/m² 5,3 °C 4,1 °C 38,6 km/h (5 Bft)
15.03.2019 16:47 7,7 °C 85 % 1011,3 hPa 0,0 mm 17,8 km/h (3 Bft) W-SW 258 ° 0 min 0,000 mm 0,0 UV-I 21 W/m² 5,3 °C 4,7 °C 22,5 km/h (4 Bft)
15.03.2019 16:48 7,7 °C 85 % 1011,3 hPa 0,0 mm 19,9 km/h (4 Bft) W 268 ° 0 min 0,000 mm 0,0 UV-I 19 W/m² 5,3 °C 4,5 °C 30,6 km/h (5 Bft)
15.03.2019 16:49 7,7 °C 85 % 1011,3 hPa 0,0 mm 21,5 km/h (4 Bft) W 259 ° 0 min 0,000 mm 0,0 UV-I 18 W/m² 5,3 °C 4,3 °C 33,8 km/h (5 Bft)
15.03.2019 16:50 7,7 °C 85 % 1011,2 hPa 0,0 mm 21,1 km/h (4 Bft) W 259 ° 0 min 0,000 mm 0,0 UV-I 16 W/m² 5,3 °C 4,4 °C 35,4 km/h (5 Bft)
15.03.2019 16:51 7,7 °C 85 % 1011,2 hPa 0,0 mm 16,6 km/h (3 Bft) SW 215 ° 0 min 0,000 mm 0,0 UV-I 16 W/m² 5,3 °C 4,9 °C 22,5 km/h (4 Bft)
15.03.2019 16:52 7,7 °C 85 % 1011,3 hPa 0,0 mm 20,0 km/h (4 Bft) W 272 ° 0 min 0,000 mm 0,0 UV-I 16 W/m² 5,3 °C 4,5 °C 30,6 km/h (5 Bft)
15.03.2019 16:53 7,7 °C 85 % 1011,3 hPa 0,0 mm 21,6 km/h (4 Bft) W 279 ° 0 min 0,000 mm 0,0 UV-I 18 W/m² 5,3 °C 4,3 °C 33,8 km/h (5 Bft)
15.03.2019 16:54 7,7 °C 85 % 1011,5 hPa 0,0 mm 16,0 km/h (3 Bft) SW 230 ° 0 min 0,000 mm 0,0 UV-I 16 W/m² 5,3 °C 4,9 °C 22,5 km/h (4 Bft)
15.03.2019 16:55 7,8 °C 85 % 1011,3 hPa 0,0 mm 21,0 km/h (4 Bft) W-SW 257 ° 0 min 0,000 mm 0,0 UV-I 16 W/m² 5,4 °C 4,5 °C 30,6 km/h (5 Bft)
15.03.2019 16:56 7,8 °C 84 % 1011,3 hPa 0,0 mm 16,2 km/h (3 Bft) W-SW 257 ° 0 min 0,000 mm 0,0 UV-I 12 W/m² 5,3 °C 5,0 °C 25,7 km/h (4 Bft)
15.03.2019 16:57 7,7 °C 84 % 1011,3 hPa 0,0 mm 19,6 km/h (3 Bft) W 281 ° 0 min 0,000 mm 0,0 UV-I 12 W/m² 5,2 °C 4,5 °C 30,6 km/h (5 Bft)
15.03.2019 16:58 7,8 °C 84 % 1011,4 hPa 0,0 mm 28,2 km/h (4 Bft) W-NW 285 ° 0 min 0,000 mm 0,0 UV-I 14 W/m² 5,3 °C 3,8 °C 40,2 km/h (6 Bft)
15.03.2019 16:59 7,8 °C 84 % 1011,4 hPa 0,0 mm 23,7 km/h (4 Bft) W 265 ° 0 min 0,000 mm 0,0 UV-I 18 W/m² 5,3 °C 4,2 °C 33,8 km/h (5 Bft)
15.03.2019 17:00 7,8 °C 84 % 1011,4 hPa 0,0 mm 20,1 km/h (4 Bft) W-NW 294 ° 0 min 0,000 mm 0,0 UV-I 16 W/m² 5,3 °C 4,6 °C 27,4 km/h (4 Bft)
15.03.2019 17:01 7,8 °C 84 % 1011,4 hPa 0,0 mm 31,6 km/h (5 Bft) W-SW 256 ° 0 min 0,051 mm 0,0 UV-I 18 W/m² 5,3 °C 3,6 °C 46,7 km/h (6 Bft)
15.03.2019 17:02 7,8 °C 84 % 1011,3 hPa 0,0 mm 25,3 km/h (4 Bft) W-SW 252 ° 0 min 0,000 mm 0,0 UV-I 18 W/m² 5,3 °C 4,1 °C 35,4 km/h (5 Bft)
15.03.2019 17:03 7,8 °C 84 % 1011,3 hPa 0,0 mm 23,3 km/h (4 Bft) S-SW 195 ° 0 min 0,000 mm 0,0 UV-I 18 W/m² 5,3 °C 4,3 °C 32,2 km/h (5 Bft)
15.03.2019 17:04 7,8 °C 84 % 1011,2 hPa 0,0 mm 25,9 km/h (4 Bft) W 270 ° 0 min 0,000 mm 0,0 UV-I 18 W/m² 5,3 °C 4,0 °C 45,1 km/h (6 Bft)
15.03.2019 17:05 7,8 °C 84 % 1011,3 hPa 0,0 mm 23,3 km/h (4 Bft) SW 216 ° 0 min 0,000 mm 0,0 UV-I 18 W/m² 5,3 °C 4,3 °C 38,6 km/h (5 Bft)
15.03.2019 17:06 7,8 °C 84 % 1011,3 hPa 0,0 mm 21,0 km/h (4 Bft) W-SW 258 ° 0 min 0,000 mm 0,0 UV-I 14 W/m² 5,3 °C 4,5 °C 37,0 km/h (5 Bft)
15.03.2019 17:07 7,8 °C 84 % 1011,4 hPa 0,0 mm 22,1 km/h (4 Bft) SW 214 ° 0 min 0,000 mm 0,0 UV-I 18 W/m² 5,3 °C 4,4 °C 33,8 km/h (5 Bft)
15.03.2019 17:08 7,8 °C 84 % 1011,3 hPa 0,0 mm 23,4 km/h (4 Bft) W 276 ° 0 min 0,000 mm 0,0 UV-I 14 W/m² 5,3 °C 4,3 °C 37,0 km/h (5 Bft)
15.03.2019 17:09 7,8 °C 84 % 1011,4 hPa 0,0 mm 23,4 km/h (4 Bft) W 268 ° 0 min 0,000 mm 0,0 UV-I 16 W/m² 5,3 °C 4,3 °C 37,0 km/h (5 Bft)
15.03.2019 17:10 7,8 °C 84 % 1011,3 hPa 0,0 mm 20,7 km/h (4 Bft) W 273 ° 0 min 0,000 mm 0,0 UV-I 18 W/m² 5,3 °C 4,5 °C 29,0 km/h (5 Bft)
15.03.2019 17:11 7,8 °C 84 % 1011,4 hPa 0,0 mm 26,3 km/h (4 Bft) W-SW 252 ° 0 min 0,000 mm 0,0 UV-I 16 W/m² 5,3 °C 4,0 °C 43,5 km/h (6 Bft)
15.03.2019 17:12 7,8 °C 84 % 1011,4 hPa 0,0 mm 20,0 km/h (4 Bft) W 261 ° 0 min 0,000 mm 0,0 UV-I 16 W/m² 5,3 °C 4,6 °C 25,7 km/h (4 Bft)
15.03.2019 17:13 7,8 °C 84 % 1011,4 hPa 0,0 mm 24,0 km/h (4 Bft) W 267 ° 0 min 0,000 mm 0,0 UV-I 18 W/m² 5,3 °C 4,2 °C 33,8 km/h (5 Bft)
15.03.2019 17:14 7,8 °C 84 % 1011,3 hPa 0,0 mm 26,6 km/h (4 Bft) S 184 ° 0 min 0,000 mm 0,0 UV-I 18 W/m² 5,3 °C 4,0 °C 38,6 km/h (5 Bft)
15.03.2019 17:15 7,8 °C 84 % 1011,5 hPa 0,0 mm 16,1 km/h (3 Bft) W 263 ° 0 min 0,000 mm 0,0 UV-I 19 W/m² 5,3 °C 5,1 °C 20,9 km/h (4 Bft)
15.03.2019 17:16 7,8 °C 84 % 1011,4 hPa 0,0 mm 22,2 km/h (4 Bft) SW 229 ° 0 min 0,000 mm 0,0 UV-I 18 W/m² 5,3 °C 4,4 °C 32,2 km/h (5 Bft)
15.03.2019 17:17 7,8 °C 84 % 1011,3 hPa 0,0 mm 24,7 km/h (4 Bft) W-SW 246 ° 0 min 0,000 mm 0,0 UV-I 19 W/m² 5,3 °C 4,1 °C 38,6 km/h (5 Bft)
15.03.2019 17:18 7,8 °C 84 % 1011,4 hPa 0,0 mm 17,9 km/h (3 Bft) W-NW 296 ° 0 min 0,000 mm 0,0 UV-I 16 W/m² 5,3 °C 4,8 °C 25,7 km/h (4 Bft)
15.03.2019 17:19 7,8 °C 84 % 1011,3 hPa 0,0 mm 20,2 km/h (4 Bft) W-SW 248 ° 0 min 0,000 mm 0,0 UV-I 16 W/m² 5,3 °C 4,6 °C 25,7 km/h (4 Bft)
15.03.2019 17:20 7,8 °C 84 % 1011,4 hPa 0,0 mm 20,7 km/h (4 Bft) W-NW 282 ° 0 min 0,000 mm 0,0 UV-I 14 W/m² 5,3 °C 4,5 °C 27,4 km/h (4 Bft)
15.03.2019 17:21 7,8 °C 84 % 1011,4 hPa 0,0 mm 12,9 km/h (3 Bft) W-NW 287 ° 0 min 0,000 mm 0,0 UV-I 12 W/m² 5,3 °C 5,5 °C 19,3 km/h (3 Bft)
15.03.2019 17:22 7,8 °C 84 % 1011,4 hPa 0,0 mm 28,0 km/h (4 Bft) W-SW 241 ° 0 min 0,000 mm 0,0 UV-I 12 W/m² 5,3 °C 3,9 °C 41,8 km/h (6 Bft)
15.03.2019 17:23 7,8 °C 84 % 1011,4 hPa 0,0 mm 25,4 km/h (4 Bft) W 268 ° 0 min 0,000 mm 0,0 UV-I 12 W/m² 5,3 °C 4,1 °C 33,8 km/h (5 Bft)
15.03.2019 17:24 7,8 °C 84 % 1011,4 hPa 0,0 mm 21,3 km/h (4 Bft) S-SW 205 ° 0 min 0,000 mm 0,0 UV-I 12 W/m² 5,3 °C 4,5 °C 29,0 km/h (5 Bft)
15.03.2019 17:25 7,7 °C 84 % 1011,3 hPa 0,0 mm 17,6 km/h (3 Bft) SW 235 ° 0 min 0,000 mm 0,0 UV-I 12 W/m² 5,2 °C 4,7 °C 30,6 km/h (5 Bft)
15.03.2019 17:26 7,7 °C 84 % 1011,3 hPa 0,0 mm 24,3 km/h (4 Bft) W-SW 254 ° 0 min 0,000 mm 0,0 UV-I 12 W/m² 5,2 °C 4,0 °C 35,4 km/h (5 Bft)
15.03.2019 17:27 7,7 °C 84 % 1011,4 hPa 0,0 mm 20,2 km/h (4 Bft) W 261 ° 0 min 0,000 mm 0,0 UV-I 11 W/m² 5,2 °C 4,5 °C 33,8 km/h (5 Bft)
15.03.2019 17:28 7,7 °C 84 % 1011,4 hPa 0,0 mm 21,9 km/h (4 Bft) W-SW 252 ° 0 min 0,000 mm 0,0 UV-I 11 W/m² 5,2 °C 4,3 °C 35,4 km/h (5 Bft)
15.03.2019 17:29 7,7 °C 85 % 1011,4 hPa 0,0 mm 28,6 km/h (4 Bft) W-SW 250 ° 0 min 0,000 mm 0,0 UV-I 11 W/m² 5,3 °C 3,7 °C 40,2 km/h (6 Bft)
15.03.2019 17:30 7,7 °C 85 % 1011,5 hPa 0,0 mm 22,5 km/h (4 Bft) W-SW 256 ° 0 min 0,000 mm 0,0 UV-I 9 W/m² 5,3 °C 4,2 °C 45,1 km/h (6 Bft)
15.03.2019 17:31 7,7 °C 85 % 1011,4 hPa 0,0 mm 24,4 km/h (4 Bft) W 264 ° 0 min 0,000 mm 0,0 UV-I 11 W/m² 5,3 °C 4,0 °C 43,5 km/h (6 Bft)
15.03.2019 17:32 7,7 °C 85 % 1011,3 hPa 0,0 mm 31,1 km/h (5 Bft) W-SW 256 ° 0 min 0,000 mm 0,0 UV-I 9 W/m² 5,3 °C 3,5 °C 45,1 km/h (6 Bft)
15.03.2019 17:33 7,6 °C 85 % 1011,5 hPa 0,0 mm 20,5 km/h (4 Bft) W-SW 242 ° 0 min 0,000 mm 0,0 UV-I 11 W/m² 5,2 °C 4,3 °C 33,8 km/h (5 Bft)
15.03.2019 17:34 7,7 °C 85 % 1011,3 hPa 0,0 mm 18,2 km/h (3 Bft) W-SW 258 ° 0 min 0,000 mm 0,0 UV-I 11 W/m² 5,3 °C 4,7 °C 22,5 km/h (4 Bft)
15.03.2019 17:35 7,6 °C 85 % 1011,5 hPa 0,0 mm 19,4 km/h (3 Bft) W 263 ° 0 min 0,000 mm 0,0 UV-I 11 W/m² 5,2 °C 4,4 °C 35,4 km/h (5 Bft)
15.03.2019 17:36 7,6 °C 85 % 1011,4 hPa 0,0 mm 21,7 km/h (4 Bft) SW 221 ° 0 min 0,000 mm 0,0 UV-I 11 W/m² 5,2 °C 4,2 °C 45,1 km/h (6 Bft)
15.03.2019 17:37 7,6 °C 85 % 1011,6 hPa 0,0 mm 25,4 km/h (4 Bft) W-SW 257 ° 0 min 0,000 mm 0,0 UV-I 11 W/m² 5,2 °C 3,8 °C 37,0 km/h (5 Bft)
15.03.2019 17:38 7,6 °C 85 % 1011,4 hPa 0,0 mm 21,2 km/h (4 Bft) SW 236 ° 0 min 0,000 mm 0,0 UV-I 11 W/m² 5,2 °C 4,2 °C 30,6 km/h (5 Bft)
15.03.2019 17:39 7,6 °C 85 % 1011,6 hPa 0,0 mm 23,0 km/h (4 Bft) W-SW 254 ° 0 min 0,000 mm 0,0 UV-I 11 W/m² 5,2 °C 4,0 °C 30,6 km/h (5 Bft)
15.03.2019 17:40 7,6 °C 85 % 1011,6 hPa 0,0 mm 20,7 km/h (4 Bft) W-SW 251 ° 0 min 0,000 mm 0,0 UV-I 11 W/m² 5,2 °C 4,3 °C 25,7 km/h (4 Bft)
15.03.2019 17:41 7,6 °C 85 % 1011,6 hPa 0,0 mm 18,9 km/h (3 Bft) W-NW 298 ° 0 min 0,000 mm 0,0 UV-I 9 W/m² 5,2 °C 4,5 °C 32,2 km/h (5 Bft)
15.03.2019 17:42 7,6 °C 85 % 1011,5 hPa 0,0 mm 14,5 km/h (3 Bft) SW 219 ° 0 min 0,000 mm 0,0 UV-I 7 W/m² 5,2 °C 5,0 °C 24,1 km/h (4 Bft)
15.03.2019 17:43 7,6 °C 85 % 1011,5 hPa 0,0 mm 20,0 km/h (4 Bft) SW 229 ° 0 min 0,000 mm 0,0 UV-I 7 W/m² 5,2 °C 4,3 °C 32,2 km/h (5 Bft)
15.03.2019 17:44 7,6 °C 85 % 1011,4 hPa 0,0 mm 22,7 km/h (4 Bft) W 265 ° 0 min 0,000 mm 0,0 UV-I 7 W/m² 5,2 °C 4,1 °C 33,8 km/h (5 Bft)
15.03.2019 17:45 7,5 °C 85 % 1011,5 hPa 0,0 mm 23,8 km/h (4 Bft) W 268 ° 0 min 0,000 mm 0,0 UV-I 7 W/m² 5,1 °C 3,8 °C 32,2 km/h (5 Bft)
15.03.2019 17:46 7,4 °C 86 % 1011,4 hPa 0,0 mm 16,8 km/h (3 Bft) W 267 ° 0 min 0,000 mm 0,0 UV-I 7 W/m² 5,2 °C 4,5 °C 27,4 km/h (4 Bft)
15.03.2019 17:47 7,4 °C 86 % 1011,5 hPa 0,2 mm 21,7 km/h (4 Bft) W 278 ° 0 min 0,000 mm 0,0 UV-I 7 W/m² 5,2 °C 3,9 °C 29,0 km/h (5 Bft)
15.03.2019 17:48 7,4 °C 86 % 1011,5 hPa 0,0 mm 16,9 km/h (3 Bft) W-SW 256 ° 0 min 0,000 mm 0,0 UV-I 7 W/m² 5,2 °C 4,5 °C 22,5 km/h (4 Bft)
15.03.2019 17:49 7,4 °C 86 % 1011,6 hPa 0,0 mm 19,0 km/h (3 Bft) W-SW 252 ° 0 min 0,000 mm 0,0 UV-I 7 W/m² 5,2 °C 4,2 °C 27,4 km/h (4 Bft)
15.03.2019 17:50 7,4 °C 86 % 1011,6 hPa 0,0 mm 17,0 km/h (3 Bft) W-NW 290 ° 0 min 0,000 mm 0,0 UV-I 7 W/m² 5,2 °C 4,4 °C 24,1 km/h (4 Bft)
15.03.2019 17:51 7,4 °C 86 % 1011,6 hPa 0,0 mm 24,9 km/h (4 Bft) W-NW 289 ° 0 min 0,000 mm 0,0 UV-I 5 W/m² 5,2 °C 3,6 °C 41,8 km/h (6 Bft)
15.03.2019 17:52 7,4 °C 86 % 1011,6 hPa 0,0 mm 16,7 km/h (3 Bft) W 278 ° 0 min 0,000 mm 0,0 UV-I 5 W/m² 5,2 °C 4,5 °C 24,1 km/h (4 Bft)
15.03.2019 17:53 7,4 °C 86 % 1011,6 hPa 0,0 mm 22,3 km/h (4 Bft) W-SW 238 ° 0 min 0,000 mm 0,0 UV-I 5 W/m² 5,2 °C 3,9 °C 37,0 km/h (5 Bft)
15.03.2019 17:54 7,4 °C 86 % 1011,6 hPa 0,0 mm 22,9 km/h (4 Bft) W 272 ° 0 min 0,000 mm 0,0 UV-I 5 W/m² 5,2 °C 3,8 °C 35,4 km/h (5 Bft)
15.03.2019 17:55 7,3 °C 86 % 1011,6 hPa 0,0 mm 14,2 km/h (3 Bft) W-NW 282 ° 0 min 0,000 mm 0,0 UV-I 0 W/m² 5,1 °C 4,7 °C 24,1 km/h (4 Bft)
15.03.2019 17:56 7,3 °C 86 % 1011,6 hPa 0,0 mm 15,7 km/h (3 Bft) SW 233 ° 0 min 0,000 mm 0,0 UV-I 0 W/m² 5,1 °C 4,5 °C 22,5 km/h (4 Bft)
15.03.2019 17:57 7,3 °C 86 % 1011,6 hPa 0,0 mm 14,9 km/h (3 Bft) W-SW 242 ° 0 min 0,000 mm 0,0 UV-I 0 W/m² 5,1 °C 4,6 °C 20,9 km/h (4 Bft)
15.03.2019 17:58 7,3 °C 86 % 1011,7 hPa 0,0 mm 14,2 km/h (3 Bft) W 259 ° 0 min 0,000 mm 0,0 UV-I 0 W/m² 5,1 °C 4,7 °C 17,7 km/h (3 Bft)
15.03.2019 17:59 7,3 °C 86 % 1011,8 hPa 0,0 mm 16,9 km/h (3 Bft) W-SW 244 ° 0 min 0,000 mm 0,0 UV-I 0 W/m² 5,1 °C 4,3 °C 43,5 km/h (6 Bft)
15.03.2019 18:00 7,3 °C 86 % 1011,7 hPa 0,0 mm 23,1 km/h (4 Bft) W 263 ° 0 min 0,000 mm 0,0 UV-I 0 W/m² 5,1 °C 3,6 °C 43,5 km/h (6 Bft)
15.03.2019 18:01 7,3 °C 86 % 1011,6 hPa 0,0 mm 26,6 km/h (4 Bft) W-SW 256 ° 0 min 0,025 mm 0,0 UV-I 0 W/m² 5,1 °C 3,3 °C 35,4 km/h (5 Bft)
15.03.2019 18:02 7,3 °C 86 % 1011,8 hPa 0,0 mm 23,7 km/h (4 Bft) SW 228 ° 0 min 0,000 mm 0,0 UV-I 0 W/m² 5,1 °C 3,6 °C 32,2 km/h (5 Bft)
15.03.2019 18:03 7,3 °C 86 % 1011,6 hPa 0,0 mm 22,2 km/h (4 Bft) W 271 ° 0 min 0,000 mm 0,0 UV-I 0 W/m² 5,1 °C 3,7 °C 37,0 km/h (5 Bft)
15.03.2019 18:04 7,3 °C 86 % 1011,7 hPa 0,0 mm 14,9 km/h (3 Bft) W-NW 288 ° 0 min 0,000 mm 0,0 UV-I 0 W/m² 5,1 °C 4,6 °C 20,9 km/h (4 Bft)
15.03.2019 18:05 7,3 °C 86 % 1011,5 hPa 0,0 mm 20,7 km/h (4 Bft) NW 304 ° 0 min 0,000 mm 0,0 UV-I 0 W/m² 5,1 °C 3,9 °C 35,4 km/h (5 Bft)
15.03.2019 18:06 7,3 °C 86 % 1011,8 hPa 0,0 mm 22,0 km/h (4 Bft) SW 234 ° 0 min 0,000 mm 0,0 UV-I 0 W/m² 5,1 °C 3,8 °C 32,2 km/h (5 Bft)
15.03.2019 18:07 7,3 °C 86 % 1011,6 hPa 0,0 mm 28,0 km/h (4 Bft) W 281 ° 0 min 0,000 mm 0,0 UV-I 0 W/m² 5,1 °C 3,2 °C 38,6 km/h (5 Bft)
15.03.2019 18:08 7,4 °C 85 % 1011,7 hPa 0,0 mm 22,8 km/h (4 Bft) W 267 ° 0 min 0,000 mm 0,0 UV-I 0 W/m² 5,0 °C 3,8 °C 37,0 km/h (5 Bft)
15.03.2019 18:09 7,3 °C 85 % 1011,7 hPa 0,0 mm 18,3 km/h (3 Bft) W 259 ° 0 min 0,000 mm 0,0 UV-I 0 W/m² 4,9 °C 4,2 °C 24,1 km/h (4 Bft)
15.03.2019 18:10 7,4 °C 85 % 1011,7 hPa 0,0 mm 16,0 km/h (3 Bft) W-SW 253 ° 0 min 0,000 mm 0,0 UV-I 0 W/m² 5,0 °C 4,6 °C 20,9 km/h (4 Bft)
15.03.2019 18:11 7,3 °C 85 % 1011,8 hPa 0,0 mm 19,4 km/h (3 Bft) W-SW 246 ° 0 min 0,000 mm 0,0 UV-I 0 W/m² 4,9 °C 4,0 °C 27,4 km/h (4 Bft)
15.03.2019 18:12 7,4 °C 85 % 1011,6 hPa 0,0 mm 16,7 km/h (3 Bft) W 261 ° 0 min 0,000 mm 0,0 UV-I 0 W/m² 5,0 °C 4,5 °C 25,7 km/h (4 Bft)
15.03.2019 18:13 7,4 °C 85 % 1011,8 hPa 0,0 mm 23,3 km/h (4 Bft) W-SW 248 ° 0 min 0,000 mm 0,0 UV-I 0 W/m² 5,0 °C 3,8 °C 33,8 km/h (5 Bft)
15.03.2019 18:14 7,3 °C 85 % 1011,8 hPa 0,0 mm 19,2 km/h (3 Bft) W-SW 257 ° 0 min 0,000 mm 0,0 UV-I 0 W/m² 4,9 °C 4,1 °C 29,0 km/h (5 Bft)
15.03.2019 18:15 7,4 °C 85 % 1011,8 hPa 0,0 mm 19,2 km/h (3 Bft) S-SW 212 ° 0 min 0,000 mm 0,0 UV-I 0 W/m² 5,0 °C 4,2 °C 30,6 km/h (5 Bft)
15.03.2019 18:16 7,4 °C 85 % 1011,8 hPa 0,0 mm 19,2 km/h (3 Bft) W-SW 252 ° 0 min 0,000 mm 0,0 UV-I 0 W/m² 5,0 °C 4,2 °C 24,1 km/h (4 Bft)
15.03.2019 18:17 7,3 °C 85 % 1011,9 hPa 0,0 mm 22,4 km/h (4 Bft) W-SW 238 ° 0 min 0,000 mm 0,0 UV-I 0 W/m² 4,9 °C 3,7 °C 37,0 km/h (5 Bft)
15.03.2019 18:18 7,4 °C 85 % 1011,9 hPa 0,0 mm 20,2 km/h (4 Bft) W-SW 255 ° 0 min 0,000 mm 0,0 UV-I 0 W/m² 5,0 °C 4,1 °C 25,7 km/h (4 Bft)
15.03.2019 18:19 7,4 °C 85 % 1011,8 hPa 0,0 mm 16,8 km/h (3 Bft) W 263 ° 0 min 0,000 mm 0,0 UV-I 0 W/m² 5,0 °C 4,5 °C 25,7 km/h (4 Bft)
15.03.2019 18:20 7,4 °C 85 % 1011,9 hPa 0,0 mm 14,3 km/h (3 Bft) W-SW 250 ° 0 min 0,000 mm 0,0 UV-I 0 W/m² 5,0 °C 4,8 °C 19,3 km/h (3 Bft)
15.03.2019 18:21 7,4 °C 85 % 1011,8 hPa 0,0 mm 17,6 km/h (3 Bft) W 278 ° 0 min 0,000 mm 0,0 UV-I 0 W/m² 5,0 °C 4,4 °C 24,1 km/h (4 Bft)
15.03.2019 18:22 7,4 °C 85 % 1011,9 hPa 0,0 mm 18,2 km/h (3 Bft) W 273 ° 0 min 0,000 mm 0,0 UV-I 0 W/m² 5,0 °C 4,3 °C 24,1 km/h (4 Bft)
15.03.2019 18:23 7,4 °C 85 % 1011,9 hPa 0,0 mm 15,7 km/h (3 Bft) W 268 ° 0 min 0,000 mm 0,0 UV-I 0 W/m² 5,0 °C 4,6 °C 24,1 km/h (4 Bft)
15.03.2019 18:24 7,4 °C 85 % 1012,0 hPa 0,0 mm 21,7 km/h (4 Bft) W-SW 245 ° 0 min 0,000 mm 0,0 UV-I 0 W/m² 5,0 °C 3,9 °C 30,6 km/h (5 Bft)
15.03.2019 18:25 7,4 °C 85 % 1011,9 hPa 0,0 mm 17,1 km/h (3 Bft) W-SW 257 ° 0 min 0,000 mm 0,0 UV-I 0 W/m² 5,0 °C 4,4 °C 24,1 km/h (4 Bft)
15.03.2019 18:26 7,4 °C 84 % 1012,0 hPa 0,0 mm 20,1 km/h (4 Bft) S-SW 193 ° 0 min 0,000 mm 0,0 UV-I 0 W/m² 4,9 °C 4,1 °C 25,7 km/h (4 Bft)
15.03.2019 18:27 7,4 °C 84 % 1012,0 hPa 0,0 mm 17,4 km/h (3 Bft) SW 226 ° 0 min 0,000 mm 0,0 UV-I 0 W/m² 4,9 °C 4,4 °C 27,4 km/h (4 Bft)
15.03.2019 18:28 7,4 °C 85 % 1012,0 hPa 0,0 mm 26,8 km/h (4 Bft) W 259 ° 0 min 0,000 mm 0,0 UV-I 0 W/m² 5,0 °C 3,4 °C 38,6 km/h (5 Bft)
15.03.2019 18:29 7,4 °C 84 % 1012,0 hPa 0,0 mm 18,0 km/h (3 Bft) W-SW 246 ° 0 min 0,000 mm 0,0 UV-I 0 W/m² 4,9 °C 4,3 °C 29,0 km/h (5 Bft)
15.03.2019 18:30 7,4 °C 84 % 1012,0 hPa 0,0 mm 18,9 km/h (3 Bft) W-SW 258 ° 0 min 0,000 mm 0,0 UV-I 0 W/m² 4,9 °C 4,2 °C 37,0 km/h (5 Bft)
15.03.2019 18:31 7,4 °C 84 % 1012,1 hPa 0,0 mm 16,6 km/h (3 Bft) W 261 ° 0 min 0,000 mm 0,0 UV-I 0 W/m² 4,9 °C 4,5 °C 35,4 km/h (5 Bft)
15.03.2019 18:32 7,4 °C 85 % 1012,1 hPa 0,0 mm 26,7 km/h (4 Bft) W-SW 256 ° 0 min 0,000 mm 0,0 UV-I 0 W/m² 5,0 °C 3,5 °C 40,2 km/h (6 Bft)
15.03.2019 18:33 7,4 °C 85 % 1012,1 hPa 0,0 mm 19,3 km/h (3 Bft) W 263 ° 0 min 0,000 mm 0,0 UV-I 0 W/m² 5,0 °C 4,2 °C 24,1 km/h (4 Bft)
15.03.2019 18:34 7,4 °C 85 % 1012,3 hPa 0,0 mm 29,5 km/h (5 Bft) W-NW 299 ° 0 min 0,000 mm 0,0 UV-I 0 W/m² 5,0 °C 3,2 °C 40,2 km/h (6 Bft)
15.03.2019 18:35 7,4 °C 84 % 1012,1 hPa 0,0 mm 17,8 km/h (3 Bft) W 259 ° 0 min 0,000 mm 0,0 UV-I 0 W/m² 4,9 °C 4,3 °C 29,0 km/h (5 Bft)
15.03.2019 18:36 7,4 °C 85 % 1012,2 hPa 0,0 mm 21,1 km/h (4 Bft) W-SW 257 ° 0 min 0,000 mm 0,0 UV-I 0 W/m² 5,0 °C 4,0 °C 29,0 km/h (5 Bft)
15.03.2019 18:37 7,4 °C 84 % 1012,2 hPa 0,0 mm 19,2 km/h (3 Bft) W-SW 249 ° 0 min 0,000 mm 0,0 UV-I 0 W/m² 4,9 °C 4,2 °C 30,6 km/h (5 Bft)
15.03.2019 18:38 7,3 °C 85 % 1012,2 hPa 0,0 mm 15,6 km/h (3 Bft) W-SW 257 ° 0 min 0,000 mm 0,0 UV-I 0 W/m² 4,9 °C 4,5 °C 20,9 km/h (4 Bft)
15.03.2019 18:39 7,4 °C 85 % 1012,2 hPa 0,0 mm 13,4 km/h (3 Bft) W 263 ° 0 min 0,000 mm 0,0 UV-I 0 W/m² 5,0 °C 4,9 °C 17,7 km/h (3 Bft)
15.03.2019 18:40 7,4 °C 85 % 1012,3 hPa 0,0 mm 20,8 km/h (4 Bft) W 263 ° 0 min 0,000 mm 0,0 UV-I 0 W/m² 5,0 °C 4,0 °C 33,8 km/h (5 Bft)
15.03.2019 18:41 7,4 °C 85 % 1012,3 hPa 0,2 mm 18,3 km/h (3 Bft) W 268 ° 0 min 0,000 mm 0,0 UV-I 0 W/m² 5,0 °C 4,3 °C 27,4 km/h (4 Bft)
15.03.2019 18:42 7,3 °C 85 % 1012,3 hPa 0,0 mm 19,7 km/h (3 Bft) W-SW 244 ° 0 min 0,000 mm 0,0 UV-I 0 W/m² 4,9 °C 4,0 °C 35,4 km/h (5 Bft)
15.03.2019 18:43 7,4 °C 85 % 1012,4 hPa 0,0 mm 22,5 km/h (4 Bft) W 271 ° 0 min 0,000 mm 0,0 UV-I 0 W/m² 5,0 °C 3,8 °C 32,2 km/h (5 Bft)
15.03.2019 18:44 7,3 °C 85 % 1012,4 hPa 0,0 mm 17,6 km/h (3 Bft) W 260 ° 0 min 0,000 mm 0,0 UV-I 0 W/m² 4,9 °C 4,2 °C 27,4 km/h (4 Bft)
15.03.2019 18:45 7,4 °C 85 % 1012,4 hPa 0,0 mm 18,1 km/h (3 Bft) W 267 ° 0 min 0,000 mm 0,0 UV-I 0 W/m² 5,0 °C 4,3 °C 25,7 km/h (4 Bft)
15.03.2019 18:46 7,4 °C 85 % 1012,4 hPa 0,0 mm 21,4 km/h (4 Bft) W 263 ° 0 min 0,000 mm 0,0 UV-I 0 W/m² 5,0 °C 3,9 °C 32,2 km/h (5 Bft)
15.03.2019 18:47 7,3 °C 85 % 1012,4 hPa 0,0 mm 16,7 km/h (3 Bft) W-SW 250 ° 0 min 0,000 mm 0,0 UV-I 0 W/m² 4,9 °C 4,4 °C 24,1 km/h (4 Bft)
15.03.2019 18:48 7,3 °C 85 % 1012,6 hPa 0,0 mm 21,5 km/h (4 Bft) W 268 ° 0 min 0,000 mm 0,0 UV-I 0 W/m² 4,9 °C 3,8 °C 38,6 km/h (5 Bft)
15.03.2019 18:49 7,3 °C 85 % 1012,5 hPa 0,0 mm 19,2 km/h (3 Bft) W 265 ° 0 min 0,000 mm 0,0 UV-I 0 W/m² 4,9 °C 4,1 °C 22,5 km/h (4 Bft)
15.03.2019 18:50 7,3 °C 86 % 1012,6 hPa 0,0 mm 24,9 km/h (4 Bft) W-SW 253 ° 0 min 0,000 mm 0,0 UV-I 0 W/m² 5,1 °C 3,5 °C 40,2 km/h (6 Bft)
15.03.2019 18:51 7,3 °C 86 % 1012,5 hPa 0,0 mm 15,9 km/h (3 Bft) SW 227 ° 0 min 0,000 mm 0,0 UV-I 0 W/m² 5,1 °C 4,5 °C 20,9 km/h (4 Bft)
15.03.2019 18:52 7,3 °C 86 % 1012,6 hPa 0,0 mm 16,2 km/h (3 Bft) W 261 ° 0 min 0,000 mm 0,0 UV-I 0 W/m² 5,1 °C 4,4 °C 25,7 km/h (4 Bft)
15.03.2019 18:53 7,3 °C 86 % 1012,5 hPa 0,0 mm 17,9 km/h (3 Bft) W-SW 249 ° 0 min 0,000 mm 0,0 UV-I 0 W/m² 5,1 °C 4,2 °C 25,7 km/h (4 Bft)
15.03.2019 18:54 7,2 °C 86 % 1012,5 hPa 0,2 mm 25,7 km/h (4 Bft) W 271 ° 0 min 0,000 mm 0,0 UV-I 0 W/m² 5,0 °C 3,3 °C 35,4 km/h (5 Bft)
15.03.2019 18:55 7,2 °C 86 % 1012,5 hPa 0,0 mm 17,1 km/h (3 Bft) W 260 ° 0 min 0,000 mm 0,0 UV-I 0 W/m² 5,0 °C 4,2 °C 33,8 km/h (5 Bft)
15.03.2019 18:56 7,2 °C 86 % 1012,5 hPa 0,0 mm 14,9 km/h (3 Bft) W-SW 244 ° 0 min 0,000 mm 0,0 UV-I 0 W/m² 5,0 °C 4,5 °C 27,4 km/h (4 Bft)
15.03.2019 18:57 7,2 °C 86 % 1012,6 hPa 0,0 mm 21,9 km/h (4 Bft) W 259 ° 0 min 0,000 mm 0,0 UV-I 0 W/m² 5,0 °C 3,6 °C 27,4 km/h (4 Bft)
15.03.2019 18:58 7,2 °C 86 % 1012,7 hPa 0,0 mm 21,2 km/h (4 Bft) W 259 ° 0 min 0,000 mm 0,0 UV-I 0 W/m² 5,0 °C 3,7 °C 37,0 km/h (5 Bft)
15.03.2019 18:59 7,3 °C 86 % 1012,6 hPa 0,0 mm 20,3 km/h (4 Bft) W-SW 242 ° 0 min 0,000 mm 0,0 UV-I 0 W/m² 5,1 °C 3,9 °C 25,7 km/h (4 Bft)
15.03.2019 19:00 7,2 °C 87 % 1012,6 hPa 0,0 mm 20,3 km/h (4 Bft) W-SW 257 ° 0 min 0,000 mm 0,0 UV-I 0 W/m² 5,2 °C 3,8 °C 30,6 km/h (5 Bft)
15.03.2019 19:01 7,2 °C 87 % 1012,6 hPa 0,0 mm 20,5 km/h (4 Bft) W-SW 239 ° 0 min 0,026 mm 0,0 UV-I 0 W/m² 5,2 °C 3,8 °C 40,2 km/h (6 Bft)
15.03.2019 19:02 7,2 °C 87 % 1012,6 hPa 0,0 mm 21,1 km/h (4 Bft) W 259 ° 0 min 0,000 mm 0,0 UV-I 0 W/m² 5,2 °C 3,7 °C 29,0 km/h (5 Bft)
15.03.2019 19:03 7,2 °C 87 % 1012,6 hPa 0,2 mm 23,5 km/h (4 Bft) W-SW 257 ° 0 min 0,000 mm 0,0 UV-I 0 W/m² 5,2 °C 3,5 °C 32,2 km/h (5 Bft)
15.03.2019 19:04 7,2 °C 87 % 1012,6 hPa 0,0 mm 22,7 km/h (4 Bft) W-SW 252 ° 0 min 0,000 mm 0,0 UV-I 0 W/m² 5,2 °C 3,6 °C 35,4 km/h (5 Bft)
15.03.2019 19:05 7,2 °C 87 % 1012,7 hPa 0,0 mm 21,3 km/h (4 Bft) W-NW 290 ° 0 min 0,000 mm 0,0 UV-I 0 W/m² 5,2 °C 3,7 °C 35,4 km/h (5 Bft)
15.03.2019 19:06 7,2 °C 87 % 1012,6 hPa 0,0 mm 21,3 km/h (4 Bft) SW 234 ° 0 min 0,000 mm 0,0 UV-I 0 W/m² 5,2 °C 3,7 °C 40,2 km/h (6 Bft)
15.03.2019 19:07 7,2 °C 87 % 1012,6 hPa 0,0 mm 25,6 km/h (4 Bft) W 263 ° 0 min 0,000 mm 0,0 UV-I 0 W/m² 5,2 °C 3,3 °C 37,0 km/h (5 Bft)
15.03.2019 19:08 7,2 °C 87 % 1012,6 hPa 0,0 mm 23,5 km/h (4 Bft) S-SW 210 ° 0 min 0,000 mm 0,0 UV-I 0 W/m² 5,2 °C 3,5 °C 35,4 km/h (5 Bft)
15.03.2019 19:09 7,2 °C 87 % 1012,5 hPa 0,0 mm 23,3 km/h (4 Bft) W 264 ° 0 min 0,000 mm 0,0 UV-I 0 W/m² 5,2 °C 3,5 °C 38,6 km/h (5 Bft)
15.03.2019 19:10 7,2 °C 87 % 1012,6 hPa 0,0 mm 28,0 km/h (4 Bft) W-SW 248 ° 0 min 0,000 mm 0,0 UV-I 0 W/m² 5,2 °C 3,1 °C 35,4 km/h (5 Bft)
15.03.2019 19:11 7,2 °C 87 % 1012,6 hPa 0,0 mm 15,7 km/h (3 Bft) W 270 ° 0 min 0,000 mm 0,0 UV-I 0 W/m² 5,2 °C 4,4 °C 22,5 km/h (4 Bft)
15.03.2019 19:12 7,2 °C 88 % 1012,6 hPa 0,0 mm 23,0 km/h (4 Bft) W 265 ° 0 min 0,000 mm 0,0 UV-I 0 W/m² 5,3 °C 3,5 °C 29,0 km/h (5 Bft)
15.03.2019 19:13 7,2 °C 88 % 1012,6 hPa 0,0 mm 17,0 km/h (3 Bft) W 263 ° 0 min 0,000 mm 0,0 UV-I 0 W/m² 5,3 °C 4,2 °C 22,5 km/h (4 Bft)
15.03.2019 19:14 7,2 °C 88 % 1012,6 hPa 0,0 mm 19,0 km/h (3 Bft) W 263 ° 0 min 0,000 mm 0,0 UV-I 0 W/m² 5,3 °C 4,0 °C 27,4 km/h (4 Bft)
15.03.2019 19:15 7,2 °C 88 % 1012,7 hPa 0,2 mm 29,3 km/h (5 Bft) W 271 ° 0 min 0,000 mm 0,0 UV-I 0 W/m² 5,3 °C 3,0 °C 38,6 km/h (5 Bft)
15.03.2019 19:16 7,2 °C 88 % 1012,6 hPa 0,0 mm 25,4 km/h (4 Bft) W-SW 242 ° 0 min 0,000 mm 0,0 UV-I 0 W/m² 5,3 °C 3,3 °C 38,6 km/h (5 Bft)
15.03.2019 19:17 7,2 °C 88 % 1012,6 hPa 0,0 mm 23,7 km/h (4 Bft) W 261 ° 0 min 0,000 mm 0,0 UV-I 0 W/m² 5,3 °C 3,5 °C 33,8 km/h (5 Bft)
15.03.2019 19:18 7,2 °C 88 % 1012,6 hPa 0,0 mm 24,9 km/h (4 Bft) W 281 ° 0 min 0,000 mm 0,0 UV-I 0 W/m² 5,3 °C 3,4 °C 35,4 km/h (5 Bft)
15.03.2019 19:19 7,2 °C 88 % 1012,7 hPa 0,0 mm 16,2 km/h (3 Bft) W 262 ° 0 min 0,000 mm 0,0 UV-I 0 W/m² 5,3 °C 4,3 °C 29,0 km/h (5 Bft)
15.03.2019 19:20 7,1 °C 88 % 1012,7 hPa 0,0 mm 24,1 km/h (4 Bft) W 268 ° 0 min 0,000 mm 0,0 UV-I 0 W/m² 5,2 °C 3,3 °C 41,8 km/h (6 Bft)
15.03.2019 19:21 7,2 °C 88 % 1012,7 hPa 0,0 mm 22,3 km/h (4 Bft) W-SW 257 ° 0 min 0,000 mm 0,0 UV-I 0 W/m² 5,3 °C 3,6 °C 37,0 km/h (5 Bft)
15.03.2019 19:22 7,2 °C 88 % 1012,7 hPa 0,0 mm 20,1 km/h (4 Bft) W 275 ° 0 min 0,000 mm 0,0 UV-I 0 W/m² 5,3 °C 3,8 °C 27,4 km/h (4 Bft)
15.03.2019 19:23 7,2 °C 88 % 1012,8 hPa 0,0 mm 17,0 km/h (3 Bft) W-SW 255 ° 0 min 0,000 mm 0,0 UV-I 0 W/m² 5,3 °C 4,2 °C 24,1 km/h (4 Bft)
15.03.2019 19:24 7,1 °C 88 % 1012,7 hPa 0,0 mm 19,6 km/h (3 Bft) W 261 ° 0 min 0,000 mm 0,0 UV-I 0 W/m² 5,2 °C 3,8 °C 25,7 km/h (4 Bft)
15.03.2019 19:25 7,1 °C 88 % 1012,7 hPa 0,0 mm 22,3 km/h (4 Bft) W 273 ° 0 min 0,000 mm 0,0 UV-I 0 W/m² 5,2 °C 3,5 °C 30,6 km/h (5 Bft)
15.03.2019 19:26 7,1 °C 88 % 1012,8 hPa 0,0 mm 20,0 km/h (4 Bft) W-SW 249 ° 0 min 0,000 mm 0,0 UV-I 0 W/m² 5,2 °C 3,7 °C 32,2 km/h (5 Bft)
15.03.2019 19:27 7,2 °C 88 % 1013,1 hPa 0,0 mm 25,9 km/h (4 Bft) W 272 ° 0 min 0,000 mm 0,0 UV-I 0 W/m² 5,3 °C 3,3 °C 37,0 km/h (5 Bft)
15.03.2019 19:28 7,2 °C 88 % 1012,9 hPa 0,0 mm 20,2 km/h (4 Bft) W 281 ° 0 min 0,000 mm 0,0 UV-I 0 W/m² 5,3 °C 3,8 °C 29,0 km/h (5 Bft)
15.03.2019 19:29 7,2 °C 88 % 1012,9 hPa 0,0 mm 21,2 km/h (4 Bft) W-SW 250 ° 0 min 0,000 mm 0,0 UV-I 0 W/m² 5,3 °C 3,7 °C 25,7 km/h (4 Bft)
15.03.2019 19:30 7,1 °C 88 % 1013,0 hPa 0,2 mm 20,2 km/h (4 Bft) W-SW 257 ° 0 min 0,000 mm 0,0 UV-I 0 W/m² 5,2 °C 3,7 °C 35,4 km/h (5 Bft)
15.03.2019 19:31 7,2 °C 88 % 1012,9 hPa 0,0 mm 25,3 km/h (4 Bft) W-SW 246 ° 0 min 0,000 mm 0,0 UV-I 0 W/m² 5,3 °C 3,3 °C 40,2 km/h (6 Bft)
15.03.2019 19:32 7,1 °C 88 % 1012,9 hPa 0,0 mm 21,1 km/h (4 Bft) W-SW 257 ° 0 min 0,000 mm 0,0 UV-I 0 W/m² 5,2 °C 3,6 °C 30,6 km/h (5 Bft)
15.03.2019 19:33 7,1 °C 88 % 1013,0 hPa 0,0 mm 17,8 km/h (3 Bft) W 269 ° 0 min 0,000 mm 0,0 UV-I 0 W/m² 5,2 °C 4,0 °C 20,9 km/h (4 Bft)
15.03.2019 19:34 7,1 °C 88 % 1012,9 hPa 0,0 mm 18,8 km/h (3 Bft) W 271 ° 0 min 0,000 mm 0,0 UV-I 0 W/m² 5,2 °C 3,9 °C 25,7 km/h (4 Bft)
15.03.2019 19:35 7,1 °C 88 % 1013,0 hPa 0,0 mm 19,9 km/h (4 Bft) W-SW 248 ° 0 min 0,000 mm 0,0 UV-I 0 W/m² 5,2 °C 3,7 °C 27,4 km/h (4 Bft)
15.03.2019 19:36 7,1 °C 88 % 1012,9 hPa 0,0 mm 22,4 km/h (4 Bft) W 266 ° 0 min 0,000 mm 0,0 UV-I 0 W/m² 5,2 °C 3,5 °C 33,8 km/h (5 Bft)
15.03.2019 19:37 7,1 °C 88 % 1013,0 hPa 0,0 mm 19,4 km/h (3 Bft) W 273 ° 0 min 0,000 mm 0,0 UV-I 0 W/m² 5,2 °C 3,8 °C 32,2 km/h (5 Bft)
15.03.2019 19:38 7,1 °C 88 % 1013,1 hPa 0,0 mm 18,0 km/h (3 Bft) W-SW 255 ° 0 min 0,000 mm 0,0 UV-I 0 W/m² 5,2 °C 3,9 °C 22,5 km/h (4 Bft)
15.03.2019 19:39 7,1 °C 88 % 1013,0 hPa 0,0 mm 15,3 km/h (3 Bft) W-NW 284 ° 0 min 0,000 mm 0,0 UV-I 0 W/m² 5,2 °C 4,3 °C 22,5 km/h (4 Bft)
15.03.2019 19:40 7,1 °C 88 % 1013,0 hPa 0,0 mm 14,6 km/h (3 Bft) W-SW 257 ° 0 min 0,000 mm 0,0 UV-I 0 W/m² 5,2 °C 4,4 °C 27,4 km/h (4 Bft)
15.03.2019 19:41 7,1 °C 88 % 1013,0 hPa 0,0 mm 16,1 km/h (3 Bft) SW 230 ° 0 min 0,000 mm 0,0 UV-I 0 W/m² 5,2 °C 4,2 °C 22,5 km/h (4 Bft)
15.03.2019 19:42 7,1 °C 88 % 1012,9 hPa 0,0 mm 18,9 km/h (3 Bft) W 277 ° 0 min 0,000 mm 0,0 UV-I 0 W/m² 5,2 °C 3,8 °C 24,1 km/h (4 Bft)
15.03.2019 19:43 7,1 °C 88 % 1013,0 hPa 0,0 mm 18,7 km/h (3 Bft) W-SW 255 ° 0 min 0,000 mm 0,0 UV-I 0 W/m² 5,2 °C 3,9 °C 25,7 km/h (4 Bft)
15.03.2019 19:44 7,1 °C 88 % 1013,0 hPa 0,0 mm 17,7 km/h (3 Bft) W-SW 255 ° 0 min 0,000 mm 0,0 UV-I 0 W/m² 5,2 °C 4,0 °C 24,1 km/h (4 Bft)
15.03.2019 19:45 7,0 °C 88 % 1013,0 hPa 0,0 mm 15,4 km/h (3 Bft) W-SW 253 ° 0 min 0,000 mm 0,0 UV-I 0 W/m² 5,2 °C 4,2 °C 20,9 km/h (4 Bft)
15.03.2019 19:46 7,0 °C 88 % 1013,0 hPa 0,0 mm 18,6 km/h (3 Bft) W-SW 252 ° 0 min 0,000 mm 0,0 UV-I 0 W/m² 5,2 °C 3,8 °C 25,7 km/h (4 Bft)
15.03.2019 19:47 7,0 °C 88 % 1013,0 hPa 0,0 mm 18,7 km/h (3 Bft) W-NW 288 ° 0 min 0,000 mm 0,0 UV-I 0 W/m² 5,2 °C 3,7 °C 30,6 km/h (5 Bft)
15.03.2019 19:48 7,1 °C 88 % 1013,0 hPa 0,0 mm 24,2 km/h (4 Bft) W 265 ° 0 min 0,000 mm 0,0 UV-I 0 W/m² 5,2 °C 3,3 °C 33,8 km/h (5 Bft)
15.03.2019 19:49 7,1 °C 88 % 1013,0 hPa 0,0 mm 21,1 km/h (4 Bft) W 261 ° 0 min 0,000 mm 0,0 UV-I 0 W/m² 5,2 °C 3,6 °C 24,1 km/h (4 Bft)
15.03.2019 19:50 7,1 °C 88 % 1013,1 hPa 0,0 mm 23,5 km/h (4 Bft) W 273 ° 0 min 0,000 mm 0,0 UV-I 0 W/m² 5,2 °C 3,4 °C 29,0 km/h (5 Bft)
15.03.2019 19:51 7,1 °C 88 % 1013,1 hPa 0,0 mm 14,8 km/h (3 Bft) W-SW 253 ° 0 min 0,000 mm 0,0 UV-I 0 W/m² 5,2 °C 4,4 °C 17,7 km/h (3 Bft)
15.03.2019 19:52 7,1 °C 88 % 1013,1 hPa 0,0 mm 17,5 km/h (3 Bft) SW 236 ° 0 min 0,000 mm 0,0 UV-I 0 W/m² 5,2 °C 4,0 °C 20,9 km/h (4 Bft)
15.03.2019 19:53 7,1 °C 88 % 1013,1 hPa 0,0 mm 17,8 km/h (3 Bft) W-SW 252 ° 0 min 0,000 mm 0,0 UV-I 0 W/m² 5,2 °C 4,0 °C 20,9 km/h (4 Bft)
15.03.2019 19:54 7,1 °C 88 % 1013,1 hPa 0,0 mm 20,8 km/h (4 Bft) W 259 ° 0 min 0,000 mm 0,0 UV-I 0 W/m² 5,2 °C 3,6 °C 32,2 km/h (5 Bft)
15.03.2019 19:55 7,1 °C 88 % 1013,1 hPa 0,0 mm 18,7 km/h (3 Bft) W 259 ° 0 min 0,000 mm 0,0 UV-I 0 W/m² 5,2 °C 3,9 °C 27,4 km/h (4 Bft)
15.03.2019 19:56 7,1 °C 88 % 1013,1 hPa 0,0 mm 19,4 km/h (3 Bft) W-SW 249 ° 0 min 0,000 mm 0,0 UV-I 0 W/m² 5,2 °C 3,8 °C 27,4 km/h (4 Bft)
15.03.2019 19:57 7,1 °C 88 % 1013,3 hPa 0,0 mm 15,6 km/h (3 Bft) W 271 ° 0 min 0,000 mm 0,0 UV-I 0 W/m² 5,2 °C 4,3 °C 27,4 km/h (4 Bft)
15.03.2019 19:58 7,1 °C 88 % 1013,1 hPa 0,0 mm 20,3 km/h (4 Bft) W 262 ° 0 min 0,000 mm 0,0 UV-I 0 W/m² 5,2 °C 3,7 °C 29,0 km/h (5 Bft)
15.03.2019 19:59 7,1 °C 88 % 1013,2 hPa 0,0 mm 21,8 km/h (4 Bft) W 271 ° 0 min 0,000 mm 0,0 UV-I 0 W/m² 5,2 °C 3,5 °C 29,0 km/h (5 Bft)
15.03.2019 20:00 7,1 °C 88 % 1013,2 hPa 0,0 mm 21,6 km/h (4 Bft) W-SW 253 ° 0 min 0,000 mm 0,0 UV-I 0 W/m² 5,2 °C 3,5 °C 29,0 km/h (5 Bft)
15.03.2019 20:01 7,1 °C 88 % 1013,1 hPa 0,0 mm 20,6 km/h (4 Bft) W 263 ° 0 min 0,025 mm 0,0 UV-I 0 W/m² 5,2 °C 3,7 °C 30,6 km/h (5 Bft)
15.03.2019 20:02 7,1 °C 88 % 1013,2 hPa 0,0 mm 14,9 km/h (3 Bft) W-SW 250 ° 0 min 0,000 mm 0,0 UV-I 0 W/m² 5,2 °C 4,4 °C 27,4 km/h (4 Bft)
15.03.2019 20:03 7,1 °C 88 % 1013,1 hPa 0,0 mm 18,2 km/h (3 Bft) W 261 ° 0 min 0,000 mm 0,0 UV-I 0 W/m² 5,2 °C 3,9 °C 25,7 km/h (4 Bft)
15.03.2019 20:04 7,1 °C 88 % 1013,0 hPa 0,0 mm 15,2 km/h (3 Bft) S-SW 201 ° 0 min 0,000 mm 0,0 UV-I 0 W/m² 5,2 °C 4,3 °C 22,5 km/h (4 Bft)
15.03.2019 20:05 7,1 °C 88 % 1013,0 hPa 0,2 mm 18,3 km/h (3 Bft) SW 232 ° 0 min 0,000 mm 0,0 UV-I 0 W/m² 5,2 °C 3,9 °C 25,7 km/h (4 Bft)
15.03.2019 20:06 7,1 °C 88 % 1013,0 hPa 0,0 mm 17,0 km/h (3 Bft) W-SW 244 ° 0 min 0,000 mm 0,0 UV-I 0 W/m² 5,2 °C 4,1 °C 24,1 km/h (4 Bft)
15.03.2019 20:07 7,1 °C 88 % 1013,0 hPa 0,0 mm 21,3 km/h (4 Bft) W 265 ° 0 min 0,000 mm 0,0 UV-I 0 W/m² 5,2 °C 3,6 °C 24,1 km/h (4 Bft)
15.03.2019 20:08 7,1 °C 88 % 1012,9 hPa 0,0 mm 16,0 km/h (3 Bft) W 276 ° 0 min 0,000 mm 0,0 UV-I 0 W/m² 5,2 °C 4,2 °C 24,1 km/h (4 Bft)
15.03.2019 20:09 7,1 °C 88 % 1012,9 hPa 0,0 mm 15,0 km/h (3 Bft) W 267 ° 0 min 0,000 mm 0,0 UV-I 0 W/m² 5,2 °C 4,3 °C 19,3 km/h (3 Bft)
15.03.2019 20:10 7,1 °C 88 % 1013,0 hPa 0,0 mm 17,7 km/h (3 Bft) W-SW 255 ° 0 min 0,000 mm 0,0 UV-I 0 W/m² 5,2 °C 4,0 °C 30,6 km/h (5 Bft)
15.03.2019 20:11 7,0 °C 88 % 1012,9 hPa 0,0 mm 21,5 km/h (4 Bft) W-SW 247 ° 0 min 0,000 mm 0,0 UV-I 0 W/m² 5,2 °C 3,4 °C 29,0 km/h (5 Bft)
15.03.2019 20:12 7,0 °C 88 % 1012,9 hPa 0,0 mm 20,0 km/h (4 Bft) W-SW 252 ° 0 min 0,000 mm 0,0 UV-I 0 W/m² 5,2 °C 3,6 °C 30,6 km/h (5 Bft)
15.03.2019 20:13 7,0 °C 88 % 1012,8 hPa 0,0 mm 20,3 km/h (4 Bft) SW 225 ° 0 min 0,000 mm 0,0 UV-I 0 W/m² 5,2 °C 3,6 °C 25,7 km/h (4 Bft)
15.03.2019 20:14 7,0 °C 88 % 1013,0 hPa 0,0 mm 11,7 km/h (2 Bft) W 267 ° 0 min 0,000 mm 0,0 UV-I 0 W/m² 5,2 °C 4,7 °C 17,7 km/h (3 Bft)
15.03.2019 20:15 7,0 °C 88 % 1012,8 hPa 0,0 mm 18,6 km/h (3 Bft) SW 236 ° 0 min 0,000 mm 0,0 UV-I 0 W/m² 5,2 °C 3,8 °C 24,1 km/h (4 Bft)
15.03.2019 20:16 7,0 °C 88 % 1012,8 hPa 0,0 mm 12,1 km/h (2 Bft) W 266 ° 0 min 0,000 mm 0,0 UV-I 0 W/m² 5,2 °C 4,7 °C 16,1 km/h (3 Bft)
15.03.2019 20:17 7,0 °C 88 % 1012,9 hPa 0,0 mm 16,6 km/h (3 Bft) W 271 ° 0 min 0,000 mm 0,0 UV-I 0 W/m² 5,2 °C 4,0 °C 22,5 km/h (4 Bft)
15.03.2019 20:18 6,9 °C 88 % 1012,8 hPa 0,0 mm 17,7 km/h (3 Bft) W 278 ° 0 min 0,000 mm 0,0 UV-I 0 W/m² 5,1 °C 3,7 °C 27,4 km/h (4 Bft)
15.03.2019 20:19 7,0 °C 88 % 1012,9 hPa 0,0 mm 24,3 km/h (4 Bft) W-SW 250 ° 0 min 0,000 mm 0,0 UV-I 0 W/m² 5,2 °C 3,2 °C 32,2 km/h (5 Bft)
15.03.2019 20:20 7,0 °C 88 % 1012,9 hPa 0,0 mm 23,5 km/h (4 Bft) W 265 ° 0 min 0,000 mm 0,0 UV-I 0 W/m² 5,2 °C 3,2 °C 33,8 km/h (5 Bft)
15.03.2019 20:21 7,0 °C 88 % 1012,8 hPa 0,0 mm 16,1 km/h (3 Bft) SW 232 ° 0 min 0,000 mm 0,0 UV-I 0 W/m² 5,2 °C 4,1 °C 22,5 km/h (4 Bft)
15.03.2019 20:22 7,1 °C 88 % 1013,0 hPa 0,0 mm 19,8 km/h (3 Bft) W-SW 255 ° 0 min 0,000 mm 0,0 UV-I 0 W/m² 5,2 °C 3,7 °C 25,7 km/h (4 Bft)
15.03.2019 20:23 7,1 °C 88 % 1013,0 hPa 0,0 mm 15,5 km/h (3 Bft) W 261 ° 0 min 0,000 mm 0,0 UV-I 0 W/m² 5,2 °C 4,3 °C 24,1 km/h (4 Bft)
15.03.2019 20:24 7,1 °C 88 % 1013,0 hPa 0,0 mm 18,9 km/h (3 Bft) W-NW 282 ° 0 min 0,000 mm 0,0 UV-I 0 W/m² 5,2 °C 3,8 °C 25,7 km/h (4 Bft)
15.03.2019 20:25 7,1 °C 88 % 1012,9 hPa 0,0 mm 17,6 km/h (3 Bft) W-SW 238 ° 0 min 0,000 mm 0,0 UV-I 0 W/m² 5,2 °C 4,0 °C 22,5 km/h (4 Bft)
15.03.2019 20:26 7,1 °C 88 % 1012,9 hPa 0,2 mm 23,5 km/h (4 Bft) W 272 ° 0 min 0,000 mm 0,0 UV-I 0 W/m² 5,2 °C 3,4 °C 30,6 km/h (5 Bft)
15.03.2019 20:27 7,1 °C 88 % 1012,9 hPa 0,0 mm 17,5 km/h (3 Bft) W 274 ° 0 min 0,000 mm 0,0 UV-I 0 W/m² 5,2 °C 4,0 °C 24,1 km/h (4 Bft)
15.03.2019 20:28 7,1 °C 88 % 1012,9 hPa 0,0 mm 16,2 km/h (3 Bft) W 270 ° 0 min 0,000 mm 0,0 UV-I 0 W/m² 5,2 °C 4,2 °C 20,9 km/h (4 Bft)
15.03.2019 20:29 7,1 °C 88 % 1013,0 hPa 0,0 mm 25,2 km/h (4 Bft) W 281 ° 0 min 0,000 mm 0,0 UV-I 0 W/m² 5,2 °C 3,2 °C 32,2 km/h (5 Bft)
15.03.2019 20:30 7,1 °C 88 % 1012,8 hPa 0,0 mm 25,0 km/h (4 Bft) W-SW 242 ° 0 min 0,000 mm 0,0 UV-I 0 W/m² 5,2 °C 3,2 °C 41,8 km/h (6 Bft)
15.03.2019 20:31 7,1 °C 88 % 1012,8 hPa 0,0 mm 17,6 km/h (3 Bft) W-SW 254 ° 0 min 0,000 mm 0,0 UV-I 0 W/m² 5,2 °C 4,0 °C 27,4 km/h (4 Bft)
15.03.2019 20:32 7,1 °C 87 % 1012,9 hPa 0,0 mm 20,2 km/h (4 Bft) W 260 ° 0 min 0,000 mm 0,0 UV-I 0 W/m² 5,1 °C 3,7 °C 24,1 km/h (4 Bft)
15.03.2019 20:33 7,2 °C 87 % 1012,8 hPa 0,0 mm 24,0 km/h (4 Bft) W-NW 290 ° 0 min 0,000 mm 0,0 UV-I 0 W/m² 5,2 °C 3,4 °C 38,6 km/h (5 Bft)
15.03.2019 20:34 7,2 °C 87 % 1012,8 hPa 0,0 mm 20,2 km/h (4 Bft) W-SW 246 ° 0 min 0,000 mm 0,0 UV-I 0 W/m² 5,2 °C 3,8 °C 27,4 km/h (4 Bft)
15.03.2019 20:35 7,2 °C 87 % 1012,8 hPa 0,0 mm 24,1 km/h (4 Bft) SW 223 ° 0 min 0,000 mm 0,0 UV-I 0 W/m² 5,2 °C 3,4 °C 33,8 km/h (5 Bft)
15.03.2019 20:36 7,2 °C 87 % 1012,9 hPa 0,0 mm 15,6 km/h (3 Bft) W-SW 248 ° 0 min 0,000 mm 0,0 UV-I 0 W/m² 5,2 °C 4,4 °C 19,3 km/h (3 Bft)
15.03.2019 20:37 7,2 °C 87 % 1013,0 hPa 0,0 mm 22,2 km/h (4 Bft) W-NW 292 ° 0 min 0,000 mm 0,0 UV-I 0 W/m² 5,2 °C 3,6 °C 37,0 km/h (5 Bft)
15.03.2019 20:38 7,2 °C 87 % 1012,9 hPa 0,0 mm 19,2 km/h (3 Bft) W 271 ° 0 min 0,000 mm 0,0 UV-I 0 W/m² 5,2 °C 3,9 °C 25,7 km/h (4 Bft)
15.03.2019 20:39 7,3 °C 87 % 1013,0 hPa 0,0 mm 18,7 km/h (3 Bft) W 267 ° 0 min 0,000 mm 0,0 UV-I 0 W/m² 5,3 °C 4,1 °C 35,4 km/h (5 Bft)
15.03.2019 20:40 7,3 °C 86 % 1013,1 hPa 0,0 mm 23,7 km/h (4 Bft) W 260 ° 0 min 0,000 mm 0,0 UV-I 0 W/m² 5,1 °C 3,6 °C 37,0 km/h (5 Bft)
15.03.2019 20:41 7,3 °C 86 % 1013,1 hPa 0,0 mm 23,4 km/h (4 Bft) SW 218 ° 0 min 0,000 mm 0,0 UV-I 0 W/m² 5,1 °C 3,6 °C 37,0 km/h (5 Bft)
15.03.2019 20:42 7,3 °C 86 % 1013,0 hPa 0,0 mm 16,9 km/h (3 Bft) W 277 ° 0 min 0,000 mm 0,0 UV-I 0 W/m² 5,1 °C 4,3 °C 22,5 km/h (4 Bft)
15.03.2019 20:43 7,3 °C 86 % 1013,1 hPa 0,0 mm 20,5 km/h (4 Bft) W-SW 255 ° 0 min 0,000 mm 0,0 UV-I 0 W/m² 5,1 °C 3,9 °C 27,4 km/h (4 Bft)
15.03.2019 20:44 7,4 °C 86 % 1013,0 hPa 0,0 mm 18,0 km/h (3 Bft) W 264 ° 0 min 0,000 mm 0,0 UV-I 0 W/m² 5,2 °C 4,3 °C 27,4 km/h (4 Bft)
15.03.2019 20:45 7,4 °C 86 % 1013,0 hPa 0,0 mm 20,8 km/h (4 Bft) W 276 ° 0 min 0,000 mm 0,0 UV-I 0 W/m² 5,2 °C 4,0 °C 32,2 km/h (5 Bft)
15.03.2019 20:46 7,4 °C 85 % 1013,1 hPa 0,0 mm 26,6 km/h (4 Bft) W-SW 258 ° 0 min 0,000 mm 0,0 UV-I 0 W/m² 5,0 °C 3,5 °C 30,6 km/h (5 Bft)
15.03.2019 20:47 7,4 °C 85 % 1013,1 hPa 0,0 mm 21,5 km/h (4 Bft) W 265 ° 0 min 0,000 mm 0,0 UV-I 0 W/m² 5,0 °C 3,9 °C 30,6 km/h (5 Bft)
15.03.2019 20:48 7,4 °C 85 % 1013,2 hPa 0,0 mm 20,1 km/h (4 Bft) W 269 ° 0 min 0,000 mm 0,0 UV-I 0 W/m² 5,0 °C 4,1 °C 32,2 km/h (5 Bft)
15.03.2019 20:49 7,4 °C 85 % 1013,2 hPa 0,0 mm 23,9 km/h (4 Bft) W-NW 284 ° 0 min 0,000 mm 0,0 UV-I 0 W/m² 5,0 °C 3,7 °C 40,2 km/h (6 Bft)
15.03.2019 20:50 7,4 °C 85 % 1013,1 hPa 0,0 mm 24,6 km/h (4 Bft) W 265 ° 0 min 0,000 mm 0,0 UV-I 0 W/m² 5,0 °C 3,6 °C 29,0 km/h (5 Bft)
15.03.2019 20:51 7,4 °C 85 % 1013,1 hPa 0,0 mm 21,0 km/h (4 Bft) W 261 ° 0 min 0,000 mm 0,0 UV-I 0 W/m² 5,0 °C 4,0 °C 30,6 km/h (5 Bft)
15.03.2019 20:52 7,5 °C 85 % 1013,1 hPa 0,0 mm 18,6 km/h (3 Bft) W 271 ° 0 min 0,000 mm 0,0 UV-I 0 W/m² 5,1 °C 4,4 °C 27,4 km/h (4 Bft)
15.03.2019 20:53 7,5 °C 85 % 1013,1 hPa 0,0 mm 25,3 km/h (4 Bft) NW 313 ° 0 min 0,000 mm 0,0 UV-I 0 W/m² 5,1 °C 3,7 °C 43,5 km/h (6 Bft)
15.03.2019 20:54 7,6 °C 85 % 1013,1 hPa 0,0 mm 23,5 km/h (4 Bft) W 269 ° 0 min 0,000 mm 0,0 UV-I 0 W/m² 5,2 °C 4,0 °C 35,4 km/h (5 Bft)
15.03.2019 20:55 7,5 °C 85 % 1013,0 hPa 0,0 mm 28,2 km/h (4 Bft) W 264 ° 0 min 0,000 mm 0,0 UV-I 0 W/m² 5,1 °C 3,5 °C 33,8 km/h (5 Bft)
15.03.2019 20:56 7,6 °C 84 % 1012,9 hPa 0,0 mm 25,9 km/h (4 Bft) W 278 ° 0 min 0,000 mm 0,0 UV-I 0 W/m² 5,1 °C 3,8 °C 35,4 km/h (5 Bft)
15.03.2019 20:57 7,6 °C 84 % 1013,1 hPa 0,0 mm 25,7 km/h (4 Bft) W 265 ° 0 min 0,000 mm 0,0 UV-I 0 W/m² 5,1 °C 3,8 °C 45,1 km/h (6 Bft)
15.03.2019 20:58 7,6 °C 84 % 1013,0 hPa 0,0 mm 24,5 km/h (4 Bft) W-SW 238 ° 0 min 0,000 mm 0,0 UV-I 0 W/m² 5,1 °C 3,9 °C 37,0 km/h (5 Bft)
15.03.2019 20:59 7,6 °C 84 % 1013,1 hPa 0,0 mm 21,5 km/h (4 Bft) W 265 ° 0 min 0,000 mm 0,0 UV-I 0 W/m² 5,1 °C 4,2 °C 32,2 km/h (5 Bft)
15.03.2019 21:00 7,6 °C 84 % 1013,1 hPa 0,0 mm 23,8 km/h (4 Bft) W-SW 252 ° 0 min 0,000 mm 0,0 UV-I 0 W/m² 5,1 °C 4,0 °C 35,4 km/h (5 Bft)
15.03.2019 21:01 7,6 °C 84 % 1013,0 hPa 0,0 mm 20,9 km/h (4 Bft) W-SW 254 ° 0 min 0,025 mm 0,0 UV-I 0 W/m² 5,1 °C 4,3 °C 29,0 km/h (5 Bft)
15.03.2019 21:02 7,6 °C 84 % 1013,1 hPa 0,0 mm 26,2 km/h (4 Bft) W-SW 256 ° 0 min 0,000 mm 0,0 UV-I 0 W/m² 5,1 °C 3,8 °C 41,8 km/h (6 Bft)
15.03.2019 21:03 7,6 °C 84 % 1013,0 hPa 0,0 mm 32,1 km/h (5 Bft) W 270 ° 0 min 0,000 mm 0,0 UV-I 0 W/m² 5,1 °C 3,3 °C 46,7 km/h (6 Bft)
15.03.2019 21:04 7,7 °C 84 % 1013,1 hPa 0,0 mm 28,0 km/h (4 Bft) W 273 ° 0 min 0,000 mm 0,0 UV-I 0 W/m² 5,2 °C 3,7 °C 49,9 km/h (6 Bft)
15.03.2019 21:05 7,7 °C 84 % 1013,0 hPa 0,0 mm 29,0 km/h (5 Bft) W 260 ° 0 min 0,000 mm 0,0 UV-I 0 W/m² 5,2 °C 3,7 °C 49,9 km/h (6 Bft)
15.03.2019 21:06 7,7 °C 84 % 1012,9 hPa 0,0 mm 22,3 km/h (4 Bft) W 279 ° 0 min 0,000 mm 0,0 UV-I 0 W/m² 5,2 °C 4,2 °C 38,6 km/h (5 Bft)
15.03.2019 21:07 7,7 °C 84 % 1013,0 hPa 0,0 mm 21,7 km/h (4 Bft) W-SW 255 ° 0 min 0,000 mm 0,0 UV-I 0 W/m² 5,2 °C 4,3 °C 41,8 km/h (6 Bft)
15.03.2019 21:08 7,7 °C 84 % 1012,9 hPa 0,0 mm 22,1 km/h (4 Bft) W-SW 246 ° 0 min 0,000 mm 0,0 UV-I 0 W/m² 5,2 °C 4,3 °C 25,7 km/h (4 Bft)
15.03.2019 21:09 7,7 °C 84 % 1013,0 hPa 0,0 mm 15,2 km/h (3 Bft) W 272 ° 0 min 0,000 mm 0,0 UV-I 0 W/m² 5,2 °C 5,1 °C 19,3 km/h (3 Bft)
15.03.2019 21:10 7,7 °C 84 % 1013,0 hPa 0,0 mm 18,4 km/h (3 Bft) W-SW 254 ° 0 min 0,000 mm 0,0 UV-I 0 W/m² 5,2 °C 4,7 °C 29,0 km/h (5 Bft)
15.03.2019 21:11 7,7 °C 84 % 1013,0 hPa 0,0 mm 27,9 km/h (4 Bft) W 267 ° 0 min 0,000 mm 0,0 UV-I 0 W/m² 5,2 °C 3,7 °C 33,8 km/h (5 Bft)
15.03.2019 21:12 7,7 °C 84 % 1013,1 hPa 0,0 mm 18,0 km/h (3 Bft) W 263 ° 0 min 0,000 mm 0,0 UV-I 0 W/m² 5,2 °C 4,7 °C 24,1 km/h (4 Bft)
15.03.2019 21:13 7,7 °C 84 % 1013,0 hPa 0,0 mm 18,2 km/h (3 Bft) W-SW 244 ° 0 min 0,000 mm 0,0 UV-I 0 W/m² 5,2 °C 4,7 °C 24,1 km/h (4 Bft)
15.03.2019 21:14 7,7 °C 84 % 1013,1 hPa 0,0 mm 21,1 km/h (4 Bft) SW 218 ° 0 min 0,000 mm 0,0 UV-I 0 W/m² 5,2 °C 4,4 °C 30,6 km/h (5 Bft)
15.03.2019 21:15 7,7 °C 84 % 1013,1 hPa 0,0 mm 27,0 km/h (4 Bft) W 271 ° 0 min 0,000 mm 0,0 UV-I 0 W/m² 5,2 °C 3,8 °C 41,8 km/h (6 Bft)
15.03.2019 21:16 7,7 °C 83 % 1013,1 hPa 0,0 mm 17,6 km/h (3 Bft) W 270 ° 0 min 0,000 mm 0,0 UV-I 0 W/m² 5,0 °C 4,7 °C 24,1 km/h (4 Bft)
15.03.2019 21:17 7,7 °C 83 % 1013,2 hPa 0,0 mm 19,9 km/h (4 Bft) W-NW 294 ° 0 min 0,000 mm 0,0 UV-I 0 W/m² 5,0 °C 4,5 °C 30,6 km/h (5 Bft)
15.03.2019 21:18 7,7 °C 83 % 1013,1 hPa 0,0 mm 21,7 km/h (4 Bft) W 266 ° 0 min 0,000 mm 0,0 UV-I 0 W/m² 5,0 °C 4,3 °C 35,4 km/h (5 Bft)
15.03.2019 21:19 7,7 °C 83 % 1013,1 hPa 0,0 mm 23,3 km/h (4 Bft) W 262 ° 0 min 0,000 mm 0,0 UV-I 0 W/m² 5,0 °C 4,1 °C 29,0 km/h (5 Bft)
15.03.2019 21:20 7,7 °C 83 % 1013,2 hPa 0,0 mm 16,8 km/h (3 Bft) W-SW 255 ° 0 min 0,000 mm 0,0 UV-I 0 W/m² 5,0 °C 4,8 °C 24,1 km/h (4 Bft)
15.03.2019 21:21 7,7 °C 83 % 1013,2 hPa 0,0 mm 21,6 km/h (4 Bft) W 272 ° 0 min 0,000 mm 0,0 UV-I 0 W/m² 5,0 °C 4,3 °C 40,2 km/h (6 Bft)
15.03.2019 21:22 7,7 °C 83 % 1013,2 hPa 0,0 mm 25,7 km/h (4 Bft) W-SW 244 ° 0 min 0,000 mm 0,0 UV-I 0 W/m² 5,0 °C 3,9 °C 32,2 km/h (5 Bft)
15.03.2019 21:23 7,8 °C 83 % 1013,1 hPa 0,0 mm 16,1 km/h (3 Bft) W 275 ° 0 min 0,000 mm 0,0 UV-I 0 W/m² 5,1 °C 5,1 °C 32,2 km/h (5 Bft)
15.03.2019 21:24 7,8 °C 83 % 1013,1 hPa 0,0 mm 22,3 km/h (4 Bft) W 266 ° 0 min 0,000 mm 0,0 UV-I 0 W/m² 5,1 °C 4,4 °C 33,8 km/h (5 Bft)
15.03.2019 21:25 7,8 °C 83 % 1013,1 hPa 0,0 mm 22,3 km/h (4 Bft) W-SW 242 ° 0 min 0,000 mm 0,0 UV-I 0 W/m² 5,1 °C 4,4 °C 30,6 km/h (5 Bft)
15.03.2019 21:26 7,8 °C 83 % 1013,0 hPa 0,0 mm 21,1 km/h (4 Bft) W 269 ° 0 min 0,000 mm 0,0 UV-I 0 W/m² 5,1 °C 4,5 °C 35,4 km/h (5 Bft)
15.03.2019 21:27 7,8 °C 83 % 1013,1 hPa 0,0 mm 25,2 km/h (4 Bft) W 259 ° 0 min 0,000 mm 0,0 UV-I 0 W/m² 5,1 °C 4,1 °C 40,2 km/h (6 Bft)
15.03.2019 21:28 7,8 °C 83 % 1013,1 hPa 0,0 mm 21,0 km/h (4 Bft) W-NW 286 ° 0 min 0,000 mm 0,0 UV-I 0 W/m² 5,1 °C 4,5 °C 30,6 km/h (5 Bft)
15.03.2019 21:29 7,8 °C 83 % 1013,2 hPa 0,0 mm 20,7 km/h (4 Bft) NW 311 ° 0 min 0,000 mm 0,0 UV-I 0 W/m² 5,1 °C 4,5 °C 27,4 km/h (4 Bft)
15.03.2019 21:30 7,8 °C 83 % 1013,1 hPa 0,0 mm 23,8 km/h (4 Bft) W 270 ° 0 min 0,000 mm 0,0 UV-I 0 W/m² 5,1 °C 4,2 °C 35,4 km/h (5 Bft)
15.03.2019 21:31 7,8 °C 83 % 1013,1 hPa 0,0 mm 17,0 km/h (3 Bft) W 265 ° 0 min 0,000 mm 0,0 UV-I 0 W/m² 5,1 °C 4,9 °C 25,7 km/h (4 Bft)
15.03.2019 21:32 7,8 °C 82 % 1013,2 hPa 0,0 mm 19,0 km/h (3 Bft) W 270 ° 0 min 0,000 mm 0,0 UV-I 0 W/m² 4,9 °C 4,7 °C 29,0 km/h (5 Bft)
15.03.2019 21:33 7,8 °C 82 % 1013,2 hPa 0,0 mm 26,9 km/h (4 Bft) W 270 ° 0 min 0,000 mm 0,0 UV-I 0 W/m² 4,9 °C 4,0 °C 37,0 km/h (5 Bft)
15.03.2019 21:34 7,8 °C 82 % 1013,1 hPa 0,0 mm 19,2 km/h (3 Bft) W 259 ° 0 min 0,000 mm 0,0 UV-I 0 W/m² 4,9 °C 4,7 °C 32,2 km/h (5 Bft)
15.03.2019 21:35 7,8 °C 82 % 1013,3 hPa 0,0 mm 20,6 km/h (4 Bft) W 265 ° 0 min 0,000 mm 0,0 UV-I 0 W/m² 4,9 °C 4,5 °C 29,0 km/h (5 Bft)
15.03.2019 21:36 7,8 °C 82 % 1013,5 hPa 0,0 mm 25,9 km/h (4 Bft) W 274 ° 0 min 0,000 mm 0,0 UV-I 0 W/m² 4,9 °C 4,0 °C 43,5 km/h (6 Bft)
15.03.2019 21:37 7,9 °C 82 % 1013,4 hPa 0,0 mm 24,8 km/h (4 Bft) W-SW 246 ° 0 min 0,000 mm 0,0 UV-I 0 W/m² 5,0 °C 4,3 °C 33,8 km/h (5 Bft)
15.03.2019 21:38 7,9 °C 82 % 1013,3 hPa 0,0 mm 20,2 km/h (4 Bft) W 265 ° 0 min 0,000 mm 0,0 UV-I 0 W/m² 5,0 °C 4,7 °C 29,0 km/h (5 Bft)
15.03.2019 21:39 7,9 °C 82 % 1013,4 hPa 0,0 mm 24,0 km/h (4 Bft) W 264 ° 0 min 0,000 mm 0,0 UV-I 0 W/m² 5,0 °C 4,3 °C 37,0 km/h (5 Bft)
15.03.2019 21:40 7,9 °C 82 % 1013,4 hPa 0,0 mm 23,5 km/h (4 Bft) W-SW 257 ° 0 min 0,000 mm 0,0 UV-I 0 W/m² 5,0 °C 4,4 °C 32,2 km/h (5 Bft)
15.03.2019 21:41 7,9 °C 82 % 1013,4 hPa 0,0 mm 17,6 km/h (3 Bft) W-SW 248 ° 0 min 0,000 mm 0,0 UV-I 0 W/m² 5,0 °C 5,0 °C 27,4 km/h (4 Bft)
15.03.2019 21:42 7,9 °C 82 % 1013,4 hPa 0,0 mm 23,3 km/h (4 Bft) W 275 ° 0 min 0,000 mm 0,0 UV-I 0 W/m² 5,0 °C 4,4 °C 33,8 km/h (5 Bft)
15.03.2019 21:43 7,9 °C 82 % 1013,3 hPa 0,0 mm 25,6 km/h (4 Bft) W-SW 250 ° 0 min 0,000 mm 0,0 UV-I 0 W/m² 5,0 °C 4,2 °C 33,8 km/h (5 Bft)
15.03.2019 21:44 8,0 °C 82 % 1013,3 hPa 0,0 mm 20,2 km/h (4 Bft) W 265 ° 0 min 0,000 mm 0,0 UV-I 0 W/m² 5,1 °C 4,8 °C 40,2 km/h (6 Bft)
15.03.2019 21:45 8,0 °C 81 % 1013,3 hPa 0,0 mm 22,8 km/h (4 Bft) W-NW 297 ° 0 min 0,000 mm 0,0 UV-I 0 W/m² 4,9 °C 4,6 °C 33,8 km/h (5 Bft)
15.03.2019 21:46 8,0 °C 81 % 1013,2 hPa 0,0 mm 27,1 km/h (4 Bft) W-SW 251 ° 0 min 0,000 mm 0,0 UV-I 0 W/m² 4,9 °C 4,2 °C 33,8 km/h (5 Bft)
15.03.2019 21:47 8,1 °C 81 % 1013,4 hPa 0,0 mm 16,7 km/h (3 Bft) W-SW 252 ° 0 min 0,000 mm 0,0 UV-I 0 W/m² 5,0 °C 5,4 °C 22,5 km/h (4 Bft)
15.03.2019 21:48 8,1 °C 81 % 1013,2 hPa 0,0 mm 19,2 km/h (3 Bft) W 263 ° 0 min 0,000 mm 0,0 UV-I 0 W/m² 5,0 °C 5,1 °C 33,8 km/h (5 Bft)
15.03.2019 21:49 8,1 °C 81 % 1013,2 hPa 0,0 mm 19,0 km/h (3 Bft) W 259 ° 0 min 0,000 mm 0,0 UV-I 0 W/m² 5,0 °C 5,1 °C 29,0 km/h (5 Bft)
15.03.2019 21:50 8,1 °C 81 % 1013,2 hPa 0,0 mm 17,0 km/h (3 Bft) W 263 ° 0 min 0,000 mm 0,0 UV-I 0 W/m² 5,0 °C 5,3 °C 29,0 km/h (5 Bft)
15.03.2019 21:51 8,1 °C 81 % 1013,2 hPa 0,0 mm 21,1 km/h (4 Bft) W-SW 238 ° 0 min 0,000 mm 0,0 UV-I 0 W/m² 5,0 °C 4,9 °C 30,6 km/h (5 Bft)
15.03.2019 21:52 8,1 °C 81 % 1013,1 hPa 0,0 mm 17,0 km/h (3 Bft) W-SW 257 ° 0 min 0,000 mm 0,0 UV-I 0 W/m² 5,0 °C 5,3 °C 22,5 km/h (4 Bft)
15.03.2019 21:53 8,1 °C 81 % 1013,2 hPa 0,0 mm 24,3 km/h (4 Bft) W-SW 252 ° 0 min 0,000 mm 0,0 UV-I 0 W/m² 5,0 °C 4,6 °C 33,8 km/h (5 Bft)
15.03.2019 21:54 8,1 °C 81 % 1013,1 hPa 0,0 mm 20,4 km/h (4 Bft) W 272 ° 0 min 0,000 mm 0,0 UV-I 0 W/m² 5,0 °C 4,9 °C 29,0 km/h (5 Bft)
15.03.2019 21:55 8,1 °C 81 % 1013,2 hPa 0,0 mm 22,1 km/h (4 Bft) W-SW 252 ° 0 min 0,000 mm 0,0 UV-I 0 W/m² 5,0 °C 4,8 °C 33,8 km/h (5 Bft)
15.03.2019 21:56 8,1 °C 81 % 1013,2 hPa 0,0 mm 19,6 km/h (3 Bft) W 263 ° 0 min 0,000 mm 0,0 UV-I 0 W/m² 5,0 °C 5,0 °C 30,6 km/h (5 Bft)
15.03.2019 21:57 8,1 °C 81 % 1013,2 hPa 0,0 mm 17,1 km/h (3 Bft) W-SW 238 ° 0 min 0,000 mm 0,0 UV-I 0 W/m² 5,0 °C 5,3 °C 22,5 km/h (4 Bft)
15.03.2019 21:58 8,1 °C 81 % 1013,1 hPa 0,0 mm 19,4 km/h (3 Bft) W-NW 294 ° 0 min 0,000 mm 0,0 UV-I 0 W/m² 5,0 °C 5,0 °C 29,0 km/h (5 Bft)
15.03.2019 21:59 8,1 °C 81 % 1013,2 hPa 0,0 mm 18,4 km/h (3 Bft) W 261 ° 0 min 0,000 mm 0,0 UV-I 0 W/m² 5,0 °C 5,2 °C 27,4 km/h (4 Bft)
15.03.2019 22:00 8,1 °C 81 % 1013,3 hPa 0,0 mm 18,5 km/h (3 Bft) W-NW 291 ° 0 min 0,000 mm 0,0 UV-I 0 W/m² 5,0 °C 5,1 °C 27,4 km/h (4 Bft)
15.03.2019 22:01 8,1 °C 81 % 1013,1 hPa 0,0 mm 17,4 km/h (3 Bft) W 259 ° 0 min 0,026 mm 0,0 UV-I 0 W/m² 5,0 °C 5,3 °C 25,7 km/h (4 Bft)
15.03.2019 22:02 8,1 °C 81 % 1013,3 hPa 0,0 mm 17,6 km/h (3 Bft) W 259 ° 0 min 0,000 mm 0,0 UV-I 0 W/m² 5,0 °C 5,2 °C 27,4 km/h (4 Bft)
15.03.2019 22:03 8,1 °C 80 % 1013,2 hPa 0,0 mm 21,8 km/h (4 Bft) W-SW 252 ° 0 min 0,000 mm 0,0 UV-I 0 W/m² 4,9 °C 4,8 °C 37,0 km/h (5 Bft)
15.03.2019 22:04 8,1 °C 81 % 1013,3 hPa 0,0 mm 16,4 km/h (3 Bft) W-NW 292 ° 0 min 0,000 mm 0,0 UV-I 0 W/m² 5,0 °C 5,4 °C 19,3 km/h (3 Bft)
15.03.2019 22:05 8,1 °C 81 % 1013,4 hPa 0,0 mm 17,4 km/h (3 Bft) W 263 ° 0 min 0,000 mm 0,0 UV-I 0 W/m² 5,0 °C 5,3 °C 24,1 km/h (4 Bft)
15.03.2019 22:06 8,2 °C 80 % 1013,3 hPa 0,0 mm 16,5 km/h (3 Bft) W-SW 257 ° 0 min 0,000 mm 0,0 UV-I 0 W/m² 5,0 °C 5,5 °C 22,5 km/h (4 Bft)
15.03.2019 22:07 8,2 °C 80 % 1013,5 hPa 0,0 mm 25,0 km/h (4 Bft) W 262 ° 0 min 0,000 mm 0,0 UV-I 0 W/m² 5,0 °C 4,6 °C 43,5 km/h (6 Bft)
15.03.2019 22:08 8,2 °C 80 % 1013,3 hPa 0,0 mm 27,5 km/h (4 Bft) W-SW 254 ° 0 min 0,000 mm 0,0 UV-I 0 W/m² 5,0 °C 4,4 °C 37,0 km/h (5 Bft)
15.03.2019 22:09 8,2 °C 80 % 1013,3 hPa 0,0 mm 25,7 km/h (4 Bft) W-NW 288 ° 0 min 0,000 mm 0,0 UV-I 0 W/m² 5,0 °C 4,6 °C 41,8 km/h (6 Bft)
15.03.2019 22:10 8,2 °C 80 % 1013,3 hPa 0,0 mm 23,9 km/h (4 Bft) W-NW 286 ° 0 min 0,000 mm 0,0 UV-I 0 W/m² 5,0 °C 4,7 °C 37,0 km/h (5 Bft)
15.03.2019 22:11 8,2 °C 80 % 1013,5 hPa 0,0 mm 24,6 km/h (4 Bft) W 269 ° 0 min 0,000 mm 0,0 UV-I 0 W/m² 5,0 °C 4,7 °C 33,8 km/h (5 Bft)
15.03.2019 22:12 8,3 °C 80 % 1013,5 hPa 0,0 mm 24,7 km/h (4 Bft) W 263 ° 0 min 0,000 mm 0,0 UV-I 0 W/m² 5,1 °C 4,8 °C 38,6 km/h (5 Bft)
15.03.2019 22:13 8,3 °C 80 % 1013,4 hPa 0,0 mm 26,5 km/h (4 Bft) W-NW 290 ° 0 min 0,000 mm 0,0 UV-I 0 W/m² 5,1 °C 4,6 °C 40,2 km/h (6 Bft)
15.03.2019 22:14 8,3 °C 80 % 1013,4 hPa 0,0 mm 14,2 km/h (3 Bft) W-SW 250 ° 0 min 0,000 mm 0,0 UV-I 0 W/m² 5,1 °C 5,9 °C 20,9 km/h (4 Bft)
15.03.2019 22:15 8,3 °C 80 % 1013,4 hPa 0,0 mm 23,3 km/h (4 Bft) W 259 ° 0 min 0,000 mm 0,0 UV-I 0 W/m² 5,1 °C 4,9 °C 35,4 km/h (5 Bft)
15.03.2019 22:16 8,3 °C 80 % 1013,4 hPa 0,0 mm 20,9 km/h (4 Bft) W-SW 256 ° 0 min 0,000 mm 0,0 UV-I 0 W/m² 5,1 °C 5,1 °C 29,0 km/h (5 Bft)
15.03.2019 22:17 8,3 °C 80 % 1013,4 hPa 0,0 mm 23,7 km/h (4 Bft) SW 233 ° 0 min 0,000 mm 0,0 UV-I 0 W/m² 5,1 °C 4,9 °C 40,2 km/h (6 Bft)
15.03.2019 22:18 8,3 °C 80 % 1013,4 hPa 0,0 mm 22,3 km/h (4 Bft) W-SW 237 ° 0 min 0,000 mm 0,0 UV-I 0 W/m² 5,1 °C 5,0 °C 29,0 km/h (5 Bft)
15.03.2019 22:19 8,3 °C 80 % 1013,5 hPa 0,0 mm 19,2 km/h (3 Bft) W-SW 256 ° 0 min 0,000 mm 0,0 UV-I 0 W/m² 5,1 °C 5,3 °C 29,0 km/h (5 Bft)
15.03.2019 22:20 8,3 °C 79 % 1013,4 hPa 0,0 mm 25,2 km/h (4 Bft) W-NW 292 ° 0 min 0,000 mm 0,0 UV-I 0 W/m² 4,9 °C 4,7 °C 41,8 km/h (6 Bft)
15.03.2019 22:21 8,3 °C 80 % 1013,5 hPa 0,0 mm 21,1 km/h (4 Bft) W 261 ° 0 min 0,000 mm 0,0 UV-I 0 W/m² 5,1 °C 5,1 °C 32,2 km/h (5 Bft)
15.03.2019 22:22 8,3 °C 80 % 1013,4 hPa 0,0 mm 14,5 km/h (3 Bft) W 274 ° 0 min 0,000 mm 0,0 UV-I 0 W/m² 5,1 °C 5,9 °C 22,5 km/h (4 Bft)
15.03.2019 22:23 8,3 °C 80 % 1013,5 hPa 0,0 mm 18,0 km/h (3 Bft) NW 306 ° 0 min 0,000 mm 0,0 UV-I 0 W/m² 5,1 °C 5,4 °C 24,1 km/h (4 Bft)
15.03.2019 22:24 8,3 °C 80 % 1013,4 hPa 0,0 mm 16,8 km/h (3 Bft) W 272 ° 0 min 0,000 mm 0,0 UV-I 0 W/m² 5,1 °C 5,6 °C 22,5 km/h (4 Bft)
15.03.2019 22:25 8,3 °C 80 % 1013,5 hPa 0,0 mm 22,9 km/h (4 Bft) W 269 ° 0 min 0,000 mm 0,0 UV-I 0 W/m² 5,1 °C 4,9 °C 32,2 km/h (5 Bft)
15.03.2019 22:26 8,3 °C 80 % 1013,5 hPa 0,0 mm 26,8 km/h (4 Bft) W 278 ° 0 min 0,000 mm 0,0 UV-I 0 W/m² 5,1 °C 4,6 °C 38,6 km/h (5 Bft)
15.03.2019 22:27 8,3 °C 79 % 1013,5 hPa 0,0 mm 22,6 km/h (4 Bft) W-SW 254 ° 0 min 0,000 mm 0,0 UV-I 0 W/m² 4,9 °C 5,0 °C 29,0 km/h (5 Bft)
15.03.2019 22:28 8,3 °C 79 % 1013,5 hPa 0,0 mm 19,9 km/h (4 Bft) W 269 ° 0 min 0,000 mm 0,0 UV-I 0 W/m² 4,9 °C 5,2 °C 32,2 km/h (5 Bft)
15.03.2019 22:29 8,3 °C 79 % 1013,4 hPa 0,0 mm 20,5 km/h (4 Bft) W 264 ° 0 min 0,000 mm 0,0 UV-I 0 W/m² 4,9 °C 5,2 °C 29,0 km/h (5 Bft)
15.03.2019 22:30 8,3 °C 79 % 1013,5 hPa 0,0 mm 25,7 km/h (4 Bft) W-NW 301 ° 0 min 0,000 mm 0,0 UV-I 0 W/m² 4,9 °C 4,7 °C 33,8 km/h (5 Bft)
15.03.2019 22:31 8,3 °C 79 % 1013,4 hPa 0,0 mm 24,1 km/h (4 Bft) W-SW 246 ° 0 min 0,000 mm 0,0 UV-I 0 W/m² 4,9 °C 4,8 °C 33,8 km/h (5 Bft)
15.03.2019 22:32 8,3 °C 79 % 1013,3 hPa 0,0 mm 17,6 km/h (3 Bft) W 259 ° 0 min 0,000 mm 0,0 UV-I 0 W/m² 4,9 °C 5,5 °C 25,7 km/h (4 Bft)
15.03.2019 22:33 8,3 °C 79 % 1013,4 hPa 0,0 mm 18,1 km/h (3 Bft) S-SW 213 ° 0 min 0,000 mm 0,0 UV-I 0 W/m² 4,9 °C 5,4 °C 27,4 km/h (4 Bft)
15.03.2019 22:34 8,3 °C 80 % 1013,3 hPa 0,0 mm 19,4 km/h (3 Bft) W-NW 286 ° 0 min 0,000 mm 0,0 UV-I 0 W/m² 5,1 °C 5,3 °C 32,2 km/h (5 Bft)
15.03.2019 22:35 8,3 °C 79 % 1013,3 hPa 0,0 mm 21,4 km/h (4 Bft) W-SW 251 ° 0 min 0,000 mm 0,0 UV-I 0 W/m² 4,9 °C 5,1 °C 27,4 km/h (4 Bft)
15.03.2019 22:36 8,3 °C 79 % 1013,2 hPa 0,0 mm 17,4 km/h (3 Bft) W 262 ° 0 min 0,000 mm 0,0 UV-I 0 W/m² 4,9 °C 5,5 °C 27,4 km/h (4 Bft)
15.03.2019 22:37 8,3 °C 79 % 1013,5 hPa 0,0 mm 32,2 km/h (5 Bft) W 261 ° 0 min 0,000 mm 0,0 UV-I 0 W/m² 4,9 °C 4,2 °C 46,7 km/h (6 Bft)
15.03.2019 22:38 8,3 °C 79 % 1013,3 hPa 0,0 mm 31,6 km/h (5 Bft) W 260 ° 0 min 0,000 mm 0,0 UV-I 0 W/m² 4,9 °C 4,2 °C 46,7 km/h (6 Bft)
15.03.2019 22:39 8,3 °C 79 % 1013,4 hPa 0,0 mm 31,7 km/h (5 Bft) W-NW 301 ° 0 min 0,000 mm 0,0 UV-I 0 W/m² 4,9 °C 4,2 °C 49,9 km/h (6 Bft)
15.03.2019 22:40 8,3 °C 79 % 1013,2 hPa 0,0 mm 29,4 km/h (5 Bft) W 272 ° 0 min 0,000 mm 0,0 UV-I 0 W/m² 4,9 °C 4,4 °C 43,5 km/h (6 Bft)
15.03.2019 22:41 8,3 °C 79 % 1013,3 hPa 0,0 mm 23,8 km/h (4 Bft) W-SW 252 ° 0 min 0,000 mm 0,0 UV-I 0 W/m² 4,9 °C 4,9 °C 37,0 km/h (5 Bft)
15.03.2019 22:42 8,3 °C 79 % 1013,3 hPa 0,0 mm 27,9 km/h (4 Bft) W-NW 296 ° 0 min 0,000 mm 0,0 UV-I 0 W/m² 4,9 °C 4,5 °C 37,0 km/h (5 Bft)
15.03.2019 22:43 8,4 °C 79 % 1013,3 hPa 0,0 mm 22,5 km/h (4 Bft) W-SW 247 ° 0 min 0,000 mm 0,0 UV-I 0 W/m² 5,0 °C 5,1 °C 38,6 km/h (5 Bft)
15.03.2019 22:44 8,4 °C 79 % 1013,4 hPa 0,0 mm 24,0 km/h (4 Bft) W 263 ° 0 min 0,000 mm 0,0 UV-I 0 W/m² 5,0 °C 5,0 °C 37,0 km/h (5 Bft)
15.03.2019 22:45 8,4 °C 79 % 1013,3 hPa 0,0 mm 18,0 km/h (3 Bft) W 269 ° 0 min 0,000 mm 0,0 UV-I 0 W/m² 5,0 °C 5,6 °C 25,7 km/h (4 Bft)
15.03.2019 22:46 8,4 °C 79 % 1013,4 hPa 0,0 mm 26,7 km/h (4 Bft) W 264 ° 0 min 0,000 mm 0,0 UV-I 0 W/m² 5,0 °C 4,7 °C 40,2 km/h (6 Bft)
15.03.2019 22:47 8,4 °C 78 % 1013,3 hPa 0,0 mm 27,6 km/h (4 Bft) W-SW 257 ° 0 min 0,000 mm 0,0 UV-I 0 W/m² 4,8 °C 4,7 °C 43,5 km/h (6 Bft)
15.03.2019 22:48 8,4 °C 79 % 1013,4 hPa 0,0 mm 23,0 km/h (4 Bft) W 271 ° 0 min 0,000 mm 0,0 UV-I 0 W/m² 5,0 °C 5,1 °C 33,8 km/h (5 Bft)
15.03.2019 22:49 8,4 °C 79 % 1013,4 hPa 0,0 mm 20,5 km/h (4 Bft) W 268 ° 0 min 0,000 mm 0,0 UV-I 0 W/m² 5,0 °C 5,3 °C 29,0 km/h (5 Bft)
15.03.2019 22:50 8,4 °C 79 % 1013,3 hPa 0,0 mm 19,6 km/h (3 Bft) W 265 ° 0 min 0,000 mm 0,0 UV-I 0 W/m² 5,0 °C 5,4 °C 29,0 km/h (5 Bft)
15.03.2019 22:51 8,4 °C 79 % 1013,4 hPa 0,0 mm 19,8 km/h (3 Bft) W-SW 246 ° 0 min 0,000 mm 0,0 UV-I 0 W/m² 5,0 °C 5,4 °C 27,4 km/h (4 Bft)
15.03.2019 22:52 8,4 °C 78 % 1013,4 hPa 0,0 mm 24,1 km/h (4 Bft) W 260 ° 0 min 0,000 mm 0,0 UV-I 0 W/m² 4,8 °C 5,0 °C 35,4 km/h (5 Bft)
15.03.2019 22:53 8,4 °C 78 % 1013,4 hPa 0,0 mm 21,4 km/h (4 Bft) W-SW 254 ° 0 min 0,000 mm 0,0 UV-I 0 W/m² 4,8 °C 5,2 °C 30,6 km/h (5 Bft)
15.03.2019 22:54 8,4 °C 79 % 1013,4 hPa 0,0 mm 27,4 km/h (4 Bft) W 275 ° 0 min 0,000 mm 0,0 UV-I 0 W/m² 5,0 °C 4,7 °C 40,2 km/h (6 Bft)
15.03.2019 22:55 8,4 °C 78 % 1013,4 hPa 0,0 mm 23,6 km/h (4 Bft) W 268 ° 0 min 0,000 mm 0,0 UV-I 0 W/m² 4,8 °C 5,0 °C 30,6 km/h (5 Bft)
15.03.2019 22:56 8,4 °C 78 % 1013,4 hPa 0,0 mm 25,6 km/h (4 Bft) W 261 ° 0 min 0,000 mm 0,0 UV-I 0 W/m² 4,8 °C 4,8 °C 32,2 km/h (5 Bft)
15.03.2019 22:57 8,4 °C 78 % 1013,3 hPa 0,0 mm 24,1 km/h (4 Bft) W-SW 248 ° 0 min 0,000 mm 0,0 UV-I 0 W/m² 4,8 °C 5,0 °C 35,4 km/h (5 Bft)
15.03.2019 22:58 8,4 °C 78 % 1013,3 hPa 0,0 mm 18,4 km/h (3 Bft) W 278 ° 0 min 0,000 mm 0,0 UV-I 0 W/m² 4,8 °C 5,5 °C 27,4 km/h (4 Bft)
15.03.2019 22:59 8,4 °C 78 % 1013,4 hPa 0,0 mm 20,0 km/h (4 Bft) W-SW 246 ° 0 min 0,000 mm 0,0 UV-I 0 W/m² 4,8 °C 5,4 °C 29,0 km/h (5 Bft)
15.03.2019 23:00 8,4 °C 78 % 1013,4 hPa 0,0 mm 19,0 km/h (3 Bft) W 261 ° 0 min 0,000 mm 0,0 UV-I 0 W/m² 4,8 °C 5,5 °C 24,1 km/h (4 Bft)
15.03.2019 23:01 8,4 °C 79 % 1013,5 hPa 0,0 mm 22,9 km/h (4 Bft) W 272 ° 0 min 0,051 mm 0,0 UV-I 0 W/m² 5,0 °C 5,1 °C 38,6 km/h (5 Bft)
15.03.2019 23:02 8,4 °C 78 % 1013,3 hPa 0,0 mm 24,6 km/h (4 Bft) W-SW 252 ° 0 min 0,000 mm 0,0 UV-I 0 W/m² 4,8 °C 4,9 °C 37,0 km/h (5 Bft)
15.03.2019 23:03 8,4 °C 78 % 1013,4 hPa 0,0 mm 16,3 km/h (3 Bft) SW 228 ° 0 min 0,000 mm 0,0 UV-I 0 W/m² 4,8 °C 5,8 °C 22,5 km/h (4 Bft)
15.03.2019 23:04 8,4 °C 78 % 1013,5 hPa 0,0 mm 19,8 km/h (3 Bft) W-SW 249 ° 0 min 0,000 mm 0,0 UV-I 0 W/m² 4,8 °C 5,4 °C 29,0 km/h (5 Bft)
15.03.2019 23:05 8,4 °C 78 % 1013,4 hPa 0,0 mm 18,3 km/h (3 Bft) W 259 ° 0 min 0,000 mm 0,0 UV-I 0 W/m² 4,8 °C 5,5 °C 27,4 km/h (4 Bft)
15.03.2019 23:06 8,4 °C 78 % 1013,4 hPa 0,0 mm 14,8 km/h (3 Bft) W-NW 292 ° 0 min 0,000 mm 0,0 UV-I 0 W/m² 4,8 °C 6,0 °C 27,4 km/h (4 Bft)
15.03.2019 23:07 8,4 °C 79 % 1013,3 hPa 0,0 mm 17,0 km/h (3 Bft) W 262 ° 0 min 0,000 mm 0,0 UV-I 0 W/m² 5,0 °C 5,7 °C 25,7 km/h (4 Bft)
15.03.2019 23:08 8,3 °C 78 % 1013,3 hPa 0,0 mm 25,5 km/h (4 Bft) W 261 ° 0 min 0,000 mm 0,0 UV-I 0 W/m² 4,7 °C 4,7 °C 30,6 km/h (5 Bft)
15.03.2019 23:09 8,3 °C 79 % 1013,3 hPa 0,0 mm 25,3 km/h (4 Bft) W-NW 291 ° 0 min 0,000 mm 0,0 UV-I 0 W/m² 4,9 °C 4,7 °C 32,2 km/h (5 Bft)
15.03.2019 23:10 8,3 °C 79 % 1013,4 hPa 0,0 mm 19,4 km/h (3 Bft) SW 220 ° 0 min 0,000 mm 0,0 UV-I 0 W/m² 4,9 °C 5,3 °C 29,0 km/h (5 Bft)
15.03.2019 23:11 8,3 °C 79 % 1013,5 hPa 0,0 mm 24,5 km/h (4 Bft) W 275 ° 0 min 0,000 mm 0,0 UV-I 0 W/m² 4,9 °C 4,8 °C 40,2 km/h (6 Bft)
15.03.2019 23:12 8,3 °C 78 % 1013,4 hPa 0,0 mm 17,9 km/h (3 Bft) W-NW 282 ° 0 min 0,000 mm 0,0 UV-I 0 W/m² 4,7 °C 5,5 °C 22,5 km/h (4 Bft)
15.03.2019 23:13 8,3 °C 79 % 1013,5 hPa 0,0 mm 14,6 km/h (3 Bft) W-SW 250 ° 0 min 0,000 mm 0,0 UV-I 0 W/m² 4,9 °C 5,9 °C 22,5 km/h (4 Bft)
15.03.2019 23:14 8,3 °C 79 % 1013,4 hPa 0,0 mm 19,0 km/h (3 Bft) W 278 ° 0 min 0,000 mm 0,0 UV-I 0 W/m² 4,9 °C 5,3 °C 25,7 km/h (4 Bft)
15.03.2019 23:15 8,3 °C 79 % 1013,5 hPa 0,0 mm 22,1 km/h (4 Bft) W 260 ° 0 min 0,000 mm 0,0 UV-I 0 W/m² 4,9 °C 5,0 °C 29,0 km/h (5 Bft)
15.03.2019 23:16 8,3 °C 79 % 1013,4 hPa 0,0 mm 21,4 km/h (4 Bft) W-NW 296 ° 0 min 0,000 mm 0,0 UV-I 0 W/m² 4,9 °C 5,1 °C 29,0 km/h (5 Bft)
15.03.2019 23:17 8,3 °C 79 % 1013,5 hPa 0,0 mm 23,5 km/h (4 Bft) W-SW 256 ° 0 min 0,000 mm 0,0 UV-I 0 W/m² 4,9 °C 4,9 °C 40,2 km/h (6 Bft)
15.03.2019 23:18 8,3 °C 78 % 1013,4 hPa 0,0 mm 18,0 km/h (3 Bft) SW 236 ° 0 min 0,000 mm 0,0 UV-I 0 W/m² 4,7 °C 5,4 °C 24,1 km/h (4 Bft)
15.03.2019 23:19 8,3 °C 79 % 1013,4 hPa 0,0 mm 20,2 km/h (4 Bft) W 263 ° 0 min 0,000 mm 0,0 UV-I 0 W/m² 4,9 °C 5,2 °C 32,2 km/h (5 Bft)
15.03.2019 23:20 8,3 °C 79 % 1013,4 hPa 0,0 mm 24,1 km/h (4 Bft) W-SW 254 ° 0 min 0,000 mm 0,0 UV-I 0 W/m² 4,9 °C 4,8 °C 40,2 km/h (6 Bft)
15.03.2019 23:21 8,3 °C 79 % 1013,4 hPa 0,0 mm 19,3 km/h (3 Bft) W 269 ° 0 min 0,000 mm 0,0 UV-I 0 W/m² 4,9 °C 5,3 °C 30,6 km/h (5 Bft)
15.03.2019 23:22 8,3 °C 79 % 1013,4 hPa 0,0 mm 18,1 km/h (3 Bft) W-SW 257 ° 0 min 0,000 mm 0,0 UV-I 0 W/m² 4,9 °C 5,4 °C 29,0 km/h (5 Bft)
15.03.2019 23:23 8,3 °C 79 % 1013,4 hPa 0,0 mm 18,6 km/h (3 Bft) W 278 ° 0 min 0,000 mm 0,0 UV-I 0 W/m² 4,9 °C 5,4 °C 25,7 km/h (4 Bft)
15.03.2019 23:24 8,3 °C 79 % 1013,3 hPa 0,0 mm 20,9 km/h (4 Bft) NW 317 ° 0 min 0,000 mm 0,0 UV-I 0 W/m² 4,9 °C 5,1 °C 30,6 km/h (5 Bft)
15.03.2019 23:25 8,3 °C 79 % 1013,4 hPa 0,0 mm 17,8 km/h (3 Bft) W-SW 244 ° 0 min 0,000 mm 0,0 UV-I 0 W/m² 4,9 °C 5,5 °C 30,6 km/h (5 Bft)
15.03.2019 23:26 8,3 °C 79 % 1013,4 hPa 0,0 mm 31,0 km/h (5 Bft) W 267 ° 0 min 0,000 mm 0,0 UV-I 0 W/m² 4,9 °C 4,3 °C 45,1 km/h (6 Bft)
15.03.2019 23:27 8,3 °C 78 % 1013,3 hPa 0,0 mm 19,8 km/h (3 Bft) W 275 ° 0 min 0,000 mm 0,0 UV-I 0 W/m² 4,7 °C 5,3 °C 27,4 km/h (4 Bft)
15.03.2019 23:28 8,3 °C 78 % 1013,4 hPa 0,0 mm 17,5 km/h (3 Bft) W-NW 292 ° 0 min 0,000 mm 0,0 UV-I 0 W/m² 4,7 °C 5,5 °C 24,1 km/h (4 Bft)
15.03.2019 23:29 8,3 °C 78 % 1013,3 hPa 0,0 mm 21,1 km/h (4 Bft) W-SW 252 ° 0 min 0,000 mm 0,0 UV-I 0 W/m² 4,7 °C 5,1 °C 33,8 km/h (5 Bft)
15.03.2019 23:30 8,4 °C 78 % 1013,4 hPa 0,0 mm 18,2 km/h (3 Bft) W-NW 288 ° 0 min 0,000 mm 0,0 UV-I 0 W/m² 4,8 °C 5,6 °C 24,1 km/h (4 Bft)
15.03.2019 23:31 8,4 °C 78 % 1013,4 hPa 0,0 mm 20,0 km/h (4 Bft) SW 236 ° 0 min 0,000 mm 0,0 UV-I 0 W/m² 4,8 °C 5,4 °C 33,8 km/h (5 Bft)
15.03.2019 23:32 8,4 °C 78 % 1013,8 hPa 0,0 mm 30,6 km/h (5 Bft) W-NW 289 ° 0 min 0,000 mm 0,0 UV-I 0 W/m² 4,8 °C 4,4 °C 45,1 km/h (6 Bft)
15.03.2019 23:33 8,4 °C 78 % 1013,3 hPa 0,0 mm 25,6 km/h (4 Bft) W 275 ° 0 min 0,000 mm 0,0 UV-I 0 W/m² 4,8 °C 4,8 °C 43,5 km/h (6 Bft)
15.03.2019 23:34 8,4 °C 78 % 1013,5 hPa 0,0 mm 29,6 km/h (5 Bft) W-SW 239 ° 0 min 0,000 mm 0,0 UV-I 0 W/m² 4,8 °C 4,5 °C 43,5 km/h (6 Bft)
15.03.2019 23:35 8,4 °C 78 % 1013,5 hPa 0,0 mm 24,7 km/h (4 Bft) NW 313 ° 0 min 0,000 mm 0,0 UV-I 0 W/m² 4,8 °C 4,9 °C 41,8 km/h (6 Bft)
15.03.2019 23:36 8,4 °C 78 % 1013,4 hPa 0,0 mm 19,3 km/h (3 Bft) W-SW 241 ° 0 min 0,000 mm 0,0 UV-I 0 W/m² 4,8 °C 5,4 °C 27,4 km/h (4 Bft)
15.03.2019 23:37 8,4 °C 78 % 1013,4 hPa 0,0 mm 23,4 km/h (4 Bft) W 268 ° 0 min 0,000 mm 0,0 UV-I 0 W/m² 4,8 °C 5,0 °C 30,6 km/h (5 Bft)
15.03.2019 23:38 8,4 °C 78 % 1013,4 hPa 0,0 mm 24,0 km/h (4 Bft) W-NW 292 ° 0 min 0,000 mm 0,0 UV-I 0 W/m² 4,8 °C 5,0 °C 32,2 km/h (5 Bft)
15.03.2019 23:39 8,4 °C 78 % 1013,4 hPa 0,0 mm 17,3 km/h (3 Bft) W 261 ° 0 min 0,000 mm 0,0 UV-I 0 W/m² 4,8 °C 5,7 °C 22,5 km/h (4 Bft)
15.03.2019 23:40 8,4 °C 78 % 1013,4 hPa 0,0 mm 21,4 km/h (4 Bft) W 266 ° 0 min 0,000 mm 0,0 UV-I 0 W/m² 4,8 °C 5,2 °C 40,2 km/h (6 Bft)
15.03.2019 23:41 8,4 °C 78 % 1013,4 hPa 0,0 mm 26,9 km/h (4 Bft) W-SW 258 ° 0 min 0,000 mm 0,0 UV-I 0 W/m² 4,8 °C 4,7 °C 33,8 km/h (5 Bft)
15.03.2019 23:42 8,4 °C 78 % 1013,4 hPa 0,0 mm 20,1 km/h (4 Bft) W 264 ° 0 min 0,000 mm 0,0 UV-I 0 W/m² 4,8 °C 5,3 °C 29,0 km/h (5 Bft)
15.03.2019 23:43 8,4 °C 78 % 1013,5 hPa 0,0 mm 15,4 km/h (3 Bft) W-SW 257 ° 0 min 0,000 mm 0,0 UV-I 0 W/m² 4,8 °C 5,9 °C 22,5 km/h (4 Bft)
15.03.2019 23:44 8,4 °C 78 % 1013,5 hPa 0,0 mm 19,0 km/h (3 Bft) W 277 ° 0 min 0,000 mm 0,0 UV-I 0 W/m² 4,8 °C 5,5 °C 29,0 km/h (5 Bft)
15.03.2019 23:45 8,4 °C 78 % 1013,4 hPa 0,0 mm 19,0 km/h (3 Bft) W-SW 258 ° 0 min 0,000 mm 0,0 UV-I 0 W/m² 4,8 °C 5,5 °C 25,7 km/h (4 Bft)
15.03.2019 23:46 8,4 °C 78 % 1013,7 hPa 0,0 mm 31,2 km/h (5 Bft) W-SW 254 ° 0 min 0,000 mm 0,0 UV-I 0 W/m² 4,8 °C 4,4 °C 46,7 km/h (6 Bft)
15.03.2019 23:47 8,4 °C 77 % 1013,4 hPa 0,0 mm 29,6 km/h (5 Bft) W-SW 251 ° 0 min 0,000 mm 0,0 UV-I 0 W/m² 4,6 °C 4,5 °C 41,8 km/h (6 Bft)
15.03.2019 23:48 8,4 °C 77 % 1013,5 hPa 0,0 mm 26,8 km/h (4 Bft) W-NW 288 ° 0 min 0,000 mm 0,0 UV-I 0 W/m² 4,6 °C 4,7 °C 40,2 km/h (6 Bft)
15.03.2019 23:49 8,4 °C 77 % 1013,6 hPa 0,0 mm 34,2 km/h (5 Bft) W-SW 240 ° 0 min 0,000 mm 0,0 UV-I 0 W/m² 4,6 °C 4,2 °C 46,7 km/h (6 Bft)
15.03.2019 23:50 8,4 °C 77 % 1013,5 hPa 0,0 mm 23,3 km/h (4 Bft) W-NW 302 ° 0 min 0,000 mm 0,0 UV-I 0 W/m² 4,6 °C 5,0 °C 38,6 km/h (5 Bft)
15.03.2019 23:51 8,4 °C 77 % 1013,5 hPa 0,0 mm 19,4 km/h (3 Bft) W-SW 258 ° 0 min 0,000 mm 0,0 UV-I 0 W/m² 4,6 °C 5,4 °C 25,7 km/h (4 Bft)
15.03.2019 23:52 8,4 °C 77 % 1013,6 hPa 0,0 mm 22,2 km/h (4 Bft) W-SW 248 ° 0 min 0,000 mm 0,0 UV-I 0 W/m² 4,6 °C 5,1 °C 32,2 km/h (5 Bft)
15.03.2019 23:53 8,4 °C 77 % 1013,4 hPa 0,0 mm 24,3 km/h (4 Bft) W 278 ° 0 min 0,000 mm 0,0 UV-I 0 W/m² 4,6 °C 4,9 °C 48,3 km/h (6 Bft)
15.03.2019 23:54 8,4 °C 77 % 1013,5 hPa 0,0 mm 25,2 km/h (4 Bft) W 280 ° 0 min 0,000 mm 0,0 UV-I 0 W/m² 4,6 °C 4,9 °C 40,2 km/h (6 Bft)
15.03.2019 23:55 8,4 °C 77 % 1013,7 hPa 0,0 mm 28,2 km/h (4 Bft) W 281 ° 0 min 0,000 mm 0,0 UV-I 0 W/m² 4,6 °C 4,6 °C 48,3 km/h (6 Bft)
15.03.2019 23:56 8,4 °C 77 % 1013,7 hPa 0,0 mm 29,1 km/h (5 Bft) W 264 ° 0 min 0,000 mm 0,0 UV-I 0 W/m² 4,6 °C 4,6 °C 41,8 km/h (6 Bft)
15.03.2019 23:57 8,5 °C 77 % 1013,6 hPa 0,0 mm 23,5 km/h (4 Bft) W 266 ° 0 min 0,000 mm 0,0 UV-I 0 W/m² 4,7 °C 5,1 °C 27,4 km/h (4 Bft)
15.03.2019 23:58 8,5 °C 77 % 1013,8 hPa 0,0 mm 12,5 km/h (3 Bft) W 278 ° 0 min 0,000 mm 0,0 UV-I 0 W/m² 4,7 °C 6,4 °C 20,9 km/h (4 Bft)
15.03.2019 23:59 8,5 °C 77 % 1013,7 hPa 0,0 mm 19,2 km/h (3 Bft) SW 228 ° 0 min 0,000 mm 0,0 UV-I 0 W/m² 4,7 °C 5,6 °C 35,4 km/h (5 Bft)
_ Min-Zeit 09:11 23:59 00:02 - 10:01 - - - - - - 05:34 00:05 10:01
Minimum _ 2,3 °C 77 % 1008,9 hPa - 2,4 km/h (1 Bft) - - - - - - 0,4 °C -2,4 °C 4,8 km/h (1 Bft)
_ Max-Zeit 23:59 10:40 23:58 20:26 23:49 - - 23:59 23:01 13:22 12:42 16:43 23:58 16:40
Maximum _ 8,6 °C 92 % 1013,8 hPa 0,2 mm 34,2 km/h
W-SW (5 Bft)
- - 0 min 0,051 mm 0,9 UV-I 109 W/m² 5,5 °C 6,4 °C 56,3 km/h
W (7 Bft)
Durchschnitt _ 5,2 °C 87 % 1011,5 hPa #17,2 mm 16,2 km/h (3 Bft) W - #0 min. #0,737 mm 0,6 UV-I 25 W/m² 3,1 °C 2,0 °C 24,1 km/h (4 Bft)